GFSNGP_sfc_temp_000.txt.gz
Temp
38 40 39 39 38 38 34 36 33 38 35 41 43 43 44 46 45 46 47 47 45 44 48 47 46 44 42 42 41 40 39 39 38 40 40 38 38 39 40 40 41 40 40 38
32 36 36 33 37 37 37 36 36 37 36 45 43 42 43 44 45 44 44 44 44 45 44 44 44 42 42 41 40 40 39 38 40 42 42 41 40 40 39 39 39 38 35 33
26 32 31 28 34 35 36 39 38 34 41 40 40 42 43 45 43 42 41 43 43 45 46 46 43 40 39 40 39 38 40 40 39 40 40 40 40 38 36 34 33 32 32 32
24 32 23 39 43 44 39 41 43 40 40 41 42 43 44 44 42 40 41 43 45 46 46 42 41 40 37 36 37 37 36 36 38 39 37 36 35 34 33 33 32 31 30 30
29 29 32 40 42 37 36 36 42 38 41 42 44 41 41 41 41 42 43 44 45 44 42 40 38 36 36 36 35 36 36 36 36 35 34 33 32 31 31 30 30 29 30 29
28 26 24 36 40 43 41 30 40 43 45 46 42 35 41 43 43 44 45 46 44 42 40 39 39 37 39 35 35 34 35 35 34 33 31 29 29 29 29 28 29 29 28 27
31 27 29 39 42 45 31 33 43 43 44 41 38 40 40 42 43 46 46 45 43 41 38 38 39 38 36 35 33 35 35 34 33 31 30 29 28 27 26 26 25 20 17 20
26 25 23 41 42 36 42 43 45 45 42 41 41 40 40 42 43 44 43 41 42 38 37 38 39 37 35 32 36 35 33 32 31 30 30 30 27 26 26 24 20 18 14 16
35 31 41 46 46 48 48 43 41 39 41 40 38 38 40 40 42 43 42 41 39 36 36 37 37 38 34 36 35 34 32 30 30 30 29 29 26 25 24 22 18 18 22 20
37 41 43 47 49 47 44 42 41 41 40 40 39 39 39 40 41 42 41 37 35 35 35 34 36 36 34 34 33 32 31 30 29 28 27 26 27 27 25 18 17 21 19 19
37 44 44 44 41 42 42 42 42 42 42 41 40 38 39 39 38 38 36 36 35 34 34 34 34 33 32 32 32 31 31 31 29 27 25 25 26 25 24 22 19 20 18 18
37 44 42 44 44 45 42 42 43 42 40 42 40 38 38 38 38 36 36 35 34 34 33 34 34 32 31 31 30 29 30 28 22 21 21 23 24 23 29 27 29 29 28 23
44 49 47 44 44 44 42 42 42 41 40 39 38 37 36 35 35 37 36 35 34 34 33 32 32 31 30 26 24 23 21 23 20 21 19 17 17 17 12 19 25 26 26 26
48 45 39 40 40 44 44 44 42 41 40 39 37 36 34 33 34 33 32 33 33 33 32 30 30 30 30 29 25 19 17 17 18 16 14 14 8 10 7 6 7 11 19 23
40 40 39 43 44 43 41 39 37 35 35 34 34 32 32 31 31 32 34 32 32 31 30 29 27 28 29 30 28 25 25 20 12 11 10 9 8 7 6 6 6 10 14 15
38 39 40 38 37 38 37 36 34 33 32 32 31 31 31 30 30 32 34 31 25 26 27 23 25 26 29 31 29 26 23 20 15 14 12 11 10 8 10 8 10 13 10 10
35 36 35 34 34 34 35 35 34 32 32 32 30 27 31 29 25 28 27 22 19 20 23 25 22 31 29 30 28 21 18 18 17 16 13 11 8 7 6 7 10 12 7 8
37 37 38 38 36 34 33 34 32 31 31 31 25 25 30 29 26 28 20 19 18 25 25 22 22 26 24 29 28 25 19 15 15 12 11 7 7 7 3 6 9 9 8 11
38 37 37 36 35 33 32 32 31 30 25 32 30 28 29 30 26 22 23 25 23 25 25 23 29 28 26 25 27 24 22 14 12 13 9 6 3 4 1 -0 5 4 5 9
34 34 34 33 32 28 29 30 28 28 30 29 33 30 30 31 27 22 23 25 25 26 27 28 28 26 25 25 25 23 16 13 17 10 2 7 -1 -1 -3 2 5 3 2 4
32 32 29 28 28 28 25 26 24 26 29 25 32 32 31 31 23 22 23 25 27 25 29 29 26 25 27 26 25 24 22 23 14 7 4 4 1 -2 -3 -4 -2 -0 1 4
32 28 26 26 25 27 29 27 25 24 25 30 33 31 31 23 23 23 24 27 27 28 27 26 25 26 26 26 25 25 25 24 19 10 4 5 5 2 -1 -4 -2 1 -1 3
31 29 29 25 25 29 29 27 26 25 25 28 31 31 30 26 23 21 23 25 24 25 27 21 25 28 27 22 24 24 25 24 22 19 12 11 9 9 1 -1 -2 -1 -2 -0
30 29 29 28 25 23 24 30 28 27 25 25 26 30 29 25 24 23 23 24 23 22 17 20 27 25 25 23 23 24 25 25 24 13 7 5 2 5 2 -2 -1 -4 -5 -3
27 27 26 23 25 28 29 29 29 28 26 26 29 28 26 26 25 20 16 17 19 19 18 23 25 20 21 24 25 22 20 23 24 18 8 7 10 7 7 1 3 5 -2 -2
29 29 29 28 28 29 29 28 30 32 32 31 28 23 22 24 24 24 26 25 16 19 23 23 24 22 17 16 23 25 20 18 17 18 15 14 12 13 13 13 9 7 6 7
25 22 25 27 27 27 27 32 32 32 33 32 31 20 22 29 27 27 26 24 22 23 17 22 22 23 23 14 14 12 15 18 15 16 17 16 14 14 16 15 14 11 7 5

GFSNGP_sfc_temp_003.txt.gz
Temp
42 44 43 42 42 42 40 42 36 42 43 48 51 51 52 53 54 53 54 53 51 50 52 52 50 49 49 49 48 47 47 46 45 45 45 42 44 45 47 47 46 45 43 43
35 39 39 35 41 41 41 42 41 42 41 52 52 51 51 51 51 51 50 47 48 47 47 49 49 48 47 47 45 45 44 43 44 44 46 46 45 44 44 43 43 42 41 40
32 35 35 33 40 41 43 45 45 39 48 48 49 49 51 52 50 45 43 45 46 48 48 49 49 46 46 45 45 44 43 43 44 44 44 43 43 43 42 41 41 40 40 39
32 34 28 45 48 48 45 46 47 46 47 48 50 51 51 48 44 42 42 43 47 50 50 50 49 47 45 45 44 43 43 43 44 43 42 42 41 40 40 40 39 38 38 37
30 32 36 43 47 44 42 44 47 46 48 49 52 50 47 44 44 42 41 45 49 51 50 49 47 46 44 43 43 43 43 43 42 41 40 40 38 38 38 38 37 37 36 36
31 28 27 40 47 49 48 37 48 49 48 48 48 36 44 41 43 44 47 49 50 51 49 47 47 45 43 43 42 41 41 41 41 40 39 38 38 37 37 37 36 35 34 34
32 30 35 44 46 48 34 36 44 48 48 45 41 39 40 42 43 47 48 49 50 49 46 46 46 45 43 40 39 41 42 41 41 40 38 38 37 38 37 36 33 30 29 30
29 28 26 46 46 39 44 44 46 46 44 41 40 40 41 43 44 46 46 48 49 46 45 46 46 43 42 41 43 43 42 40 40 40 38 38 37 37 36 34 31 29 28 29
36 37 46 48 48 49 46 44 42 41 41 40 39 40 44 44 45 45 46 47 47 45 44 44 44 44 42 43 42 42 40 39 39 39 38 38 36 35 34 34 31 29 29 27
38 45 47 49 48 46 44 44 43 44 42 42 42 43 43 44 44 44 45 45 45 43 43 42 44 43 42 42 41 40 39 39 39 37 37 37 36 35 33 31 29 29 27 26
38 46 46 46 46 48 43 44 43 44 45 44 44 43 43 43 42 43 43 43 43 41 41 42 43 41 41 40 39 39 38 38 37 35 34 34 34 33 32 31 29 28 27 27
38 46 44 44 45 45 43 43 44 44 43 45 44 43 43 42 42 41 40 41 41 41 41 41 41 39 39 38 37 36 35 35 34 33 33 32 33 32 31 29 28 28 27 26
45 47 43 43 45 46 44 45 45 45 45 42 44 42 41 40 40 39 40 40 40 40 39 38 38 37 36 33 32 31 31 31 33 29 32 31 30 29 27 29 26 26 26 26
47 44 40 42 41 45 46 46 45 45 45 43 42 41 40 39 39 39 38 39 39 39 37 37 36 34 34 34 32 29 29 24 30 31 31 29 28 27 26 24 22 23 24 23
41 43 43 44 44 44 45 44 41 41 41 40 41 39 39 38 38 37 38 38 38 36 37 35 33 33 34 34 32 31 32 33 30 29 29 26 27 27 26 25 24 23 23 23
41 41 42 41 42 42 41 41 39 40 40 40 39 38 38 36 34 34 35 36 30 31 32 29 28 31 32 34 33 33 32 27 24 30 29 28 28 26 25 24 24 22 21 20
38 38 39 39 39 39 39 40 39 38 38 38 36 33 32 32 32 31 32 30 26 25 29 29 29 34 31 34 34 32 31 31 22 30 28 27 26 25 24 23 23 22 20 19
42 41 40 38 37 37 37 37 36 35 34 36 31 31 31 30 29 30 31 27 26 27 29 30 28 31 30 33 31 30 29 27 29 28 27 27 26 25 23 22 22 21 20 20
41 39 38 38 38 36 35 35 34 33 31 30 27 29 32 33 32 31 29 26 26 27 30 30 30 32 31 30 31 29 28 28 28 28 26 22 25 25 23 23 22 22 20 19
38 38 37 37 36 32 31 32 30 31 32 30 28 28 30 34 34 32 28 27 30 32 32 32 32 31 30 29 29 29 28 28 27 27 25 23 24 23 23 19 20 22 20 19
34 35 32 30 30 30 27 28 27 28 31 29 25 27 31 33 33 31 27 29 32 30 31 32 32 31 31 31 31 30 28 28 28 27 25 24 23 24 23 22 22 21 21 20
35 32 29 28 28 29 31 30 30 27 27 27 27 30 32 31 32 29 28 29 33 28 33 34 32 31 32 30 31 29 29 29 29 28 26 24 23 23 23 22 21 22 22 21
33 32 31 28 27 31 30 29 28 27 27 28 29 31 30 32 33 30 29 32 32 29 32 32 27 31 30 30 29 29 29 29 29 29 27 25 24 23 23 23 22 21 21 21
33 32 31 31 27 26 27 33 32 31 30 30 31 31 31 32 32 31 32 28 26 26 31 30 28 27 23 30 29 29 29 29 29 29 27 20 24 23 22 22 20 22 20 17
30 30 29 27 29 31 31 32 31 33 33 33 34 34 33 33 30 32 30 30 25 24 30 23 26 25 28 30 29 29 28 28 28 29 27 26 25 24 24 23 21 21 21 20
32 32 32 30 30 31 31 32 31 32 32 32 33 34 33 30 31 30 29 29 28 26 31 31 31 30 30 28 28 27 27 27 27 27 26 27 26 25 25 24 23 22 22 21
30 25 29 31 33 34 32 31 31 31 32 32 31 33 32 31 32 31 30 30 29 30 30 30 30 30 30 29 28 27 26 26 25 25 25 25 25 25 24 25 25 25 23 20

GFSNGP_sfc_temp_006.txt.gz
Temp
52 53 53 51 50 52 50 49 42 47 51 56 59 59 60 60 61 61 60 58 58 58 56 57 58 58 58 57 56 56 55 54 51 52 52 52 51 51 51 50 50 50 49 48
43 49 51 47 51 52 51 52 51 51 50 59 60 60 58 58 57 57 55 55 53 50 52 57 57 57 55 56 56 54 54 50 51 51 51 51 50 49 49 49 49 48 47 46
37 44 43 37 46 51 52 53 52 45 54 57 56 55 56 56 56 52 50 50 47 49 57 57 57 56 56 56 55 53 52 51 51 51 49 49 49 49 48 47 47 45 45 45
35 36 31 48 57 56 52 54 57 56 55 55 56 57 60 54 49 44 44 49 52 55 56 57 59 58 57 56 55 53 51 51 50 49 48 48 48 47 46 46 45 44 44 43
32 36 44 49 53 51 49 49 55 53 54 55 57 57 54 46 44 47 49 52 54 57 58 58 58 57 56 54 54 51 50 48 49 48 47 47 46 45 45 45 44 43 42 41
35 30 30 48 53 56 55 43 53 51 47 47 53 41 41 49 47 48 54 56 56 57 58 58 56 55 54 53 52 50 49 48 49 48 47 46 45 45 45 45 43 42 39 39
35 32 41 54 54 55 36 41 50 46 45 45 42 42 45 46 50 56 56 56 56 57 56 57 57 56 52 52 50 51 51 50 49 48 46 46 46 46 45 44 40 35 33 34
35 30 29 54 53 40 50 49 45 46 48 47 47 46 49 52 53 54 55 56 56 54 54 55 56 54 52 51 53 52 51 49 48 47 46 46 45 45 44 42 37 33 32 33
43 45 57 59 54 55 50 47 50 47 50 48 47 49 51 51 53 54 54 55 55 53 52 53 55 54 51 52 52 49 48 47 46 46 45 46 44 43 41 40 34 32 33 32
44 51 55 56 58 54 51 47 47 47 50 49 49 50 51 53 53 52 54 52 52 51 50 49 52 51 50 50 49 47 46 45 46 45 44 44 44 42 40 35 32 32 32 31
45 52 54 55 52 49 48 46 46 51 51 50 51 51 51 51 51 51 51 51 50 49 48 49 51 47 47 45 45 45 45 44 44 43 42 42 42 41 37 36 32 30 31 30
38 49 49 47 47 49 46 47 51 49 50 53 52 51 51 50 50 50 49 49 49 48 47 47 47 46 45 44 42 41 39 41 41 40 40 39 40 39 31 29 28 28 27 27
48 49 49 48 47 51 50 50 51 51 52 51 52 52 50 49 49 46 49 49 48 46 46 45 43 41 42 38 36 34 36 36 40 36 38 37 36 35 32 34 29 27 26 26
50 47 45 49 48 50 50 51 52 53 53 52 51 51 49 48 48 48 47 47 46 45 44 42 41 39 40 39 38 34 35 31 37 38 38 36 34 33 32 30 29 29 29 26
47 50 50 50 50 51 53 52 49 49 50 49 50 48 48 46 45 45 45 43 42 41 43 42 39 38 40 38 37 36 36 37 34 35 34 32 32 32 31 31 30 29 29 29
49 50 50 48 49 50 49 49 47 46 47 47 46 44 45 45 44 42 38 37 34 35 37 33 32 36 37 39 39 39 36 31 32 34 34 33 32 31 31 30 30 28 27 25
44 42 45 45 46 46 46 46 46 45 43 44 41 39 40 37 34 36 37 34 33 31 31 31 32 39 36 38 38 38 36 35 29 35 33 32 31 30 30 29 29 28 27 24
49 48 48 47 45 44 43 43 42 41 40 40 35 33 32 32 33 34 34 33 32 31 33 33 33 36 35 37 35 35 34 34 33 32 32 31 31 31 29 29 29 27 27 26
48 47 47 45 45 43 42 41 40 38 34 34 33 32 32 32 33 35 34 32 31 30 35 33 32 33 35 33 33 35 33 32 32 32 31 29 29 30 29 28 28 27 27 27
46 47 46 45 43 39 36 37 34 36 37 35 33 32 31 33 33 33 33 32 33 37 35 35 34 34 33 34 31 35 33 31 32 31 30 30 29 28 29 27 27 27 27 26
42 43 38 36 36 35 33 33 32 33 35 33 31 31 31 32 33 33 32 33 37 33 34 33 35 38 38 36 35 33 32 31 31 31 30 29 29 29 28 28 27 27 27 27
42 38 34 34 34 35 36 35 35 33 32 32 32 32 31 32 33 33 34 33 37 33 37 37 39 35 38 31 36 32 32 32 31 31 30 30 29 28 28 28 27 27 27 27
40 39 38 34 33 37 36 34 33 33 32 32 32 31 32 34 34 33 33 36 37 35 36 36 35 32 32 32 32 31 31 31 31 31 31 30 30 29 28 28 28 27 27 27
40 39 38 37 34 33 33 38 36 35 33 34 34 34 33 33 34 38 37 34 32 33 33 34 32 32 31 32 31 31 31 31 31 31 32 29 30 29 29 28 28 28 28 26
36 37 36 33 35 39 38 38 35 35 36 36 35 36 36 36 33 34 34 33 32 32 34 32 31 32 31 32 31 31 31 30 31 31 31 31 30 30 29 29 29 28 28 27
39 41 42 39 38 39 39 38 34 35 36 33 34 34 35 34 34 33 33 33 34 33 33 33 32 32 32 32 31 31 30 31 30 30 29 29 30 30 29 29 29 29 29 28
40 35 38 39 41 41 40 38 34 33 34 32 32 33 34 33 33 33 33 33 32 32 33 33 33 32 33 32 31 31 30 30 29 29 29 29 29 29 29 29 29 30 29 28

GFSNGP_sfc_temp_009.txt.gz
Temp
56 59 59 57 56 57 55 55 46 50 54 59 62 62 63 64 64 63 61 60 59 59 60 59 59 62 62 62 61 61 59 59 56 56 55 54 53 53 52 52 52 52 50 50
47 57 57 52 56 58 58 57 56 56 54 65 64 65 63 59 59 60 58 56 56 58 58 59 61 61 61 60 61 60 58 56 56 55 52 52 51 51 51 50 50 50 49 48
40 49 46 38 51 56 57 59 56 48 56 63 61 58 55 55 59 55 53 51 55 57 59 60 61 61 59 62 61 59 58 57 56 52 51 50 51 51 50 49 49 47 47 47
36 38 32 53 63 61 57 58 61 61 61 60 56 58 58 57 55 52 52 53 56 58 59 61 63 63 61 62 61 59 57 55 54 52 50 50 51 50 49 49 47 46 45 45
34 39 47 53 55 54 51 51 61 57 57 57 58 58 54 55 54 52 54 57 59 61 61 61 61 61 60 59 58 57 55 54 53 51 48 49 49 48 48 47 46 45 45 42
37 32 32 50 59 61 59 44 57 55 53 48 53 43 51 54 55 55 58 61 60 61 61 61 61 61 58 57 57 53 54 54 52 51 49 48 48 47 48 47 46 44 41 40
37 34 43 57 58 60 40 43 55 53 50 50 47 50 52 54 56 59 60 60 61 61 59 59 59 58 56 56 55 55 55 54 52 51 50 49 48 48 47 46 43 39 36 37
38 33 32 59 57 44 54 57 54 50 49 49 52 53 54 55 56 58 59 60 60 58 57 57 58 56 54 54 57 54 54 52 49 49 49 49 47 47 46 44 41 37 33 34
47 47 60 59 56 59 58 53 51 47 48 50 52 53 54 55 56 57 58 59 59 57 55 56 56 55 52 52 52 49 46 46 45 47 48 49 47 45 43 43 38 34 35 33
48 55 58 57 59 57 55 51 49 48 53 55 53 54 54 55 56 56 57 56 57 54 53 52 54 54 52 49 48 48 44 44 46 45 45 46 47 45 43 39 35 34 32 31
51 57 58 60 54 54 52 52 51 56 55 54 54 54 55 54 55 55 55 55 54 53 52 52 52 51 51 48 46 43 42 44 44 45 45 44 44 43 41 39 34 32 31 30
45 56 52 52 54 54 53 52 55 54 54 56 56 54 55 54 54 54 52 53 53 53 52 51 49 48 46 46 44 41 40 41 42 41 42 41 42 41 32 31 30 29 28 27
56 57 53 50 51 54 55 54 55 54 55 54 55 55 54 52 53 49 52 52 51 50 49 47 45 43 44 42 41 37 38 39 41 39 39 39 37 34 33 35 30 29 27 27
56 52 43 48 49 55 54 55 54 56 56 55 55 54 53 52 51 50 50 50 50 47 45 45 44 42 42 43 41 38 38 35 37 38 37 36 34 33 33 31 30 32 29 28
50 50 47 50 55 55 56 56 53 53 53 52 53 51 50 48 47 47 49 49 45 41 43 44 41 41 43 41 39 40 38 36 35 34 34 33 33 33 33 32 32 31 32 32
49 53 54 52 52 53 53 52 50 50 50 49 48 46 47 46 46 46 45 45 37 35 37 33 33 37 41 41 41 42 42 33 33 34 33 34 33 32 32 31 31 31 30 29
49 47 49 48 50 50 50 51 50 48 46 46 44 42 41 38 36 40 40 39 35 33 33 33 33 39 39 40 40 41 39 36 32 34 33 33 32 32 31 30 30 30 30 27
54 53 52 50 49 48 48 47 45 45 43 43 36 34 33 33 33 34 34 35 34 33 34 34 35 38 38 39 39 37 34 33 33 32 32 32 31 31 31 30 30 30 30 30
52 51 51 50 50 47 45 44 44 41 36 35 34 33 34 33 34 35 35 33 33 32 36 37 33 33 37 36 34 36 34 32 32 33 33 31 31 31 30 30 30 30 30 29
50 51 50 49 47 42 40 41 36 40 41 38 34 33 33 34 34 33 34 33 34 36 36 38 36 35 36 37 32 36 34 32 32 32 32 32 30 30 29 30 30 29 29 28
45 46 44 40 39 37 35 35 34 35 38 34 32 32 32 33 33 33 33 35 39 35 37 36 36 38 41 38 36 34 33 32 32 32 32 31 30 30 30 30 30 30 29 28
46 43 36 36 36 38 39 38 39 34 34 33 33 33 33 33 33 34 34 34 40 34 36 37 38 37 39 33 38 34 33 32 32 32 32 32 31 30 29 30 29 30 29 29
44 44 42 37 34 39 40 36 34 34 33 33 33 33 34 36 35 33 33 39 37 35 36 36 35 33 33 32 33 33 32 32 32 32 32 32 31 30 29 29 29 29 28 29
43 43 43 41 38 36 34 41 42 39 34 34 34 34 35 33 34 39 37 36 34 33 34 35 33 32 32 32 32 32 32 32 32 32 32 32 32 31 30 29 29 29 30 29
41 41 40 37 37 41 43 45 42 41 39 39 38 38 36 37 33 34 34 34 33 33 33 33 32 32 32 32 32 32 32 32 32 32 32 32 32 32 31 31 30 29 29 30
42 43 44 44 44 45 44 43 41 40 38 36 37 36 36 36 35 34 34 33 34 34 33 33 32 32 32 32 32 32 32 32 31 30 30 30 30 30 30 30 30 30 30 30
44 39 43 43 44 45 44 43 38 36 35 33 33 35 36 35 34 34 34 33 33 33 33 33 33 32 32 32 33 32 32 32 32 30 30 30 29 29 29 30 30 30 30 30

GFSNGP_sfc_temp_012.txt.gz
Temp
55 57 58 56 56 57 54 54 44 49 53 59 60 61 59 60 61 61 60 59 58 56 57 58 58 59 60 59 59 58 56 56 53 53 52 50 48 48 48 47 47 46 45 44
46 57 55 50 54 55 56 57 56 55 53 64 63 61 58 57 58 57 56 55 55 57 57 58 59 59 59 59 58 57 54 53 55 53 51 49 47 47 46 45 45 44 43 43
39 47 45 38 49 55 57 59 56 47 56 60 57 56 57 57 56 53 53 54 54 56 57 58 58 58 57 59 58 55 54 55 52 48 48 48 48 47 46 44 43 41 41 41
36 38 33 54 61 61 56 59 61 60 59 57 55 57 58 56 53 52 53 53 55 57 58 58 59 59 58 59 57 57 56 52 49 48 48 48 47 46 44 43 41 40 40 39
34 37 45 51 56 53 50 49 59 56 55 55 56 56 53 55 55 53 54 56 58 59 59 58 58 57 56 55 55 55 55 50 47 48 48 47 45 43 42 41 40 39 40 37
35 32 31 49 59 61 59 41 56 54 52 50 53 41 47 54 55 56 58 59 59 59 59 57 56 56 54 53 52 52 49 49 47 46 47 44 44 43 42 41 41 37 35 34
36 34 40 56 59 60 40 41 54 53 51 50 46 47 52 55 56 58 59 59 59 58 56 55 56 55 52 51 50 51 50 48 44 41 43 43 44 43 41 39 36 32 31 32
37 33 32 60 57 44 52 56 55 53 50 46 46 51 54 55 55 57 57 57 58 55 54 54 55 53 51 50 51 49 47 47 46 45 45 46 42 41 40 37 34 31 28 29
45 43 58 61 56 57 54 51 49 50 49 50 49 53 54 53 55 55 56 56 56 54 52 53 54 54 50 49 49 47 45 44 43 44 44 44 41 38 36 35 30 29 30 27
48 55 58 59 59 57 56 53 53 53 53 53 52 53 53 54 54 54 54 53 54 52 51 51 53 52 49 48 47 44 42 42 42 41 41 41 42 39 35 31 28 29 27 26
51 57 59 57 56 54 53 53 53 55 56 54 54 53 53 53 53 53 53 53 52 51 50 49 50 48 48 46 44 42 41 40 38 37 37 38 39 35 32 30 29 26 25 24
44 56 53 53 53 53 52 51 53 54 53 55 55 53 53 51 52 52 50 51 50 50 48 48 48 46 46 45 43 38 35 35 35 35 35 35 35 35 33 31 32 31 29 23
55 59 56 53 53 54 53 53 55 54 54 53 54 53 52 50 50 47 50 49 48 48 47 45 44 43 44 40 38 36 34 34 35 33 34 32 31 31 28 31 32 31 29 29
58 54 48 50 46 53 55 55 54 56 55 54 52 52 50 48 48 47 47 47 48 47 44 42 42 41 41 41 38 34 34 32 33 34 31 30 31 30 30 29 26 28 29 28
53 53 51 51 52 55 56 55 52 52 51 50 50 48 47 45 44 44 45 45 44 43 43 41 39 36 40 38 36 36 36 33 30 32 31 30 30 30 30 29 28 28 26 27
52 51 51 51 53 53 53 52 49 48 48 47 46 42 44 43 43 42 41 41 34 34 36 35 33 35 36 39 38 37 36 32 29 32 31 31 30 29 29 28 28 28 25 23
48 47 50 49 50 50 50 50 49 46 44 44 40 38 39 36 34 36 37 35 33 34 34 33 33 37 36 38 36 36 34 33 32 31 31 30 29 29 29 28 27 27 26 21
54 54 53 51 49 48 47 44 41 41 40 40 34 30 29 29 32 33 33 34 33 34 34 34 34 34 34 37 35 33 30 31 31 30 30 30 30 29 29 28 28 27 26 24
54 52 51 50 50 45 43 41 40 37 34 33 32 32 32 32 33 33 34 33 33 33 35 34 33 33 34 34 32 31 32 31 31 30 31 30 30 29 29 29 28 27 26 25
51 51 49 47 44 39 37 38 35 37 38 35 30 32 32 31 32 33 33 31 33 35 36 34 34 32 32 34 29 32 32 32 31 30 31 30 30 29 29 28 28 28 28 26
42 43 40 38 37 35 33 33 32 34 36 32 32 32 32 33 34 34 32 32 36 35 34 34 33 33 35 35 32 31 31 32 30 30 30 30 30 30 29 29 29 29 28 27
43 39 34 34 35 36 37 36 37 33 32 32 30 32 33 33 34 34 35 33 37 35 35 34 34 34 35 30 34 32 31 31 30 31 31 31 30 30 29 28 28 29 29 28
41 40 38 35 33 38 38 35 34 33 32 33 32 33 33 34 34 32 31 36 34 34 34 34 35 34 34 32 31 31 30 30 31 31 31 31 30 30 30 28 28 28 27 27
41 40 40 38 35 35 34 38 38 36 33 32 32 34 34 33 33 36 37 35 34 33 33 33 33 33 32 32 30 30 30 30 32 31 31 31 31 31 29 29 28 29 28 28
37 38 38 35 36 37 38 40 39 38 37 37 36 37 36 36 34 35 34 34 33 33 33 33 33 32 32 32 31 31 31 31 31 30 31 31 30 30 31 31 30 29 29 28
39 40 41 40 40 41 41 41 39 39 38 35 35 35 35 34 35 34 34 34 33 33 33 33 33 33 32 32 31 31 32 31 30 31 30 30 29 29 29 30 30 29 29 29
40 37 41 41 43 42 42 41 38 36 35 33 33 34 35 34 34 34 34 33 33 33 33 33 33 33 32 32 32 32 32 32 31 31 30 29 28 28 28 28 28 28 28 28

GFSNGP_sfc_temp_015.txt.gz
Temp
48 50 51 49 48 49 46 45 35 40 45 51 48 49 51 53 54 52 51 51 50 49 48 49 50 51 51 52 51 51 50 49 47 47 47 44 45 45 44 44 43 43 41 40
37 48 47 43 46 47 48 49 48 48 46 53 52 52 51 51 50 49 50 50 50 50 51 51 51 51 51 50 50 50 48 50 47 45 45 44 43 43 44 41 42 41 39 39
30 40 37 30 41 48 50 51 48 37 46 49 48 49 46 46 48 48 47 48 48 50 51 51 49 50 47 48 49 48 49 49 45 45 43 43 45 44 43 39 39 39 36 36
25 29 22 45 54 52 49 50 51 50 48 48 47 46 47 48 46 46 47 48 49 49 49 50 48 48 47 48 48 46 45 45 44 43 42 43 42 43 40 39 39 35 34 33
27 26 36 46 50 46 43 42 49 46 47 48 50 48 44 49 47 45 47 48 48 49 49 47 47 47 46 46 45 45 44 43 42 41 41 41 41 41 41 39 34 33 33 32
25 20 18 39 51 55 51 31 49 48 44 44 45 31 38 46 48 48 50 50 49 49 48 46 46 47 45 44 43 42 42 43 41 39 38 38 36 38 38 36 34 32 32 31
31 19 31 46 54 54 33 34 46 46 44 43 39 39 44 47 48 50 50 50 49 48 45 45 46 46 44 43 41 43 43 43 42 40 39 39 39 39 36 32 30 27 27 28
33 28 23 52 51 39 43 46 47 45 44 43 43 44 46 48 49 50 47 48 48 45 44 46 47 45 43 41 43 43 41 40 39 39 40 43 37 35 32 29 28 25 17 21
36 33 46 52 49 50 49 46 44 45 47 44 44 46 47 47 47 47 45 45 46 44 44 45 45 44 41 41 42 40 38 37 37 38 39 38 33 30 29 28 23 23 25 18
39 47 50 52 50 51 49 46 47 49 50 50 48 46 46 46 45 45 44 43 44 44 43 42 44 44 41 41 40 38 36 35 35 34 34 34 33 31 28 22 21 25 22 20
40 48 49 49 48 48 48 50 51 51 52 49 47 46 45 44 44 43 42 43 43 42 41 41 41 41 41 40 39 36 35 34 31 30 31 32 31 28 27 26 24 21 19 19
35 47 46 44 47 50 50 49 51 52 50 50 48 45 45 43 43 42 41 42 42 42 42 40 39 39 41 41 37 33 31 30 28 27 26 29 28 27 32 31 32 32 30 18
46 50 48 47 49 52 48 50 53 51 49 46 46 45 43 41 41 40 41 41 41 41 41 38 36 36 38 35 34 31 31 31 27 27 26 25 24 24 20 27 33 33 31 30
50 48 43 47 45 51 51 51 51 51 47 46 44 43 41 40 40 39 39 39 40 39 37 37 37 37 36 36 34 29 30 28 26 24 23 23 28 29 27 25 17 23 29 30
47 48 47 47 50 50 52 49 46 43 43 41 42 39 39 37 36 36 38 38 36 35 35 35 35 38 37 32 34 33 30 27 23 20 20 28 27 27 27 26 25 21 21 23
47 48 48 47 48 48 46 44 42 40 40 39 38 36 37 37 36 35 35 35 31 31 32 28 32 34 34 34 35 33 29 27 24 21 23 27 27 26 26 25 25 23 19 15
44 43 45 44 43 43 42 42 41 39 38 38 35 34 34 32 30 30 31 30 28 29 31 31 33 36 34 35 33 32 25 25 23 23 24 27 26 26 25 25 25 23 18 13
50 48 48 45 42 41 39 37 36 35 35 34 28 23 21 20 27 28 27 31 34 33 34 33 34 34 33 34 34 27 22 22 22 21 27 27 27 26 26 24 24 23 19 16
49 47 46 44 41 38 37 36 35 34 28 26 24 26 25 25 28 29 32 33 32 32 33 34 33 33 33 30 28 23 20 18 23 27 28 25 25 26 26 24 23 24 23 16
44 43 42 41 40 36 33 34 29 32 33 29 21 21 25 22 28 32 33 32 32 34 34 32 34 33 32 30 27 25 19 17 21 26 18 18 25 27 26 26 24 18 20 22
38 39 37 34 32 30 28 28 24 29 32 25 26 27 29 27 26 30 31 30 32 28 31 34 32 33 32 29 25 23 20 18 17 18 18 21 20 24 27 26 26 16 15 18
37 35 30 29 30 32 32 31 32 27 30 32 25 25 23 26 26 27 32 31 32 33 31 33 32 33 33 30 31 29 24 22 22 26 18 21 20 23 23 25 26 25 19 17
36 36 34 29 27 34 33 30 29 30 29 28 28 31 27 29 29 28 29 30 32 33 33 33 33 33 33 32 31 29 28 22 21 22 27 28 28 26 27 27 27 27 26 25
35 35 35 34 29 29 30 34 33 32 29 29 33 31 26 27 30 30 33 34 33 33 34 33 33 33 32 32 31 30 28 25 28 23 23 28 28 28 25 24 28 27 27 27
32 34 34 29 32 32 33 34 32 32 31 31 30 29 28 27 28 32 34 34 34 32 33 34 33 33 32 32 31 30 29 28 28 28 26 26 29 29 26 24 27 28 28 27
34 32 32 34 33 33 33 32 31 32 27 23 24 22 22 23 30 28 32 34 34 33 33 33 33 33 32 32 32 30 30 30 30 29 29 28 28 28 28 27 28 27 28 27
33 29 30 32 31 31 30 27 25 27 26 23 27 24 25 32 28 28 32 33 33 33 33 33 33 33 33 33 32 31 31 31 31 30 29 28 27 26 27 27 27 27 26 26

GFSNGP_sfc_temp_018.txt.gz
Temp
44 46 46 44 44 44 43 41 34 39 40 44 45 45 47 48 48 47 47 48 48 47 46 46 47 48 47 46 47 47 46 44 43 43 43 43 42 40 41 42 41 41 41 39
37 44 43 40 43 43 44 45 44 44 39 47 47 47 45 46 46 46 47 48 47 47 48 48 47 46 46 46 46 46 44 43 44 43 43 42 41 40 39 40 41 41 39 37
30 36 36 30 41 44 46 46 45 37 42 46 44 44 43 43 46 46 44 45 46 46 47 46 45 46 44 45 46 44 43 43 42 42 41 40 40 40 40 38 38 37 36 36
25 27 21 42 50 50 46 45 45 44 44 45 44 43 44 45 44 44 45 46 46 46 45 45 44 45 44 45 44 42 41 41 41 40 39 39 39 38 38 37 38 35 33 31
23 25 34 43 47 45 43 41 46 44 44 45 44 43 40 46 46 44 45 46 46 45 45 44 44 44 43 43 41 41 40 40 40 39 38 37 35 34 35 35 33 32 31 31
27 20 19 37 48 52 49 32 46 45 43 43 43 31 37 45 46 46 46 47 45 45 44 43 44 43 41 40 39 39 40 40 40 39 37 36 35 34 33 33 33 32 31 29
17 17 29 42 50 51 32 35 45 44 43 42 38 39 43 45 46 46 46 47 45 43 42 43 43 42 40 39 38 40 40 40 39 38 37 37 37 36 32 31 30 26 26 26
26 17 24 47 48 39 42 43 45 43 43 42 43 44 47 48 46 46 45 44 44 42 42 42 42 41 38 37 40 40 38 38 36 36 37 37 32 30 30 28 27 24 13 18
35 34 45 48 48 48 47 44 43 43 44 44 43 44 46 45 44 44 42 42 43 40 40 41 41 40 38 39 39 38 36 34 34 34 34 33 30 28 27 26 22 22 24 16
38 46 46 49 47 48 46 44 45 46 45 48 46 44 43 42 42 41 41 40 40 40 39 39 40 41 39 39 38 36 34 32 32 31 31 31 30 30 26 21 19 24 21 19
37 45 44 46 45 45 45 46 48 51 50 49 45 43 43 41 41 40 39 39 39 38 37 38 38 37 38 37 37 34 33 32 30 29 29 29 29 28 26 26 24 21 19 18
37 46 46 44 45 47 46 47 51 50 48 45 44 42 42 39 39 38 37 38 37 37 37 37 37 36 36 36 35 34 31 30 27 26 24 27 29 28 32 31 31 32 30 18
46 49 48 46 46 49 47 50 51 49 46 42 42 41 40 38 38 37 37 37 36 36 36 34 34 33 35 33 34 32 30 31 27 27 26 24 23 23 18 26 31 32 32 31
48 47 43 44 43 49 52 50 46 45 43 41 41 40 38 37 37 36 35 36 36 36 34 34 32 32 35 36 33 30 32 29 25 25 23 24 19 28 20 18 14 17 26 30
46 45 45 46 49 50 49 46 43 40 40 39 39 37 37 35 34 34 35 35 34 33 33 33 33 32 35 35 33 32 32 25 21 18 21 21 20 23 23 21 22 19 16 20
44 46 48 48 48 45 44 42 40 38 38 37 36 35 35 34 34 33 33 32 29 30 32 32 31 31 35 35 34 32 33 27 20 20 19 23 21 20 25 22 19 21 14 13
43 42 44 41 42 41 41 41 40 38 37 36 34 33 33 31 28 31 31 29 29 31 31 32 30 35 35 34 33 32 30 30 27 27 25 26 23 26 25 22 23 17 20 16
48 46 44 42 41 39 38 36 36 35 35 34 28 21 19 18 25 27 26 27 30 32 32 31 33 34 33 34 33 31 28 27 27 25 21 17 25 25 25 23 22 15 16 15
43 42 42 42 41 37 36 35 35 33 27 25 22 22 21 21 26 28 27 24 30 30 32 32 32 32 33 33 32 28 25 19 18 20 22 19 14 24 25 23 19 23 17 15
42 41 41 40 39 36 33 34 28 31 33 26 19 23 25 24 24 24 25 25 30 32 30 30 31 33 32 31 30 28 22 18 19 19 14 13 10 17 26 22 24 18 11 11
37 37 37 34 33 30 28 27 23 27 31 23 25 29 25 26 24 22 21 27 31 27 29 32 30 32 33 33 32 27 21 17 16 18 18 17 15 16 22 26 23 21 14 8
35 34 30 29 28 31 30 30 31 26 25 30 32 30 27 29 24 20 23 27 32 28 32 31 32 33 33 32 32 29 27 27 24 22 21 17 17 19 18 21 24 24 23 14
35 35 34 28 25 32 32 29 26 25 26 27 26 27 27 30 24 24 27 30 28 31 33 32 33 33 33 32 32 31 30 28 27 27 26 25 24 20 22 23 25 25 22 24
35 34 34 33 27 27 29 34 32 32 28 29 28 26 30 26 21 25 28 26 24 28 30 33 33 32 33 33 32 32 32 30 30 29 27 26 25 26 25 26 27 27 25 24
30 33 33 27 30 31 33 33 31 30 30 31 30 30 29 30 27 28 25 25 28 32 32 33 33 33 33 32 32 32 31 30 29 29 28 27 27 28 28 27 26 24 24 26
34 31 31 33 32 31 31 29 28 26 27 25 24 27 31 31 29 30 25 30 31 31 30 33 33 33 33 32 32 32 32 31 30 29 29 29 29 29 28 26 26 26 26 25
32 27 30 30 31 31 29 27 30 33 27 26 30 28 28 26 30 30 29 29 28 30 30 30 31 32 32 33 32 32 32 32 32 31 30 30 30 29 28 26 25 24 25 26

GFSNGP_sfc_temp_021.txt.gz
Temp
40 42 43 42 42 42 40 39 34 37 38 43 44 43 44 45 44 45 45 45 46 45 46 46 44 44 44 44 44 44 43 42 41 42 41 41 40 39 39 40 41 39 38 38
35 41 40 38 42 41 41 41 40 40 38 44 45 44 43 44 44 43 45 46 47 46 45 45 44 43 44 44 44 43 42 41 42 41 40 40 39 38 38 40 39 37 38 36
29 34 35 30 38 42 43 44 43 35 41 43 42 43 42 42 44 44 45 45 45 45 44 43 43 44 43 43 43 42 41 41 41 39 39 38 38 37 36 36 37 34 34 33
24 27 21 41 46 47 44 44 43 41 42 44 43 42 43 44 43 43 44 44 44 44 44 43 42 43 42 42 41 40 40 39 39 38 37 37 36 35 34 34 33 31 30 31
23 25 34 41 45 42 41 40 44 42 42 42 41 41 39 44 44 43 44 44 43 44 43 42 42 42 41 40 39 39 38 38 38 37 36 36 35 34 32 32 30 30 31 29
25 20 20 37 44 49 47 33 44 44 41 41 40 31 36 44 45 45 46 44 43 43 42 41 41 40 39 38 38 37 38 38 38 37 36 34 34 33 33 32 32 31 30 28
15 18 29 41 47 48 34 35 43 44 43 40 38 39 42 44 44 46 44 45 43 41 40 40 40 40 38 37 37 38 38 37 37 36 34 34 33 32 31 30 29 26 26 26
25 18 26 46 45 39 43 41 45 43 43 43 43 43 43 45 45 44 44 41 41 40 39 39 39 39 37 35 38 38 37 36 34 34 34 34 30 29 29 28 27 24 12 18
34 34 44 45 44 46 46 44 43 43 43 44 44 43 44 43 43 42 40 39 40 38 38 39 38 38 36 36 37 36 35 33 33 32 32 31 29 27 26 26 21 21 23 16
37 44 44 46 47 46 45 45 43 44 45 45 44 45 43 41 40 39 38 37 37 37 36 36 37 37 36 36 36 34 33 33 32 31 30 30 30 29 26 21 18 23 20 19
35 42 43 47 46 46 45 44 46 47 47 47 45 41 41 39 38 38 37 37 37 35 34 35 35 35 35 34 34 33 34 34 32 29 29 29 29 28 28 27 24 21 20 18
37 45 44 45 46 45 44 44 47 48 46 45 43 41 39 37 37 36 35 36 35 34 34 34 33 33 33 34 33 32 32 32 30 29 27 27 27 28 32 30 31 32 32 18
45 47 46 44 44 46 46 47 48 47 46 43 42 40 38 36 36 36 36 35 34 33 33 32 31 30 33 32 31 31 32 32 30 29 27 25 23 24 24 25 31 32 32 31
48 45 40 43 42 47 48 48 46 45 43 42 40 39 37 36 36 35 34 34 34 33 32 31 30 33 33 32 32 32 32 30 29 29 29 26 23 22 18 18 15 17 25 29
45 45 45 45 46 46 47 45 41 40 39 38 39 37 36 35 34 33 32 32 32 30 30 32 34 33 33 33 33 32 32 30 28 27 20 21 21 18 19 17 16 17 14 19
43 43 44 44 43 44 43 41 38 38 38 37 36 35 36 34 33 32 32 31 28 27 30 32 31 32 33 34 34 33 32 31 27 26 23 25 26 22 22 23 16 17 12 12
40 39 39 40 40 39 38 39 40 38 37 36 36 34 34 30 27 30 30 28 22 23 27 30 29 35 34 34 33 33 32 30 28 27 27 27 23 24 24 21 23 17 14 11
44 42 41 38 35 35 36 36 36 36 35 35 27 21 21 20 25 25 25 24 22 24 28 30 31 33 32 34 33 32 30 29 28 28 28 19 18 22 19 20 22 16 15 12
38 36 37 38 39 36 36 35 35 32 27 25 23 24 21 21 24 25 23 20 22 24 30 28 29 30 32 31 31 31 31 29 26 23 20 16 12 15 16 18 24 19 19 17
38 39 39 38 37 35 33 35 30 32 33 27 19 24 28 27 20 21 20 23 28 30 30 29 29 31 30 29 31 31 30 28 24 20 14 14 11 12 12 17 20 21 19 13
36 35 35 32 32 30 29 28 27 30 31 21 21 28 29 28 22 21 23 25 30 27 29 27 31 32 32 32 32 32 30 27 23 20 18 17 16 15 16 17 24 24 17 19
34 33 29 28 28 31 30 29 30 23 23 23 22 30 30 28 26 22 23 25 29 24 27 28 30 30 32 32 32 32 31 28 26 27 25 23 22 21 22 22 21 22 23 21
34 34 33 28 26 32 30 28 24 23 23 25 25 26 25 28 28 24 28 28 26 25 25 27 27 27 30 32 32 32 31 31 29 28 27 26 25 25 25 24 24 25 25 24
34 34 33 32 26 26 28 33 32 31 25 26 26 25 25 28 31 24 28 27 23 21 22 25 27 31 31 32 32 32 31 30 30 30 29 28 28 28 27 25 25 26 27 23
32 33 32 26 30 30 32 32 30 29 29 29 28 28 26 31 29 24 26 24 20 27 25 25 28 31 32 31 31 32 30 31 31 31 30 29 28 28 28 28 28 28 27 27
32 30 30 31 30 29 30 29 27 27 32 30 27 24 26 27 30 30 28 23 25 27 26 29 29 29 29 29 29 30 31 31 31 32 31 30 30 29 29 29 29 28 26 26
29 25 28 28 30 30 29 28 29 30 32 27 29 29 27 28 30 29 28 27 20 22 23 24 20 18 19 18 18 19 21 26 29 31 32 31 30 30 30 30 29 27 25 24

GFSNGP_sfc_temp_027.txt.gz
Temp
43 44 46 47 46 45 45 45 43 45 44 51 53 54 53 50 49 49 49 50 51 52 52 52 52 52 51 52 53 52 52 50 49 49 49 48 48 47 46 46 46 44 41 42
41 42 42 43 45 46 45 45 45 44 45 54 53 52 49 48 48 48 49 50 51 51 51 52 52 51 50 51 51 50 50 48 48 48 47 47 46 45 45 44 45 44 41 41
35 37 39 36 43 45 45 46 49 43 52 49 48 48 51 49 49 49 50 50 51 50 52 53 51 50 50 51 50 48 47 47 47 46 46 45 45 45 44 43 43 42 41 40
34 32 32 47 49 49 47 48 49 48 50 50 51 50 50 51 50 49 50 50 51 51 51 51 51 50 49 50 48 46 46 46 45 45 44 44 43 43 43 43 42 41 39 39
33 33 39 48 46 45 44 49 51 50 50 47 47 49 50 50 52 52 52 52 52 52 50 50 50 49 48 47 46 45 45 45 45 44 43 43 42 42 42 42 42 40 39 37
30 32 31 44 49 51 52 41 51 50 47 45 48 44 52 50 50 50 52 51 50 49 48 49 48 47 46 46 45 45 45 45 45 43 42 41 41 41 41 41 40 40 37 37
26 33 37 46 50 52 41 43 48 49 49 45 47 52 51 50 49 51 50 48 47 48 48 47 46 46 45 44 43 44 44 44 44 43 41 41 41 41 40 40 38 35 34 34
27 30 32 48 50 44 50 50 50 49 49 47 51 47 47 47 47 47 46 45 46 45 45 45 45 44 44 43 44 43 43 42 42 41 41 41 40 40 39 38 35 33 30 31
40 41 49 49 50 52 50 50 52 49 50 50 46 47 47 46 46 46 46 45 46 46 44 43 43 43 41 42 41 41 40 40 41 40 40 41 39 39 38 37 34 33 33 32
41 49 46 48 51 51 52 52 52 52 52 49 48 47 44 43 43 40 40 44 43 43 42 41 41 41 40 40 39 38 38 40 41 39 39 40 39 39 37 35 34 33 33 32
40 45 47 50 49 53 52 50 51 51 50 49 48 46 44 40 40 41 43 43 43 42 40 39 40 39 40 39 38 37 37 38 38 38 38 37 38 38 36 37 36 35 34 33
41 50 50 50 53 52 50 50 50 48 45 46 46 43 42 39 39 43 41 40 40 39 39 39 39 38 38 38 36 36 35 37 37 37 36 36 36 36 34 32 31 32 32 30
49 51 50 51 50 51 50 48 48 47 46 43 44 43 40 38 39 38 40 39 38 39 38 38 37 36 38 37 35 34 35 35 37 34 36 34 34 33 32 35 32 33 33 33
50 48 47 48 46 47 45 45 44 44 43 41 39 38 37 38 38 39 39 39 39 38 37 36 36 36 38 38 36 34 35 33 35 36 36 35 34 34 33 31 30 32 32 32
45 47 45 44 45 44 45 43 38 37 36 35 37 37 38 39 39 38 37 36 37 36 37 36 36 37 39 38 36 36 36 35 34 34 33 33 33 32 32 31 31 31 32 28
42 42 42 40 40 39 39 37 33 32 33 34 37 38 39 37 36 36 38 37 33 34 36 32 30 35 37 38 37 36 37 34 34 34 33 32 32 31 31 31 31 30 30 30
40 35 35 34 34 34 34 35 35 35 36 37 36 35 36 35 32 33 35 33 31 30 30 30 31 38 36 36 36 37 37 35 33 33 32 33 32 31 31 31 31 31 31 31
37 36 36 36 34 34 34 35 36 36 36 36 32 31 30 30 31 31 31 30 27 27 31 32 33 35 34 36 36 36 34 34 33 32 33 32 32 32 31 31 31 30 30 31
37 36 37 37 38 38 37 36 35 34 31 31 30 31 30 29 30 30 28 26 26 29 34 34 32 32 34 35 34 35 33 32 33 32 32 32 31 31 30 30 30 30 30 30
38 38 38 37 37 35 34 34 32 34 35 32 29 29 29 30 28 30 29 27 30 34 35 34 33 32 32 33 31 35 32 32 33 32 32 32 30 30 29 27 28 29 29 29
36 36 34 33 33 30 28 28 27 32 32 24 27 29 28 29 32 31 30 29 35 33 33 31 32 33 34 32 32 32 31 31 32 32 32 31 30 29 29 29 29 29 29 29
36 34 29 28 30 32 32 32 32 29 29 27 27 24 23 28 29 29 30 30 36 29 31 33 33 32 31 31 32 32 31 31 31 31 32 32 30 30 30 30 30 30 30 30
35 34 33 29 29 32 31 31 28 28 26 28 28 28 29 30 30 28 30 35 33 32 31 32 31 27 29 31 32 32 30 30 30 31 31 31 31 31 31 31 31 31 31 31
34 33 32 31 29 29 27 29 29 30 27 28 29 27 28 29 30 33 33 32 32 31 31 32 31 28 26 30 30 30 29 27 27 27 27 29 30 32 32 32 31 31 31 31
29 29 29 27 27 26 27 27 27 28 29 29 29 31 31 33 29 31 32 32 32 32 32 31 29 25 25 24 23 21 21 21 21 21 23 23 25 27 29 31 31 31 32 31
29 28 28 28 27 26 25 24 23 25 23 23 24 26 27 28 30 31 32 32 32 32 31 28 23 21 20 20 19 18 19 19 17 17 16 17 18 18 19 20 23 30 32 32
26 25 25 25 25 23 21 20 18 18 19 20 19 22 23 23 25 27 28 29 30 29 24 21 19 18 17 17 16 16 16 15 13 12 13 13 14 15 16 17 20 25 30 32

GFSNGP_sfc_temp_030.txt.gz
Temp
54 54 55 56 57 57 56 58 50 58 57 65 66 67 68 68 67 65 62 62 63 63 64 63 62 62 62 59 61 61 60 60 58 58 57 56 54 54 53 52 52 52 50 48
49 51 52 51 57 58 59 59 57 60 58 69 69 67 65 63 63 62 61 62 62 63 63 62 62 62 56 60 60 59 58 57 57 56 55 54 53 51 51 51 51 51 49 48
46 47 48 40 52 57 58 60 59 53 62 66 62 62 64 64 63 62 62 62 62 62 62 62 61 57 59 59 58 57 57 56 55 53 52 52 52 51 51 50 50 48 47 47
42 39 35 57 59 59 59 61 64 62 65 64 64 64 64 66 66 63 63 62 62 63 61 61 60 59 59 59 57 56 55 54 53 52 51 51 51 50 50 50 49 48 47 47
38 44 51 58 55 54 52 57 65 63 65 63 60 60 63 64 65 65 64 64 64 64 61 59 58 59 58 57 56 54 53 52 52 52 50 50 49 48 48 48 48 47 47 46
39 37 35 53 56 59 59 50 62 61 61 59 59 53 64 65 63 62 64 65 62 59 57 58 58 57 55 55 54 52 52 52 52 51 50 49 48 47 48 48 47 47 46 45
40 38 48 58 58 59 46 51 62 60 62 59 57 64 62 63 62 64 63 60 59 58 57 55 54 54 53 53 51 53 51 51 51 51 49 49 48 48 48 47 45 43 40 42
39 36 37 58 57 51 58 62 61 62 62 60 63 59 58 59 60 59 58 56 56 52 51 52 54 53 52 51 51 50 49 49 50 49 48 48 47 47 47 46 43 41 34 37
51 53 58 60 62 64 62 60 60 60 64 60 59 58 57 57 56 56 55 53 53 51 47 51 52 52 48 50 48 47 47 47 47 47 46 47 46 46 44 44 42 40 39 38
49 59 59 61 63 64 63 62 64 64 63 62 60 60 56 55 54 53 52 45 45 46 49 49 49 48 48 47 47 46 45 45 46 45 45 46 46 42 42 41 40 39 38 36
51 58 60 62 61 61 62 63 62 63 60 59 59 57 56 53 51 47 44 44 47 48 48 47 47 47 47 46 46 44 43 43 43 43 44 44 45 42 41 43 41 38 37 37
49 56 55 58 61 60 58 59 59 58 56 55 57 54 53 49 44 43 42 43 46 46 45 45 43 44 46 46 44 42 40 41 42 42 42 42 42 41 36 34 34 34 33 33
53 57 57 58 58 57 54 54 54 54 53 50 50 48 42 38 39 38 43 43 44 43 42 43 43 42 44 44 41 39 39 40 42 39 40 39 39 37 35 37 34 33 33 33
54 55 54 51 49 51 51 50 48 45 42 40 39 39 38 37 38 39 42 44 44 43 42 40 42 43 45 44 41 40 40 35 40 39 37 36 36 36 36 33 33 35 33 34
49 52 50 50 49 46 45 43 39 36 35 35 37 39 40 40 42 44 43 40 39 38 41 44 44 44 45 42 41 41 41 41 39 36 36 36 36 35 35 34 33 34 35 32
47 48 45 42 40 39 37 36 35 34 37 39 41 41 43 43 42 42 42 42 37 40 43 37 36 40 43 44 44 43 42 36 35 38 37 35 34 34 33 33 33 34 33 34
38 35 35 34 35 35 36 39 40 41 42 43 41 39 41 39 37 39 41 40 35 33 34 34 35 44 43 44 44 43 42 40 37 38 37 37 35 35 35 34 33 33 33 34
40 38 40 40 37 35 39 41 41 40 39 38 35 33 33 33 35 35 35 34 32 33 35 37 39 42 42 43 42 39 38 37 36 35 35 35 34 35 34 33 33 33 34 35
45 43 44 44 44 43 41 40 40 38 34 34 33 33 33 33 35 36 34 31 31 33 42 42 36 35 40 39 36 35 36 34 34 35 35 34 33 33 33 33 33 33 33 34
43 44 43 42 41 40 38 39 36 39 40 36 32 33 33 33 33 32 33 32 34 38 40 40 39 39 39 39 34 37 35 33 32 32 32 34 33 32 33 32 32 32 32 32
41 41 38 38 37 35 33 33 33 35 36 32 31 31 31 31 32 32 32 34 39 38 39 36 38 40 42 39 37 35 33 32 32 32 32 32 32 33 32 32 31 32 32 32
42 37 33 34 36 37 36 36 34 32 31 31 31 31 31 32 32 32 33 33 38 35 36 35 36 36 36 32 34 33 33 33 33 32 32 32 32 32 32 32 32 32 32 32
40 39 36 33 33 36 35 32 31 31 29 30 30 30 31 33 33 31 30 37 35 34 34 33 32 32 32 32 32 32 32 32 31 31 30 30 30 31 31 31 32 32 32 32
38 36 35 34 32 32 31 33 33 33 30 31 31 29 30 30 31 34 35 34 33 33 32 33 32 32 31 31 32 31 30 29 28 28 27 26 27 27 28 29 30 31 32 32
31 32 32 31 33 33 31 31 32 32 30 30 30 30 29 31 28 30 30 30 31 31 32 32 30 29 30 29 28 27 26 26 24 24 23 23 23 23 24 24 24 25 27 30
34 34 33 31 31 31 30 29 27 28 27 26 27 27 27 27 28 27 28 28 28 27 27 26 24 23 24 23 23 22 22 22 21 20 20 20 20 20 20 20 21 22 24 26
30 29 31 30 29 28 26 24 23 23 24 23 22 24 25 24 24 24 23 23 23 22 22 21 21 18 18 18 18 18 17 18 15 15 16 16 16 16 16 17 18 20 22 24

GFSNGP_sfc_temp_033.txt.gz
Temp
64 62 63 63 63 64 61 62 55 59 63 69 73 73 74 75 74 74 73 72 72 71 70 70 68 68 68 66 64 62 61 63 62 62 61 60 58 57 56 55 55 55 54 53
54 61 60 58 63 64 65 64 64 65 64 75 74 77 73 73 72 72 72 70 71 70 70 69 68 67 66 63 61 60 61 61 61 60 59 58 57 55 55 54 54 54 53 51
48 54 55 43 55 61 64 67 65 57 66 74 70 69 70 71 70 70 71 71 70 70 70 69 68 66 62 61 61 61 60 60 59 58 57 56 56 55 54 53 53 52 51 50
46 41 34 61 66 66 62 66 70 69 70 72 71 71 72 73 72 70 71 71 71 70 69 69 69 65 63 63 60 59 59 59 58 56 54 55 54 53 52 52 51 50 49 49
40 46 55 60 64 60 58 60 68 66 68 71 70 67 68 72 72 71 72 72 72 71 70 69 66 63 61 58 59 59 57 57 57 55 54 53 52 52 52 50 50 49 50 48
45 37 34 55 62 65 65 51 66 66 66 66 67 56 65 70 70 69 71 72 70 70 69 66 63 62 58 56 56 56 56 55 55 55 53 52 52 51 51 50 49 50 48 48
44 41 50 64 64 64 48 52 65 66 66 66 63 65 66 69 69 71 71 70 70 67 64 62 62 57 53 53 53 55 56 54 54 54 52 52 52 50 49 49 48 45 43 44
45 36 37 65 63 53 60 66 67 66 66 64 66 67 65 66 67 67 67 65 64 61 60 57 53 52 51 54 56 53 51 51 51 52 52 52 48 48 49 48 45 43 37 39
55 54 64 67 65 68 68 64 65 65 67 66 65 66 67 64 64 64 64 61 61 56 49 49 50 52 52 52 48 49 49 49 50 51 50 49 48 47 47 46 44 41 39 36
55 63 65 66 68 68 68 66 67 68 67 66 64 65 65 62 61 60 60 56 50 48 45 45 51 51 50 50 50 47 46 48 49 47 46 48 48 47 46 42 41 39 38 38
57 62 64 66 65 64 63 65 65 66 65 61 61 63 62 59 57 54 49 44 45 43 45 47 50 48 50 48 47 47 47 46 45 44 45 45 47 47 44 44 41 39 38 38
52 59 57 60 62 61 61 59 59 60 59 59 61 59 56 50 47 40 38 42 43 43 44 47 47 45 46 49 48 44 42 42 42 42 43 44 43 43 40 36 36 36 35 35
56 60 59 59 58 59 55 55 55 54 54 49 48 46 42 37 37 38 40 42 43 45 45 44 43 46 47 46 44 41 41 41 42 40 43 42 41 40 37 40 35 35 34 34
57 58 54 55 52 54 49 46 43 41 40 39 39 40 39 38 39 40 42 47 47 46 46 45 43 43 47 49 45 42 42 37 41 43 42 39 39 38 38 36 34 36 34 34
54 56 54 53 51 48 46 43 41 39 39 38 39 39 41 41 43 45 48 46 44 43 44 46 48 48 51 47 44 43 43 43 43 42 40 38 38 36 37 36 35 36 38 35
48 48 47 44 41 41 41 40 38 37 41 45 46 46 47 47 47 47 48 47 42 42 45 37 37 43 46 47 47 46 47 39 38 41 40 39 37 36 36 36 35 35 35 35
37 35 37 38 42 44 45 46 46 47 47 45 42 41 43 41 41 44 44 43 37 34 35 36 37 46 45 46 47 46 45 43 37 40 39 38 36 35 36 35 35 35 35 34
45 46 48 47 41 42 44 44 44 43 41 40 35 33 32 32 35 38 38 37 33 33 38 42 43 44 44 46 45 44 42 41 39 37 37 36 36 36 36 35 35 34 35 36
48 47 47 47 47 46 44 43 41 41 35 34 32 32 33 32 36 36 36 33 33 35 43 44 37 38 42 42 39 41 38 35 36 35 35 35 34 35 34 34 34 34 34 35
47 47 47 45 44 43 40 40 39 41 41 35 32 32 32 33 32 32 33 32 36 40 40 38 37 39 39 41 38 40 37 35 34 33 33 34 33 32 33 33 33 33 33 33
45 44 41 41 38 36 34 34 33 36 37 32 31 31 31 32 33 32 32 34 38 38 36 36 37 37 37 35 36 36 34 33 32 33 33 33 32 32 32 32 32 32 32 32
44 39 34 36 39 39 38 37 35 32 31 31 31 30 30 33 33 34 34 34 38 34 36 37 37 36 36 34 35 33 33 33 33 33 33 32 32 31 31 31 31 32 32 32
42 40 37 35 35 38 36 35 32 31 30 30 30 29 29 32 33 30 30 34 34 33 33 34 33 31 30 32 32 32 32 32 32 31 30 30 30 29 29 28 28 29 30 31
41 40 38 37 35 36 35 36 36 36 32 32 32 30 30 29 30 33 33 31 30 28 29 30 27 26 28 30 29 29 29 29 29 28 27 26 26 26 26 26 25 25 26 27
36 37 36 35 36 37 35 35 35 35 33 32 32 32 30 32 28 29 28 27 26 26 26 25 24 22 24 25 25 24 25 23 23 23 22 23 23 22 23 23 22 22 23 25
38 38 37 35 34 34 33 32 30 31 29 29 29 28 29 29 28 26 26 25 24 23 23 23 22 21 20 20 20 19 19 20 18 17 18 18 19 19 19 19 19 20 21 22
33 33 36 35 34 32 29 28 27 26 27 25 23 27 28 27 25 24 23 23 22 21 21 21 20 19 18 17 17 17 16 16 15 14 15 15 16 16 16 15 16 18 19 20

GFSNGP_sfc_temp_036.txt.gz
Temp
63 65 63 62 62 64 61 60 51 56 60 67 70 70 73 74 74 73 73 73 73 72 69 69 68 67 67 64 63 61 60 57 55 57 58 57 54 53 52 51 51 51 50 49
55 62 62 57 62 63 63 63 63 63 62 73 74 73 71 71 72 71 72 73 72 72 72 70 68 66 65 63 61 58 57 56 57 57 57 55 53 52 50 50 50 50 48 48
45 55 53 42 54 59 62 65 64 55 64 71 70 71 69 70 71 70 70 71 71 70 70 69 68 65 63 61 58 57 56 56 57 56 55 53 53 52 50 48 47 46 46 46
43 40 35 58 68 66 62 65 68 68 67 68 67 69 71 72 70 69 70 70 70 70 69 69 68 64 61 60 58 56 55 55 56 55 53 52 51 50 48 48 46 45 44 44
37 42 52 58 64 61 59 58 66 64 65 68 69 67 67 72 70 68 68 69 69 70 69 68 65 62 60 59 55 54 54 55 55 53 50 50 49 48 47 46 45 44 45 43
43 37 34 55 63 67 66 48 64 64 63 63 65 51 58 67 70 69 70 70 69 69 68 65 61 61 56 55 52 51 50 51 52 51 49 49 47 47 46 46 46 45 43 42
41 38 46 63 65 66 46 48 63 64 63 62 59 61 64 66 66 70 69 66 66 65 61 58 56 54 50 47 46 48 52 50 48 48 49 49 48 46 44 43 42 39 37 38
43 35 34 66 63 52 58 63 64 64 63 61 63 64 65 67 65 66 65 63 62 52 49 50 50 49 46 46 50 48 47 47 48 48 49 50 45 43 43 42 38 37 33 34
50 49 63 67 64 67 66 63 63 63 64 64 62 63 64 64 63 62 61 55 52 49 46 47 47 47 46 48 49 49 46 45 45 47 47 47 43 42 40 39 35 34 33 33
55 63 65 66 68 66 64 62 64 65 64 62 59 61 62 60 57 52 50 48 47 45 44 44 47 48 48 48 47 45 43 43 45 43 43 43 43 42 40 36 34 33 34 34
57 62 63 62 61 60 62 62 61 63 59 57 59 56 51 48 45 43 43 43 44 43 43 44 47 47 49 48 46 43 44 44 42 41 40 41 42 41 36 37 35 33 33 33
50 58 57 54 58 60 57 55 57 56 50 51 50 45 43 40 40 40 39 41 42 43 44 46 47 47 46 47 47 43 41 40 37 36 36 39 40 39 40 36 37 36 36 32
56 59 58 56 55 52 50 50 50 48 47 43 42 41 40 38 38 38 40 41 43 45 47 46 45 45 47 45 42 39 37 37 36 35 36 37 34 33 33 36 37 35 35 35
58 58 51 55 47 48 45 44 44 44 44 43 42 42 40 39 41 42 44 47 47 46 45 45 44 43 45 46 44 39 38 36 37 37 37 35 36 35 34 33 31 33 35 34
54 55 53 51 49 45 46 46 43 41 41 41 43 43 44 44 45 46 47 47 46 45 46 46 42 41 45 43 43 40 40 39 38 38 36 34 33 34 33 32 32 32 33 32
50 51 50 45 43 44 45 44 40 39 43 45 44 43 45 46 45 45 46 41 36 35 37 32 32 37 41 44 43 43 43 39 36 38 35 35 34 34 33 33 33 32 32 32
40 37 40 40 42 43 43 44 44 41 43 40 37 36 38 36 38 38 39 37 34 32 33 34 36 43 40 43 42 41 40 40 37 37 35 35 35 34 34 33 33 32 32 33
46 46 47 45 41 41 42 43 41 39 37 35 32 32 31 30 33 34 33 34 34 34 36 37 34 36 37 40 39 37 37 37 36 35 35 34 34 33 33 33 33 31 32 32
48 46 46 46 46 44 43 40 39 36 33 32 31 31 32 32 32 33 33 30 29 32 36 37 33 35 36 36 35 35 34 34 34 34 34 34 33 32 32 31 32 32 32 31
46 46 45 43 42 39 37 37 36 37 35 32 28 28 29 28 28 27 29 30 34 32 33 34 34 34 35 35 33 33 32 32 32 32 32 32 31 31 31 30 31 32 32 31
43 42 38 36 35 33 32 32 31 33 33 27 27 25 25 28 29 27 30 30 32 31 31 30 32 31 30 28 28 30 31 31 31 31 31 32 31 30 30 30 30 31 31 31
41 36 34 34 36 36 35 35 32 28 28 25 23 22 23 28 27 28 27 28 30 27 27 29 28 23 23 22 28 28 28 28 30 30 30 31 29 28 27 27 26 26 27 27
39 37 36 34 34 35 34 33 28 28 25 24 24 26 27 28 30 27 25 29 28 25 26 26 23 19 19 23 23 23 23 23 23 24 24 25 25 25 24 24 23 23 22 23
39 38 37 36 35 35 34 34 35 34 27 29 26 24 27 26 27 29 28 25 22 22 23 23 21 18 18 20 20 19 19 19 17 18 19 20 21 21 21 20 19 19 20 21
37 37 36 34 36 35 34 33 34 33 31 31 30 30 29 29 25 25 25 24 23 22 22 22 21 17 18 18 17 16 16 16 15 14 15 15 15 16 16 16 15 16 17 17
37 37 34 34 33 33 31 31 29 29 28 27 27 26 27 27 26 25 24 22 23 21 21 20 19 18 17 16 16 15 14 14 13 12 12 12 13 12 12 12 13 14 14 15
33 33 35 33 32 30 28 27 26 24 25 23 22 24 26 25 24 22 20 20 20 19 19 18 18 17 15 15 14 14 13 12 12 11 10 9 10 9 10 10 12 13 13 14

GFSNGP_sfc_temp_042.txt.gz
Temp
50 52 53 51 52 51 49 47 40 45 46 53 54 53 55 57 58 57 57 58 58 57 56 55 56 58 56 55 53 54 53 54 52 52 50 50 48 47 46 46 47 46 45 46
42 49 49 46 50 49 50 50 49 49 46 52 54 54 55 56 58 56 57 57 57 57 57 56 55 55 54 52 51 52 51 49 50 51 50 49 47 47 47 47 47 46 46 45
35 42 42 34 44 49 50 51 51 42 49 51 51 53 53 52 54 54 54 55 56 56 56 55 55 54 50 50 51 50 52 51 50 49 47 46 47 46 46 45 46 45 43 43
30 32 25 45 53 54 48 49 51 51 50 50 51 50 52 53 52 53 54 53 51 51 50 49 50 50 51 51 49 49 49 48 47 45 45 45 44 44 43 44 43 42 42 41
30 29 39 47 52 49 46 43 50 49 50 51 52 51 50 53 50 48 48 48 47 47 47 48 48 49 47 46 46 45 44 44 45 44 44 44 42 42 43 42 41 40 40 39
29 27 25 41 51 56 52 35 51 50 49 49 49 38 43 49 47 45 45 45 44 44 44 44 44 45 43 42 42 41 42 44 45 44 43 42 41 40 39 38 39 39 39 38
24 25 33 47 54 54 38 38 51 51 50 49 45 46 46 45 43 44 43 43 44 43 42 42 44 44 42 42 41 44 45 44 43 42 41 41 39 38 38 37 36 33 33 33
29 25 30 52 52 45 45 48 50 50 49 47 46 45 44 43 42 42 41 42 43 42 43 44 46 45 43 43 45 45 43 42 41 41 41 42 37 36 36 34 32 32 27 31
38 36 48 49 50 50 51 49 48 48 49 49 44 43 42 40 40 40 40 40 45 44 43 44 44 43 40 41 42 40 39 38 38 38 38 38 35 33 32 31 28 29 29 28
42 46 47 48 50 50 49 46 47 48 47 46 42 41 39 39 39 40 43 42 43 42 41 39 41 42 40 41 40 39 36 36 36 35 35 34 34 33 31 27 28 30 29 29
40 44 47 47 47 46 46 45 44 44 44 42 40 39 39 39 40 40 40 41 41 40 38 38 39 39 39 39 38 37 36 36 34 33 33 32 33 32 32 32 31 30 28 28
36 47 44 42 45 47 44 43 43 41 39 40 40 37 37 35 36 37 38 39 38 36 37 37 37 37 37 38 37 34 34 33 31 31 30 31 31 33 35 34 35 35 35 30
44 47 44 42 43 44 41 41 41 39 38 36 37 36 35 34 34 35 35 36 36 35 35 35 34 34 35 34 34 33 31 31 31 31 31 31 32 31 30 35 35 36 36 36
46 45 40 42 37 41 40 39 39 38 37 36 35 34 33 33 34 34 33 34 35 34 33 32 31 32 34 34 33 32 31 31 29 29 30 31 32 33 33 31 31 32 34 33
44 44 42 41 40 38 39 38 36 34 34 33 34 34 35 34 32 31 32 32 31 31 32 34 33 31 34 33 33 31 31 30 29 29 29 29 30 31 33 33 32 32 33 29
40 40 40 38 37 37 37 36 33 32 33 33 33 33 34 33 32 31 31 30 29 28 32 29 29 30 30 32 30 29 29 27 27 28 28 27 28 28 29 30 31 31 31 28
35 33 35 35 36 37 36 36 35 33 31 29 29 31 31 30 29 29 29 29 25 27 28 27 26 29 29 28 26 25 24 25 24 26 25 26 26 26 26 27 28 31 31 28
40 40 40 40 37 36 35 34 33 31 30 31 30 25 24 24 27 27 25 24 21 22 26 27 26 25 25 25 24 23 22 22 24 24 25 23 24 26 27 27 29 29 29 23
42 41 41 40 39 37 34 31 30 31 30 27 26 24 24 22 27 25 24 19 19 21 24 25 24 23 23 22 21 22 20 19 19 19 19 19 20 23 23 22 24 26 26 25
41 41 40 38 36 34 30 30 30 29 28 25 21 21 23 18 15 18 21 20 22 23 25 24 22 21 21 20 17 19 15 16 14 13 14 14 15 16 18 18 18 19 19 19
36 35 33 32 31 32 30 29 28 27 26 21 21 18 17 19 18 16 19 20 23 22 23 21 19 18 19 15 16 13 10 11 9 9 10 10 11 13 13 13 14 15 15 16
34 31 30 31 30 29 30 30 28 25 22 18 15 14 16 22 17 18 14 20 22 11 18 19 18 7 13 7 14 7 10 10 8 7 7 8 8 9 9 10 10 11 13 13
32 32 31 29 29 29 29 27 23 22 19 17 16 16 19 22 20 14 14 22 20 13 18 12 7 3 3 -0 -0 -2 -1 -0 3 2 5 4 5 6 6 7 8 9 10 11
32 32 31 31 29 28 27 27 28 25 20 21 15 11 20 15 9 19 19 11 5 4 3 5 3 3 -0 -5 -6 -6 -4 -6 -5 1 0 -2 3 2 3 4 5 7 8 8
32 32 31 29 29 28 28 28 27 26 24 24 23 22 22 20 12 13 7 7 9 6 3 1 2 1 -5 -8 -8 -9 -8 -9 -9 -2 -9 -6 -1 -1 -0 2 2 5 6 6
31 29 28 28 26 26 25 25 21 21 20 13 14 5 9 14 13 11 5 3 6 5 1 -4 -6 -6 -7 -2 -7 -9 -8 -5 -8 -3 -11 -9 -6 -4 -3 -2 -1 1 2 4
27 25 25 24 25 24 22 20 16 14 12 6 8 5 13 8 4 5 -3 -5 -5 -4 -6 -5 -7 -5 -5 -5 -1 -3 -8 -10 -11 -8 -16 -16 -12 -11 -5 -2 -2 0 1 2

GFSNGP_sfc_temp_045.txt.gz
Temp
46 49 49 49 49 48 45 45 38 43 43 49 52 52 52 55 54 54 54 55 55 54 53 54 53 52 52 51 50 51 51 51 47 48 49 49 47 45 45 46 46 47 46 45
39 46 47 45 49 48 47 47 46 45 45 49 50 50 50 52 53 52 53 55 54 55 55 53 53 51 51 49 49 50 49 48 49 50 49 46 46 45 45 45 47 45 43 44
36 39 40 34 42 47 48 49 49 42 48 49 47 49 47 49 51 51 50 50 50 51 51 51 50 49 47 47 48 48 48 49 48 47 45 45 45 45 44 43 42 42 43 42
30 32 25 45 49 50 46 45 46 47 48 47 47 46 47 48 48 47 47 46 45 45 45 45 46 47 47 48 47 46 46 46 44 43 42 43 44 42 41 41 40 39 38 38
30 30 37 44 46 47 45 41 47 45 46 47 47 47 46 45 45 43 42 42 41 42 43 43 44 45 44 43 43 43 43 44 44 44 44 43 41 41 41 40 38 36 37 36
28 27 25 41 48 52 50 35 49 47 47 47 45 37 41 43 42 41 41 42 41 41 42 41 41 43 41 40 41 40 43 44 45 44 42 41 40 40 37 36 36 36 36 35
24 25 33 45 51 52 38 39 48 48 47 46 43 42 41 41 40 41 41 41 42 41 40 40 42 43 41 43 42 44 44 43 43 41 41 40 37 36 35 34 33 31 32 32
26 23 30 49 49 43 45 45 48 47 46 41 41 41 40 40 39 40 39 40 41 41 40 42 44 44 41 40 43 43 43 41 39 38 39 39 35 34 33 32 30 30 27 30
38 36 46 46 48 47 48 48 47 46 45 43 40 39 39 38 38 39 38 39 41 42 41 43 43 43 38 39 40 38 38 37 36 36 36 35 33 32 31 30 28 29 29 29
41 43 43 44 45 46 47 46 46 47 45 44 39 39 38 38 38 38 38 40 41 41 40 39 41 40 37 38 38 37 35 35 34 33 33 33 32 31 30 28 29 31 31 31
38 41 44 44 42 43 43 43 43 43 43 41 39 38 38 37 37 38 38 40 41 39 38 37 37 35 35 35 35 34 33 32 32 31 31 32 32 31 32 32 32 33 32 31
35 45 44 42 42 44 42 40 41 40 38 40 40 37 37 35 36 37 38 39 37 36 35 32 33 32 33 34 32 31 32 31 29 29 29 30 31 31 35 34 35 35 35 33
46 49 42 42 41 42 40 39 40 38 38 36 37 37 36 34 32 34 35 34 32 31 31 30 30 30 32 32 31 31 29 30 29 29 28 28 28 28 27 32 35 35 35 35
43 43 38 39 36 39 38 38 38 37 37 36 34 34 33 31 32 31 30 31 31 31 32 32 29 29 30 30 30 29 28 28 25 26 26 26 25 25 26 25 25 28 34 35
41 42 41 38 38 36 37 37 34 33 33 32 33 33 32 30 29 29 29 30 30 31 31 29 27 26 29 28 27 27 26 25 24 23 24 23 24 24 25 25 25 25 28 31
38 38 38 36 35 35 35 34 32 31 32 32 32 32 31 31 29 29 29 30 28 25 25 19 25 26 27 26 25 24 24 22 21 23 23 23 24 24 24 24 24 25 25 27
34 32 33 32 33 34 34 36 35 34 32 31 30 30 30 29 29 28 27 26 23 23 24 24 23 25 25 25 23 22 21 22 19 21 21 20 19 20 21 21 20 19 20 25
39 39 38 37 35 35 35 34 32 32 30 29 28 25 24 25 26 25 23 22 20 21 24 24 23 24 24 23 22 22 19 18 18 16 17 15 15 17 17 16 17 17 18 19
42 40 40 39 39 36 34 31 31 31 28 26 26 25 25 23 26 24 22 17 16 19 23 23 23 21 21 20 19 17 14 13 12 13 12 11 11 11 13 12 12 13 15 16
40 40 39 36 35 33 30 31 30 29 29 27 24 23 22 18 20 18 18 18 21 22 24 22 21 19 19 18 12 15 11 8 9 7 7 8 6 7 9 8 9 9 10 13
36 34 33 31 30 30 30 29 28 28 27 24 23 20 20 20 18 15 15 19 22 21 22 19 18 16 17 12 13 6 1 -0 -1 3 2 2 2 4 4 5 5 5 7 8
33 31 30 30 30 29 30 30 27 24 22 19 17 18 17 19 16 16 13 19 22 12 18 17 16 5 10 5 10 -1 5 3 1 -1 -1 -0 -0 1 0 2 2 3 5 6
31 31 31 29 29 29 29 27 23 22 21 19 18 18 20 21 20 15 15 20 19 11 16 10 5 1 -0 -4 -5 -8 -8 -8 -8 -4 -8 -8 -6 -2 -2 -2 0 1 2 4
31 30 29 30 29 28 26 26 27 24 20 21 18 16 21 16 12 19 17 9 4 1 2 1 -1 -0 -4 -9 -10 -12 -11 -13 -14 -9 -9 -10 -11 -9 -5 -5 -3 -2 0 1
30 30 30 28 28 27 28 27 25 25 24 23 22 22 21 19 12 12 7 5 7 5 0 -3 -3 -4 -9 -12 -12 -13 -13 -14 -16 -12 -17 -18 -13 -12 -11 -9 -6 -4 -3 -2
29 29 29 29 27 27 25 25 22 21 19 13 13 7 10 12 12 10 5 2 4 2 -1 -8 -10 -11 -12 -8 -9 -9 -12 -9 -14 -13 -17 -18 -16 -13 -13 -10 -8 -6 -5 -3
25 24 24 23 23 22 21 20 18 16 15 10 9 7 10 8 5 5 -5 -7 -8 -9 -9 -10 -11 -9 -9 -12 -11 -7 -10 -14 -16 -14 -20 -21 -18 -18 -16 -13 -10 -8 -6 -5

GFSNGP_sfc_temp_048.txt.gz
Temp
44 46 47 46 46 44 43 42 38 43 41 48 49 49 50 51 50 51 50 51 53 53 51 51 51 50 50 49 48 49 48 47 46 48 48 46 45 45 44 45 45 46 44 43
38 44 44 42 45 45 44 43 43 42 43 49 47 46 47 48 50 49 49 49 48 51 52 51 51 49 48 47 47 48 46 46 47 48 47 45 44 44 45 45 45 44 42 42
36 38 40 33 42 45 45 45 46 39 47 48 45 47 45 46 47 46 44 44 44 44 44 45 46 45 44 44 46 46 46 46 46 45 44 45 46 45 44 43 42 41 41 41
29 31 26 43 46 47 45 46 46 45 45 46 45 42 42 42 43 42 42 41 41 41 42 42 43 44 44 45 44 43 42 44 45 45 44 44 43 42 41 41 40 40 38 37
31 30 37 42 45 44 44 44 46 44 43 43 44 44 41 41 41 39 39 39 39 39 40 40 41 42 42 42 42 42 44 44 44 44 43 43 42 41 41 40 38 36 36 35
28 27 25 40 47 50 49 36 46 45 43 44 44 38 39 39 40 38 39 39 38 39 39 39 39 42 41 41 42 42 43 44 44 43 42 41 39 38 37 36 35 35 34 34
22 25 33 44 48 50 37 38 46 48 46 44 43 41 38 38 38 39 38 39 40 39 38 38 40 42 39 40 40 42 42 42 42 42 40 39 37 35 34 33 32 31 32 31
26 24 31 48 47 42 45 42 46 46 45 42 37 38 37 38 37 38 37 38 39 39 38 39 39 40 38 38 40 41 41 40 39 37 37 37 33 33 33 31 30 30 27 30
38 38 46 46 46 47 47 46 45 45 43 42 38 37 37 36 37 37 37 36 39 38 38 38 39 39 38 38 38 36 35 34 33 33 33 32 32 31 30 29 28 29 30 30
40 44 43 44 44 45 45 45 45 44 43 42 38 37 36 36 36 36 36 36 38 38 36 35 38 37 36 35 35 33 32 31 31 30 31 30 30 30 28 26 27 30 30 30
39 41 41 44 42 42 41 42 42 42 41 40 38 37 36 35 35 36 35 36 37 36 35 34 34 33 32 32 32 31 31 31 30 30 28 29 29 28 29 29 28 29 30 30
40 45 45 44 41 42 41 40 41 39 37 38 39 36 36 34 35 35 34 36 35 34 33 31 30 29 30 31 30 29 30 29 26 26 25 27 27 27 32 31 32 32 33 31
49 47 41 41 40 41 39 38 39 38 38 35 36 36 35 32 31 34 33 34 32 31 29 28 28 27 28 29 29 28 26 26 25 25 25 24 24 23 21 26 30 31 31 32
44 43 38 40 37 38 37 37 38 36 36 35 34 34 33 31 32 32 32 31 31 31 29 27 26 26 27 27 27 26 25 23 22 22 21 21 20 23 22 22 22 22 26 29
40 41 42 38 37 35 36 36 33 32 32 32 33 32 32 30 29 29 29 30 30 27 27 26 25 24 26 26 25 24 23 21 21 19 20 20 20 19 19 20 21 20 20 22
37 37 37 35 33 34 34 33 32 31 32 32 32 32 32 30 29 28 29 29 26 24 24 19 23 24 26 25 24 23 23 21 19 20 19 17 17 16 18 17 17 16 16 16
33 32 33 33 33 33 33 34 33 34 34 33 31 31 30 29 27 26 25 25 23 23 23 22 22 24 25 24 23 21 19 19 15 17 15 15 14 14 13 14 12 13 13 14
39 38 38 36 33 32 33 34 34 34 32 31 30 28 26 25 25 24 23 22 21 21 22 22 23 24 23 21 21 18 15 14 14 13 13 10 10 11 10 9 9 9 9 12
40 38 37 37 37 36 33 32 32 31 29 28 28 25 25 24 25 24 22 19 17 20 21 22 22 20 20 19 17 14 11 8 8 10 7 5 4 5 6 5 6 5 6 7
39 39 38 36 35 33 31 31 31 30 29 26 24 24 23 22 21 19 19 19 21 22 23 21 20 18 17 16 11 12 7 1 6 2 -1 2 -5 -6 -2 0 3 2 2 4
35 34 33 32 31 31 30 30 29 28 27 26 24 23 23 21 19 18 18 19 21 21 22 18 17 16 16 12 11 2 -3 -6 -5 -3 -5 -10 -12 -7 -8 -9 -3 -2 -0 1
33 31 29 30 29 28 29 30 28 25 24 22 21 21 20 19 17 17 16 20 21 15 18 17 16 7 9 5 8 -2 3 -1 -5 -7 -10 -12 -14 -13 -11 -12 -7 -4 -3 -2
31 30 29 28 27 27 27 26 24 23 21 21 20 20 21 21 20 17 16 20 19 13 16 11 7 1 -1 -5 -6 -10 -10 -11 -13 -11 -15 -19 -18 -19 -15 -10 -8 -7 -6 -4
30 30 28 29 28 27 25 26 27 24 22 22 20 19 20 16 13 19 18 11 7 5 3 1 -0 1 -4 -9 -12 -13 -14 -16 -17 -17 -14 -15 -22 -22 -17 -16 -12 -9 -8 -7
29 28 28 27 26 26 27 26 24 24 23 23 22 22 21 19 13 13 10 9 9 6 2 -1 -2 -4 -11 -13 -15 -14 -15 -17 -18 -19 -20 -22 -21 -20 -19 -17 -16 -13 -9 -8
28 26 26 27 26 26 26 25 22 21 19 16 16 13 12 13 12 11 7 5 5 3 1 -7 -9 -12 -14 -12 -13 -14 -10 -8 -16 -17 -20 -22 -23 -19 -20 -17 -16 -13 -12 -10
24 24 23 21 21 21 21 21 20 18 17 15 15 13 11 10 7 7 -1 -4 -6 -8 -8 -9 -11 -10 -12 -15 -14 -12 -11 -13 -18 -16 -23 -26 -26 -25 -22 -20 -17 -15 -13 -11

GFSNGP_sfc_temp_051.txt.gz
Temp
49 51 51 52 51 49 49 50 46 50 48 57 59 60 60 57 58 58 57 57 59 60 60 61 60 59 58 56 56 55 52 52 51 52 51 51 51 47 47 47 51 47 48 45
45 49 50 48 51 50 50 50 49 50 49 59 58 57 55 54 55 54 53 52 53 54 57 57 56 56 54 53 53 54 53 50 49 48 49 46 46 48 50 45 50 46 44 45
41 44 46 39 46 50 50 52 53 47 54 55 54 54 53 52 52 50 49 48 48 49 50 51 51 51 50 51 52 51 50 50 48 47 46 46 47 46 48 45 45 43 42 42
37 37 33 51 52 54 52 52 54 53 55 55 55 49 49 50 51 47 46 46 46 47 48 48 50 49 50 50 49 49 49 47 47 46 44 47 46 43 42 43 43 43 45 46
36 38 44 49 51 51 50 54 55 54 54 50 48 50 46 45 46 45 44 44 44 46 46 47 48 49 49 49 50 49 46 46 46 46 45 43 42 42 43 45 46 46 46 45
34 35 34 47 54 54 57 45 54 54 50 48 49 48 51 44 44 43 44 45 44 45 46 47 47 50 48 48 48 47 46 46 45 46 45 42 43 45 46 46 44 44 44 44
33 36 41 50 53 55 44 49 53 53 52 51 50 51 47 44 43 44 44 44 45 46 45 46 48 48 46 46 44 47 47 46 44 43 44 44 44 44 43 43 42 41 40 42
35 34 37 52 51 48 55 52 53 52 52 50 44 42 42 42 42 43 43 44 46 44 44 45 48 47 45 43 45 46 45 43 42 42 42 42 42 42 42 41 39 39 35 38
45 45 53 52 56 55 54 55 51 53 50 46 42 42 42 41 41 42 44 44 45 43 42 43 45 46 42 42 43 42 41 39 39 40 40 40 40 39 39 39 37 35 35 35
47 51 51 51 52 52 53 54 53 55 50 47 43 42 41 41 41 42 43 42 43 42 40 38 40 39 39 39 41 40 38 37 38 37 37 38 38 38 36 35 33 33 32 32
45 48 47 50 50 52 50 49 48 50 48 46 43 41 41 40 41 42 42 41 41 39 37 35 36 34 36 38 39 38 36 35 35 35 34 35 35 34 33 34 32 30 31 31
44 53 53 55 54 48 46 47 47 45 42 44 44 41 42 40 41 41 39 39 38 36 34 33 32 33 35 36 36 36 34 33 30 31 31 32 32 32 31 30 30 31 30 28
52 50 44 42 44 47 45 44 44 44 42 40 42 42 41 39 39 37 38 37 36 33 31 31 32 32 33 33 33 31 30 30 30 29 29 29 28 28 26 30 29 29 28 27
46 47 43 44 43 42 42 41 41 41 41 40 39 39 38 36 36 36 35 34 33 31 31 32 31 29 31 32 31 29 28 24 27 28 27 26 26 25 25 24 23 24 26 25
44 44 46 41 40 38 39 39 37 36 35 36 38 37 37 35 34 32 33 33 32 31 31 30 29 27 30 30 29 28 28 26 25 25 24 23 23 23 23 22 21 21 22 23
40 40 40 39 37 37 37 37 35 33 35 35 35 36 35 33 32 31 31 32 30 28 28 23 25 27 28 28 28 27 26 22 22 23 22 21 21 20 19 20 19 18 18 17
36 33 34 35 35 36 36 37 36 35 35 35 33 33 32 30 29 29 28 27 24 23 24 24 25 27 26 26 25 24 24 22 17 21 19 18 17 17 17 16 15 15 15 15
41 40 40 39 36 34 35 35 35 36 34 32 32 29 28 28 27 26 24 24 23 22 24 24 25 25 24 24 23 21 19 18 18 17 17 15 14 15 14 13 13 13 13 14
41 39 38 38 38 37 36 35 35 32 30 29 28 28 28 26 27 25 24 22 21 21 23 24 23 22 21 20 20 18 16 14 15 14 13 10 11 11 11 11 10 10 10 10
37 37 37 36 36 35 32 31 30 29 29 28 27 26 24 23 23 22 23 23 25 25 25 23 22 20 19 17 16 17 14 12 12 11 10 9 8 7 8 7 6 8 8 8
34 33 32 32 30 30 30 30 28 27 27 28 27 25 24 23 22 21 21 21 23 23 23 20 20 19 19 17 17 14 12 11 10 10 7 6 5 6 5 5 5 5 5 6
32 30 29 29 29 29 29 29 27 26 26 24 24 23 22 21 21 21 22 23 24 21 21 20 19 14 15 14 15 13 12 10 9 9 7 6 5 3 3 3 2 3 4 4
30 30 29 28 27 27 27 27 26 26 24 23 23 23 24 23 23 21 19 22 22 19 20 18 13 10 8 13 12 11 10 8 7 6 6 4 3 2 1 1 0 1 1 2
29 28 28 27 27 27 25 25 25 24 23 23 22 23 23 21 20 22 22 18 16 17 16 14 12 8 6 10 10 9 8 8 6 5 5 -3 2 0 0 -1 -2 -1 -1 -1
29 29 28 27 26 24 24 25 25 25 24 24 23 23 23 22 22 19 19 17 15 15 14 8 7 4 10 9 8 7 7 7 6 4 4 2 1 -1 -1 -2 -3 -3 -3 -2
25 25 25 26 26 25 25 24 22 22 22 20 19 19 19 19 18 17 16 15 15 11 13 10 8 8 8 8 7 6 6 6 5 4 1 1 -1 -1 -3 -4 -5 -4 -4 -3
23 23 23 21 22 22 23 22 21 19 20 19 18 18 17 16 15 15 12 12 12 10 9 8 8 6 7 7 6 6 5 5 2 2 1 -1 -2 -3 -5 -6 -6 -6 -6 -5

GFSNGP_sfc_temp_054.txt.gz
Temp
62 64 64 62 62 62 59 60 54 58 61 66 71 73 74 71 68 69 70 70 71 73 73 73 70 68 68 64 61 59 56 54 53 54 55 55 55 57 54 52 51 53 49 48
55 62 61 58 62 63 63 63 61 62 61 72 74 72 69 67 67 66 65 64 66 68 69 66 66 65 63 62 62 59 55 53 53 54 54 53 55 54 50 51 52 50 46 44
49 57 56 44 55 61 62 64 63 57 65 72 69 69 69 67 66 64 61 61 61 62 63 63 62 62 61 61 61 59 56 53 54 54 52 53 53 52 50 50 48 46 45 45
47 42 35 59 65 67 64 66 68 67 69 71 71 69 64 65 64 60 59 58 59 60 60 61 61 60 60 61 59 57 55 54 53 53 54 53 51 48 47 45 46 46 46 51
42 45 55 55 58 59 59 61 70 68 70 71 63 61 57 58 63 60 58 58 59 60 59 60 59 60 60 59 58 56 54 54 54 53 52 50 51 50 49 51 53 53 53 51
44 42 37 58 68 69 66 53 71 70 68 66 61 55 65 57 56 55 57 57 57 58 59 58 59 60 58 57 56 53 52 52 54 53 50 49 51 52 52 54 52 52 51 51
46 43 53 64 66 66 50 56 70 71 69 64 59 65 61 57 55 57 56 55 57 58 57 57 59 58 56 54 51 53 54 53 51 50 50 51 51 51 51 51 49 47 46 47
47 40 40 62 61 58 67 68 70 67 68 63 62 57 55 55 54 54 54 54 56 55 54 56 57 56 54 52 54 53 52 51 50 50 50 50 49 49 49 48 45 44 40 42
52 55 66 64 69 70 70 71 66 67 67 65 55 54 54 53 53 54 55 55 55 54 52 54 55 55 52 51 52 50 49 48 47 47 47 48 47 46 46 45 42 40 40 38
52 63 62 64 69 66 67 68 67 69 66 60 56 55 53 53 53 53 55 54 54 51 49 48 51 51 50 49 50 48 46 45 46 44 45 45 46 45 44 40 38 37 36 35
55 61 61 62 66 69 64 63 62 66 63 61 57 54 53 52 52 53 53 52 52 49 47 45 46 45 46 48 48 46 44 43 43 42 42 43 42 41 38 38 33 34 34 33
52 62 60 69 68 68 64 60 62 61 58 60 58 54 54 52 53 52 50 50 48 46 44 43 41 40 42 45 46 44 42 41 38 39 40 41 41 41 30 30 30 30 29 28
62 59 61 56 57 64 62 61 61 59 60 56 57 55 53 51 50 46 49 48 45 42 40 39 37 38 41 41 41 40 39 37 37 36 38 37 37 36 34 34 30 29 28 27
59 54 54 53 56 54 56 57 54 58 57 55 53 53 51 48 46 46 45 45 43 40 38 38 38 37 39 39 37 35 33 29 36 36 35 35 34 33 33 30 28 29 30 27
55 55 53 52 50 50 52 51 49 49 49 48 48 47 46 43 43 43 42 40 40 39 38 38 37 35 37 37 36 35 35 34 33 32 31 29 31 30 30 29 28 27 28 28
55 53 50 50 49 46 48 46 46 43 43 44 44 43 44 45 41 39 39 39 37 35 37 29 31 34 35 36 35 34 31 25 27 31 30 29 29 28 27 26 26 25 25 24
47 45 45 44 45 46 46 47 46 43 43 43 42 43 42 39 36 36 35 33 29 28 28 29 30 32 32 33 33 34 33 30 22 30 29 27 26 25 25 24 23 23 23 22
53 51 51 50 47 44 43 42 41 40 41 41 38 33 31 30 27 26 25 26 26 27 29 29 30 30 30 30 30 29 28 27 27 25 25 24 22 23 22 21 21 20 21 21
48 47 46 46 45 43 42 41 41 39 33 32 32 30 27 27 28 26 26 24 24 25 26 28 25 27 26 24 26 26 25 24 23 23 23 18 21 20 19 19 18 18 18 18
39 40 40 41 42 40 34 33 32 31 31 29 27 26 25 25 25 25 26 27 29 29 29 26 26 25 24 22 21 24 22 21 21 21 19 19 18 16 17 15 15 16 16 16
33 32 32 31 31 31 31 31 30 28 29 29 28 26 25 25 25 25 24 24 25 26 26 24 25 25 24 22 23 22 21 20 19 19 17 16 16 16 15 15 14 14 14 14
31 30 30 30 29 28 30 30 29 28 28 27 26 26 25 24 24 24 26 26 26 24 26 25 24 20 21 17 23 21 20 18 18 17 16 15 14 13 13 13 12 12 12 12
31 30 30 29 28 28 28 28 28 28 26 26 26 26 25 26 27 25 23 25 26 23 25 24 17 16 14 21 21 19 18 16 15 15 14 14 13 12 11 10 10 10 10 10
30 30 30 30 30 29 26 27 28 27 26 26 25 26 26 24 24 26 26 24 21 22 22 19 17 14 12 19 18 17 15 16 15 14 14 8 12 11 11 9 8 9 8 8
30 30 29 28 27 26 27 27 27 26 26 26 26 26 26 28 27 25 25 22 20 21 21 14 14 11 17 17 16 15 15 15 14 14 13 12 11 10 10 9 7 7 5 6
28 27 28 28 28 28 27 27 25 26 26 24 24 25 25 24 23 23 22 20 20 17 20 18 17 16 16 16 14 14 13 14 13 12 11 10 10 9 8 7 5 5 5 5
24 25 25 24 24 24 24 25 24 23 24 24 23 24 24 23 22 21 19 19 19 17 17 17 17 15 15 14 14 14 13 13 11 10 9 10 9 8 7 5 4 4 3 3

GFSNGP_sfc_temp_057.txt.gz
Temp
63 66 67 65 64 64 62 63 55 60 62 69 73 75 77 79 79 78 78 79 80 80 79 77 76 75 68 64 62 61 58 56 53 54 55 55 55 53 52 51 50 51 50 49
58 65 65 61 66 66 67 66 65 66 64 76 78 79 77 76 76 75 76 77 78 79 77 74 72 71 67 62 60 59 56 55 56 57 59 58 57 56 55 53 53 51 48 46
50 62 61 52 61 64 66 69 67 60 68 75 74 75 75 77 75 75 73 72 73 74 72 70 69 68 66 63 62 60 59 59 60 60 57 57 58 57 56 53 53 51 47 49
49 45 38 59 71 70 66 68 72 71 73 75 76 78 77 77 76 71 70 68 69 69 68 68 68 67 66 66 63 61 60 59 59 58 57 57 56 55 53 53 52 51 51 51
44 46 55 62 65 65 64 64 73 72 74 76 77 72 67 71 74 70 68 68 68 68 67 67 66 66 65 63 62 60 59 59 58 56 54 55 53 53 53 51 52 54 55 54
48 43 39 57 69 75 73 56 74 75 73 73 71 59 69 68 69 67 67 67 66 66 66 65 65 65 63 61 60 59 58 57 56 57 56 54 53 54 55 55 54 55 53 53
46 45 54 68 71 76 52 56 75 76 75 73 68 70 70 67 64 66 65 65 65 65 64 64 65 64 61 59 56 57 58 57 55 55 55 55 54 54 54 53 52 49 47 48
47 44 41 68 68 60 68 74 75 75 76 73 72 66 64 63 63 63 63 62 64 62 62 63 64 62 58 57 58 58 56 55 55 54 54 54 53 52 52 50 48 46 43 44
55 55 67 68 68 74 77 75 75 75 77 75 67 64 63 62 62 62 62 63 63 61 59 61 62 61 57 56 57 55 54 52 52 52 52 52 51 49 50 48 44 42 41 40
57 64 67 70 72 72 75 75 77 77 76 73 66 64 62 61 61 61 62 62 62 59 58 57 59 59 56 55 55 53 51 50 50 50 48 49 50 48 46 42 40 40 39 37
59 65 67 70 68 69 73 74 73 73 75 72 67 63 62 60 60 62 62 61 59 57 55 55 55 54 55 54 54 51 49 49 47 46 47 46 45 43 41 37 34 35 36 34
53 64 62 64 71 71 73 72 70 70 70 70 68 63 62 60 61 61 59 58 57 55 52 51 51 50 52 53 52 49 46 45 43 42 43 45 45 39 31 31 30 30 29 28
64 68 67 70 66 68 71 73 72 69 70 67 66 64 62 59 60 54 57 57 54 52 50 48 46 46 48 48 48 46 44 41 39 40 41 40 40 39 39 30 31 30 29 27
69 65 59 63 65 64 64 70 65 68 68 67 65 63 61 58 56 55 53 53 51 47 44 44 43 41 42 44 43 41 39 32 41 40 39 38 39 37 37 34 31 33 30 29
65 67 62 60 59 60 61 60 60 62 62 61 62 59 58 54 52 52 51 48 46 44 44 44 41 39 43 41 41 40 39 39 37 36 34 33 34 34 33 32 31 31 32 32
66 65 63 58 60 58 56 55 56 54 57 57 57 56 55 52 51 47 45 45 41 40 40 32 34 37 39 41 40 37 34 28 32 34 33 33 32 31 31 30 29 29 28 28
55 55 56 55 57 55 54 55 55 53 53 53 52 50 49 47 42 41 38 34 29 28 30 32 32 35 35 37 38 38 36 31 26 33 32 30 30 29 28 27 26 26 26 26
58 57 56 57 57 53 52 52 52 49 48 49 45 37 35 35 32 28 28 27 26 26 28 28 29 31 32 33 33 32 31 30 29 28 28 27 26 26 25 25 25 24 24 25
53 53 51 52 53 52 50 47 45 41 35 34 33 30 28 27 27 26 25 24 23 22 24 26 26 29 27 26 29 28 27 26 27 26 25 20 23 24 23 23 22 22 22 22
40 42 40 38 39 37 34 34 34 33 32 30 28 27 25 25 25 25 26 25 26 25 26 26 27 26 25 23 25 27 25 25 25 24 23 21 22 21 21 20 19 20 20 20
31 31 30 30 30 30 30 30 29 28 28 28 26 25 25 26 26 25 24 22 23 25 26 26 27 26 26 25 26 24 24 23 22 21 21 20 19 20 19 19 19 19 18 18
31 31 30 30 30 30 30 30 30 28 27 26 26 25 25 25 25 25 26 23 24 26 27 26 26 23 23 20 25 23 23 21 20 20 19 19 18 17 17 17 17 17 16 16
31 30 30 29 28 28 29 29 28 28 27 26 26 26 26 26 26 24 21 25 26 26 27 25 19 18 18 22 23 22 21 20 19 18 18 17 17 16 16 15 15 14 14 14
30 30 30 30 30 28 26 27 27 27 26 26 26 27 26 25 25 26 26 25 24 25 24 20 19 17 14 22 21 20 19 19 18 18 17 15 15 16 15 14 13 14 13 12
30 29 29 28 28 27 28 28 28 28 27 27 27 27 27 29 27 26 26 24 22 24 22 17 17 15 19 20 19 18 17 17 17 16 15 15 15 14 14 14 13 12 10 9
27 26 27 28 28 29 29 29 27 28 28 26 26 26 26 26 26 26 25 23 23 21 22 20 20 19 19 19 18 17 16 16 16 15 14 14 14 13 13 12 11 10 10 9
25 26 26 25 26 26 26 26 25 23 25 26 24 25 25 24 24 24 23 23 22 21 21 20 20 18 17 16 16 16 16 15 14 14 13 12 12 12 11 11 10 9 8 7

GFSNGP_sfc_temp_060.txt.gz
Temp
60 63 64 62 62 62 61 59 48 56 60 66 71 72 73 75 76 75 77 77 76 75 74 75 73 67 65 62 61 60 57 54 52 52 52 52 50 50 50 49 49 48 47 46
52 61 62 58 63 64 64 64 64 64 62 74 76 77 76 75 76 75 76 77 78 77 75 73 68 65 61 58 57 57 54 53 54 54 54 53 51 50 49 49 49 49 46 45
45 57 58 48 59 63 65 68 66 58 66 73 72 74 74 75 76 75 75 75 75 76 73 71 66 62 59 57 57 56 55 55 57 57 55 54 54 53 51 49 48 46 44 44
43 42 37 58 69 69 64 67 70 70 71 74 74 76 76 77 76 73 73 72 72 71 67 67 66 62 60 60 59 57 58 57 57 55 55 54 53 51 50 50 48 47 46 46
40 42 52 59 64 63 61 61 71 69 72 75 76 73 69 74 74 72 70 70 70 69 67 66 64 63 62 60 59 58 56 56 56 55 52 53 51 50 49 49 48 48 49 48
41 37 36 53 66 72 70 51 70 72 71 71 71 57 66 70 71 69 69 68 67 67 66 64 63 63 60 58 57 56 56 55 55 55 54 51 50 50 50 50 50 50 49 46
40 37 48 64 68 70 49 52 71 73 72 71 67 68 68 69 68 69 68 67 66 65 63 63 63 62 59 58 56 57 56 56 55 55 53 52 50 49 49 47 46 41 39 40
41 36 36 66 66 57 62 67 72 72 72 70 67 66 66 67 65 65 65 64 65 62 61 62 63 61 58 55 56 57 55 54 53 53 53 52 48 47 47 43 39 36 35 34
46 48 63 63 64 67 68 67 69 69 74 73 64 64 64 63 63 63 63 62 64 62 60 61 62 59 55 55 56 54 52 51 50 51 51 50 46 44 42 41 36 33 33 31
51 58 60 62 66 67 69 68 72 74 75 73 65 65 63 62 62 62 62 62 62 60 58 57 59 59 56 55 55 52 49 48 48 46 46 45 46 44 40 35 32 32 31 30
55 61 61 64 67 66 66 70 71 73 71 71 68 65 63 62 61 62 61 61 61 58 57 56 57 55 55 54 53 50 48 47 44 43 43 43 38 37 32 30 29 29 29 28
49 61 58 60 66 69 67 69 71 70 68 70 68 65 64 62 61 61 60 60 58 56 55 55 53 52 52 53 52 48 44 43 37 37 37 41 37 34 32 30 31 30 29 26
59 65 64 67 67 68 64 65 67 70 69 67 68 67 64 61 61 56 60 57 55 53 52 50 49 47 49 48 47 44 38 39 35 35 36 35 33 32 26 28 31 30 29 28
67 65 62 62 60 62 61 63 64 68 68 67 67 66 62 60 58 58 56 55 53 50 47 45 44 41 44 44 41 37 36 35 36 35 34 33 32 31 30 29 26 25 29 29
64 66 64 64 62 61 61 60 59 59 62 62 63 61 59 57 55 54 53 50 47 44 43 43 40 40 41 39 38 37 37 35 34 31 29 29 30 30 29 28 27 27 28 26
59 61 65 61 60 59 58 56 54 53 56 58 57 56 56 55 52 46 45 44 40 38 38 32 34 36 37 39 35 32 30 30 32 31 29 30 29 28 28 28 27 26 24 24
52 52 52 53 56 57 56 55 54 54 53 52 50 49 51 42 39 31 31 32 31 30 31 31 32 34 34 34 34 31 28 25 25 30 29 28 27 26 26 25 24 23 22 17
54 54 54 52 53 53 53 52 52 50 46 39 37 36 34 29 26 26 26 25 25 24 26 28 30 29 29 29 29 28 27 26 27 26 26 25 24 25 24 23 23 22 21 21
44 43 43 44 46 44 39 36 35 34 33 32 29 26 26 26 25 24 25 24 23 21 22 24 24 23 23 25 25 25 24 24 25 24 24 18 20 22 21 21 20 19 19 19
34 34 34 33 34 34 31 31 30 29 29 27 26 25 24 24 25 25 25 23 23 22 24 23 23 22 21 23 26 24 23 23 23 22 21 19 19 20 19 19 18 17 17 16
30 30 29 29 29 30 29 29 28 26 26 26 25 24 24 24 24 23 21 20 22 23 23 23 22 22 23 23 25 23 22 21 21 20 20 19 19 19 18 17 17 16 16 16
30 29 28 28 28 28 28 28 27 26 26 26 25 25 24 24 23 22 23 21 22 23 23 22 21 21 21 21 24 22 22 21 19 19 18 18 17 16 15 16 15 14 14 12
29 28 28 27 26 26 27 27 27 26 25 25 25 25 24 24 24 21 19 23 24 24 22 19 19 19 18 21 21 20 20 19 18 18 17 17 16 15 14 14 13 12 11 11
28 28 27 28 28 27 25 26 26 26 26 26 26 26 25 23 23 25 25 23 23 22 20 19 18 17 15 20 20 19 18 17 17 16 17 15 15 14 14 13 11 11 9 8
28 28 28 27 27 26 27 27 26 26 26 25 26 26 26 27 25 24 23 22 23 22 18 16 15 15 18 18 18 17 16 16 15 14 12 11 12 12 12 12 10 9 6 4
25 25 25 25 26 26 26 26 25 26 25 23 24 25 25 25 25 24 23 22 21 20 20 19 17 17 17 17 16 15 15 15 14 14 12 11 11 10 10 10 9 8 6 6
22 23 23 23 23 23 23 23 22 20 23 23 21 23 23 23 22 22 21 21 20 19 19 18 18 16 15 13 14 14 14 14 12 11 10 10 9 9 8 8 7 6 5 3

GFSNGP_sfc_temp_063.txt.gz
Temp
53 57 59 57 56 57 55 54 46 49 50 56 60 64 64 67 67 66 66 66 67 65 64 59 58 57 56 55 55 55 54 52 50 50 51 50 49 48 48 48 47 47 46 46
48 55 57 54 58 55 57 57 54 53 52 64 65 66 66 68 67 67 67 67 67 68 66 61 57 54 54 53 52 53 52 50 51 50 49 49 48 48 48 47 47 46 45 44
41 52 52 41 50 55 57 60 57 49 57 62 64 65 66 64 66 66 67 67 65 66 64 60 56 55 52 52 52 52 52 52 52 52 50 49 49 49 48 46 45 42 41 41
34 41 33 50 61 61 58 61 62 62 62 64 66 64 63 65 65 64 65 65 62 63 60 58 56 53 53 54 54 54 54 54 53 52 51 50 50 46 44 43 41 41 41 41
35 38 45 52 57 57 55 54 63 61 62 64 64 59 57 65 64 62 62 59 57 59 59 56 55 55 54 53 55 55 53 52 52 51 48 47 46 47 47 46 43 42 43 41
33 30 32 45 58 64 63 46 62 61 61 61 60 49 53 61 61 59 59 60 59 59 58 56 55 56 53 52 52 51 51 51 50 50 49 49 48 48 46 44 44 44 41 37
33 32 37 53 62 63 44 44 62 62 61 60 56 56 59 59 58 59 58 58 58 58 56 56 57 55 52 52 50 52 51 51 50 50 50 50 45 43 42 41 39 35 35 35
34 30 30 56 58 51 54 59 62 61 60 57 58 57 59 59 58 58 57 57 57 55 54 55 56 55 52 50 52 52 51 50 49 49 49 47 42 41 41 38 34 32 31 30
41 38 52 55 55 59 60 60 60 60 63 60 55 56 58 56 56 56 55 54 55 54 52 53 55 55 50 50 51 50 48 47 46 46 46 44 41 38 37 35 31 30 31 29
44 49 53 56 58 58 57 58 61 66 62 61 59 58 55 54 54 54 54 53 53 52 51 50 52 53 51 50 50 48 45 44 42 41 40 39 40 38 35 30 28 30 29 27
45 52 55 57 59 58 57 59 62 64 63 62 57 56 57 55 53 55 54 54 53 52 50 49 51 49 50 50 48 45 44 42 41 39 36 33 32 32 29 27 29 28 25 26
39 51 52 55 61 61 58 60 62 59 61 62 59 57 56 53 53 53 53 51 51 49 48 47 48 46 46 48 47 44 40 39 34 34 33 33 31 29 31 30 32 31 30 26
52 57 58 58 60 61 59 58 59 58 58 59 59 57 56 53 52 49 51 50 49 47 45 44 43 41 42 41 41 38 35 36 32 32 31 31 29 27 24 29 31 30 30 30
58 57 53 54 54 56 57 55 56 57 57 58 59 56 53 52 50 49 48 47 45 42 40 38 37 34 37 38 36 34 34 33 33 32 32 31 29 29 27 25 23 24 29 28
52 54 53 56 55 55 54 53 51 51 52 53 54 52 51 49 45 43 43 42 41 38 38 37 35 35 36 35 35 33 32 30 28 27 28 28 28 27 28 27 26 25 25 26
49 51 52 50 51 52 52 50 48 46 48 48 48 44 42 41 39 38 38 38 33 30 32 30 31 32 33 33 31 30 30 29 27 27 27 26 26 26 26 26 25 24 23 21
43 42 45 45 47 48 47 46 45 42 40 39 35 33 33 30 28 27 27 28 28 27 28 27 27 30 31 29 27 26 25 26 26 26 25 25 24 24 24 23 22 22 19 17
43 41 41 39 39 38 36 36 36 35 32 30 29 28 26 25 24 24 24 24 24 23 24 24 25 26 26 26 26 25 25 25 25 23 23 22 21 22 22 21 21 20 19 18
37 36 35 36 35 34 32 30 30 29 28 27 25 23 23 23 24 24 25 24 22 20 21 23 24 23 24 24 24 24 23 22 22 22 21 19 19 20 19 18 17 17 17 17
31 32 31 30 30 30 28 28 28 27 27 26 25 24 23 24 23 22 21 19 21 21 22 22 21 21 21 23 23 23 21 20 21 20 18 18 16 16 16 17 17 14 13 13
28 28 27 26 26 26 26 26 26 25 25 25 23 22 21 22 22 21 19 18 21 22 22 22 21 20 21 21 22 21 19 19 18 18 17 16 15 15 14 13 12 11 10 10
26 26 25 25 25 24 25 25 25 25 24 23 23 23 21 20 20 20 21 20 22 22 21 19 19 18 19 20 21 19 19 18 17 16 15 13 11 9 9 8 8 8 7 5
26 26 25 25 24 24 25 25 24 24 23 23 23 23 22 22 22 19 18 23 21 19 18 17 17 16 17 19 18 17 16 14 14 14 12 10 10 9 8 6 6 4 0 1
26 26 25 26 26 25 23 24 25 25 24 25 24 23 23 20 20 22 21 19 19 17 16 16 15 14 14 16 15 12 9 7 6 8 8 6 4 6 9 6 4 3 2 -1
23 24 25 25 24 24 25 25 24 24 23 23 23 23 23 23 19 20 20 20 18 16 13 11 12 11 14 14 12 8 6 7 8 2 5 5 5 0 -3 2 5 3 -1 -3
22 21 20 21 21 22 21 22 21 22 21 19 20 20 21 21 21 19 18 17 17 16 14 9 9 8 6 6 3 4 4 6 8 7 4 3 -2 -4 -2 3 1 0 -2 -6
19 20 20 19 19 18 18 19 17 16 18 17 15 17 17 17 17 17 14 15 13 12 11 12 12 11 10 9 6 1 -1 -4 -4 -0 -1 -6 -9 -10 -4 -2 -2 -5 -11 -13

GFSNGP_sfc_temp_066.txt.gz
Temp
52 54 55 53 52 54 50 49 42 46 47 53 57 60 61 63 63 62 62 62 63 59 56 55 55 56 63 63 63 61 58 57 54 53 53 53 51 51 50 49 49 48 47 46
45 52 55 52 55 53 52 52 51 52 50 61 64 62 60 63 66 64 64 64 63 61 57 55 54 55 55 58 56 56 53 51 51 51 51 50 49 48 48 47 47 46 45 45
37 47 50 40 49 51 52 54 53 45 52 62 62 60 60 65 65 63 64 63 61 62 58 56 54 53 53 54 54 53 52 51 51 50 49 48 48 48 47 45 45 44 44 44
31 37 32 49 58 56 54 57 60 58 58 62 63 65 63 66 65 64 63 62 62 63 59 55 53 52 51 53 53 52 51 51 51 49 49 49 48 46 45 45 43 43 42 41
31 34 42 48 53 54 53 50 58 59 60 63 63 58 56 63 63 65 61 59 60 62 56 53 52 52 51 50 51 51 51 50 51 50 48 47 46 45 44 43 41 40 40 38
32 29 31 43 54 60 59 41 58 61 60 61 58 46 51 61 60 59 58 55 54 53 52 51 51 52 51 50 50 50 50 51 51 49 47 46 45 43 43 43 42 41 38 38
32 32 35 47 54 59 43 44 56 60 60 60 53 56 59 58 57 57 57 55 54 54 53 52 52 52 50 49 49 50 50 50 48 48 47 46 46 43 41 39 38 34 32 32
32 31 28 53 55 47 49 54 57 57 57 55 58 55 56 58 56 55 55 53 54 52 51 52 52 51 48 47 49 49 49 48 47 47 48 48 42 39 39 36 33 31 29 27
38 38 51 53 54 53 55 53 55 54 57 56 54 54 55 54 54 55 55 53 53 51 49 50 51 51 48 47 49 48 47 45 43 43 42 42 39 37 35 34 32 30 29 26
42 49 50 53 58 59 57 57 59 58 57 56 56 56 54 53 53 52 52 52 50 50 49 47 49 49 48 48 48 46 42 41 41 39 37 37 37 36 33 30 31 30 29 26
43 49 52 54 54 57 59 60 58 60 57 58 57 56 54 53 53 54 52 51 52 50 49 47 48 47 47 47 46 43 41 39 37 35 34 32 30 30 30 29 30 29 28 28
38 49 49 51 57 60 56 58 60 58 56 56 57 57 55 52 53 53 51 49 48 47 46 45 45 44 44 45 44 40 37 35 31 30 31 31 29 28 32 31 32 31 30 27
45 51 52 56 58 58 56 55 57 56 55 55 56 55 52 49 49 45 48 47 47 44 43 41 39 38 41 41 41 38 34 33 32 31 30 29 29 29 25 28 31 31 30 29
46 49 47 50 51 51 53 53 53 54 54 53 52 54 49 48 48 47 44 43 41 38 37 36 35 34 38 39 37 34 33 33 32 31 31 29 28 27 27 25 24 25 28 28
43 47 47 49 50 50 51 50 49 48 47 45 46 46 47 42 39 38 38 38 37 36 35 34 32 32 36 35 33 31 30 29 28 27 27 27 28 27 27 26 26 25 25 26
43 43 45 44 46 45 46 45 43 39 39 37 35 34 35 34 33 32 33 35 31 28 29 27 28 30 31 31 30 29 28 27 28 27 27 26 26 25 25 25 24 23 23 21
38 36 37 39 40 38 37 38 37 35 33 31 30 30 30 29 28 26 26 27 27 26 27 27 26 28 28 28 28 27 27 27 26 26 25 24 24 24 23 22 22 21 20 18
38 38 38 37 36 34 33 31 30 30 28 28 27 26 24 23 23 23 24 25 23 23 24 25 26 26 26 26 25 25 25 25 24 23 23 22 21 22 21 20 20 19 18 18
33 32 32 32 31 30 29 27 27 27 26 25 24 23 24 24 24 23 23 21 20 19 20 23 25 24 23 24 24 23 22 22 22 21 21 20 19 20 19 18 17 17 17 17
28 29 28 27 28 27 26 27 27 26 26 25 23 22 20 20 20 20 20 18 19 19 21 21 22 22 22 22 23 22 21 20 20 19 18 17 16 15 16 17 16 16 14 14
25 25 25 25 24 24 25 25 24 22 23 23 21 20 20 20 21 20 19 17 20 21 21 20 20 20 21 22 21 19 18 18 17 17 16 15 15 14 13 12 12 11 10 9
24 23 23 23 23 23 24 24 24 23 22 22 21 20 20 19 19 19 20 18 19 18 18 18 18 18 20 20 20 18 17 16 15 15 14 13 11 10 9 9 7 7 6 4
24 24 24 23 23 23 23 24 23 23 22 21 21 21 20 20 21 18 15 18 18 17 17 16 17 18 17 16 15 14 13 12 11 10 9 7 6 6 6 7 5 2 0 -1
25 25 25 25 25 23 21 22 23 22 22 22 21 21 21 18 18 19 18 17 16 15 15 15 15 14 13 12 11 9 8 8 6 3 3 -2 -7 -7 -7 -8 -5 -4 -1 -1
20 20 21 21 21 21 22 22 22 21 21 20 20 21 21 20 18 17 16 16 16 14 12 11 11 9 8 7 6 5 3 1 -0 -2 -4 -7 -11 -13 -13 -11 -8 -4 -4 -5
19 18 18 18 19 19 20 20 17 18 18 15 15 16 17 18 18 16 15 14 14 13 12 10 8 7 5 4 0 -3 -5 -2 -3 -3 -11 -13 -14 -13 -13 -12 -12 -11 -11 -13
17 18 18 16 17 16 16 16 14 12 12 10 8 11 12 13 13 11 9 8 7 5 4 1 -1 -1 -2 -7 -7 -8 -9 -9 -9 -10 -16 -18 -16 -16 -16 -17 -18 -20 -20 -17

GFSNGP_sfc_temp_069.txt.gz
Temp
43 47 50 51 51 52 50 48 41 47 44 50 55 57 59 59 58 59 59 59 59 59 58 62 63 63 64 63 61 61 61 61 61 60 61 60 58 56 53 52 51 51 49 48
37 47 49 47 52 52 50 50 50 50 46 55 59 57 57 59 61 60 61 60 61 60 57 56 57 59 61 61 60 61 60 60 59 55 55 55 53 51 51 50 48 47 47 46
31 40 41 37 46 51 53 52 51 44 50 57 55 57 57 60 60 61 61 63 59 61 59 57 55 56 58 59 58 59 58 54 54 53 52 50 50 49 48 47 46 46 45 44
32 35 28 43 53 56 52 55 54 53 55 58 58 60 62 59 60 60 61 61 60 62 58 55 52 55 54 55 55 54 53 52 51 51 50 49 48 47 45 45 44 44 43 44
28 31 38 44 50 49 48 50 56 54 56 59 58 53 55 60 58 62 62 65 63 65 57 51 52 53 54 53 53 52 51 50 50 50 48 47 46 45 45 45 44 43 44 43
32 28 26 42 50 56 56 41 55 62 58 53 54 44 49 60 58 58 58 56 54 52 52 51 50 52 52 51 51 51 51 50 50 49 48 46 46 44 44 44 43 41 38 38
31 30 33 45 51 54 37 39 54 57 54 57 53 53 59 56 58 55 53 53 52 52 52 51 50 50 50 50 50 51 52 51 49 49 48 47 45 44 43 42 38 34 32 34
32 30 25 50 48 41 46 50 50 53 52 52 53 55 55 56 55 54 53 52 52 51 49 49 50 50 48 48 49 50 50 48 48 47 47 46 42 41 40 37 32 31 29 30
34 36 47 50 48 50 51 51 53 53 54 53 54 55 53 52 52 53 50 50 51 49 48 48 50 50 47 44 47 46 47 46 46 46 44 43 40 37 35 33 33 31 30 28
38 45 48 52 54 56 56 55 57 57 55 53 51 53 53 53 53 52 50 48 48 48 47 45 46 47 46 46 46 45 44 43 42 40 38 39 38 37 32 31 31 30 28 25
43 49 50 52 54 55 56 57 57 57 58 57 53 54 52 53 53 52 50 49 49 48 46 45 46 45 46 46 45 41 41 40 38 36 34 31 32 33 31 32 33 30 28 27
34 43 41 51 55 55 54 55 56 55 55 58 55 55 54 55 52 51 49 48 46 45 44 44 44 44 44 46 44 40 35 36 34 33 32 32 31 29 32 32 32 32 31 28
39 43 43 48 52 52 54 54 54 54 53 53 55 58 61 52 50 45 47 45 44 42 41 40 39 38 40 40 40 37 33 33 32 32 31 30 30 28 25 29 31 31 31 30
43 43 43 44 44 48 49 50 50 50 47 44 45 50 48 46 43 41 38 39 38 36 35 34 34 34 37 37 36 34 34 32 32 31 30 29 28 28 27 26 23 24 28 28
40 43 42 44 43 42 44 45 43 39 38 36 37 39 39 35 34 34 35 34 33 32 31 32 30 30 33 33 32 31 31 29 29 28 28 28 28 27 26 26 25 24 25 25
39 42 41 40 39 38 37 36 35 32 32 31 31 30 29 28 28 28 28 30 29 25 27 27 28 30 31 31 31 30 29 28 28 27 27 26 26 26 25 25 25 24 24 22
34 35 35 35 36 34 31 32 31 30 29 28 28 28 28 27 26 26 26 27 26 26 27 26 26 28 28 28 27 27 26 26 26 25 25 24 23 23 23 22 22 21 19 20
35 34 34 33 32 31 29 29 28 28 27 26 26 25 23 23 22 23 23 23 23 22 23 24 25 25 25 25 25 25 24 24 23 22 21 21 21 21 20 20 20 18 18 18
30 29 29 29 29 28 27 27 26 26 25 25 23 21 21 21 21 21 21 20 19 18 19 22 24 23 23 23 23 23 22 21 20 20 20 19 19 19 18 17 17 17 17 17
26 27 26 26 27 26 25 25 25 24 24 22 21 20 18 19 19 18 18 16 17 19 20 21 21 21 21 21 21 20 19 19 18 17 17 17 16 15 16 15 15 14 13 13
23 23 23 23 23 23 23 22 21 20 20 21 19 18 18 19 19 18 16 14 17 19 19 20 21 20 20 20 20 18 17 16 16 15 14 13 13 12 11 11 10 8 7 7
23 23 22 22 22 21 22 22 22 21 20 20 20 19 18 16 16 15 16 15 17 18 19 18 18 17 17 17 17 15 15 14 12 12 10 9 7 5 3 2 2 4 2 -1
23 23 22 21 20 20 21 21 20 20 19 19 18 17 17 17 17 14 12 16 17 17 16 15 15 14 13 12 12 10 9 8 7 5 4 3 1 -0 -0 -1 -2 -4 -8 -4
21 23 22 22 22 21 19 20 20 20 19 19 18 19 17 14 14 16 16 15 14 13 12 11 10 10 9 8 7 6 5 3 0 -1 -1 -4 -7 -8 -7 -12 -12 -15 -13 -8
19 19 20 20 20 19 19 19 18 17 17 17 18 18 18 18 14 14 14 13 13 10 8 7 7 5 4 2 0 -1 -2 -3 -5 -6 -10 -16 -18 -19 -19 -17 -17 -16 -16 -16
17 16 16 17 17 18 17 16 13 14 14 12 12 13 13 13 12 10 9 8 7 5 4 2 1 0 -2 -4 -6 -8 -7 -6 -11 -14 -18 -19 -19 -18 -20 -19 -21 -21 -22 -23
16 16 16 14 15 14 13 12 9 7 7 6 5 9 9 7 5 5 1 0 -2 -3 -6 -8 -8 -7 -8 -12 -11 -14 -15 -15 -17 -17 -22 -21 -21 -23 -23 -23 -25 -26 -26 -24

GFSNGP_sfc_temp_072.txt.gz
Temp
42 44 44 44 44 46 45 46 41 42 46 50 53 56 58 59 56 57 58 58 57 56 58 58 59 59 59 58 57 58 58 58 58 58 59 56 55 57 58 58 59 57 54 53
36 43 44 41 44 46 46 46 47 46 46 55 57 55 55 57 58 57 59 60 59 58 56 57 58 59 59 58 57 57 57 57 59 58 59 57 56 57 59 57 56 53 50 49
31 40 40 33 40 43 46 49 48 43 48 55 54 55 56 57 57 57 58 60 59 61 60 59 59 58 58 59 58 57 57 57 58 58 57 57 57 54 53 52 50 49 47 46
29 33 25 41 48 50 45 48 52 52 52 57 57 58 57 57 58 58 58 60 60 62 59 57 53 53 54 55 57 57 56 57 58 57 55 51 50 50 50 49 48 47 46 45
25 28 35 40 48 48 43 44 51 50 54 56 58 52 54 57 57 58 58 60 59 61 61 56 53 53 54 54 54 56 57 55 54 54 50 49 48 47 46 46 45 44 44 44
31 25 23 37 49 53 51 38 51 51 51 53 53 45 49 59 55 57 55 55 56 55 51 52 52 54 53 53 54 54 53 52 51 50 48 48 47 45 46 45 43 41 40 41
31 29 33 42 48 52 33 37 45 50 49 49 49 52 54 53 55 54 53 53 51 51 51 52 54 55 53 52 52 52 51 50 50 49 48 48 45 44 43 40 37 35 34 35
32 29 26 47 46 41 44 46 47 51 49 48 49 50 52 53 52 53 52 52 51 49 48 50 52 53 51 51 50 51 50 48 48 48 46 45 42 41 39 36 34 33 32 30
33 33 44 46 46 50 50 52 50 51 53 51 50 49 50 50 51 50 50 49 50 48 48 49 50 50 50 47 49 48 47 46 44 44 42 42 39 37 36 35 33 32 31 28
36 41 44 48 48 51 51 51 54 56 55 56 53 52 50 50 51 50 50 49 48 47 46 46 47 46 46 45 47 47 44 42 41 39 38 38 38 37 35 33 32 31 30 28
39 43 44 47 48 51 52 54 54 56 56 54 53 53 53 50 50 51 51 48 47 46 44 43 44 44 45 45 45 42 41 39 37 35 34 32 31 33 33 33 34 32 30 29
32 38 39 40 44 46 46 48 52 53 53 54 51 51 53 55 50 50 48 47 46 44 44 43 43 43 43 44 43 39 35 36 34 33 32 32 31 29 32 32 32 32 31 29
40 40 40 41 44 44 43 47 46 44 42 42 43 45 47 47 44 41 42 40 39 38 38 38 37 36 39 38 38 36 34 34 33 32 32 30 30 29 25 28 30 30 30 29
43 40 39 41 40 42 42 44 43 40 38 36 36 38 36 34 34 33 33 35 35 34 33 32 31 31 34 35 34 32 31 31 30 29 28 27 26 26 26 25 23 24 28 28
38 40 41 42 41 38 39 38 36 33 33 31 31 29 29 27 27 28 30 30 30 30 30 30 29 29 32 32 31 30 30 29 28 28 28 28 27 26 26 25 24 24 25 26
36 38 39 38 37 34 33 32 30 28 29 28 28 27 27 27 27 27 28 29 27 26 27 27 28 30 32 31 30 29 28 28 28 27 27 26 26 26 26 25 25 24 23 22
32 33 32 32 33 31 29 30 29 28 26 26 26 27 26 26 25 25 24 25 24 23 25 25 25 27 28 28 27 26 25 25 24 24 23 23 23 22 22 22 21 19 18 20
32 31 31 31 30 29 28 28 28 27 26 25 25 23 21 21 21 21 21 22 21 21 22 23 23 24 24 24 24 23 22 22 21 21 21 20 20 20 19 19 18 17 17 18
28 27 28 28 27 27 26 25 25 24 23 22 21 19 19 18 19 19 19 18 18 17 18 21 23 21 21 22 22 21 20 19 19 19 19 18 17 17 16 16 15 15 15 15
26 26 25 25 25 25 23 23 23 22 22 21 19 18 16 16 17 17 17 15 17 18 20 20 20 19 19 19 20 19 18 17 17 16 15 14 13 12 13 13 13 11 10 10
22 22 22 22 21 21 21 21 20 18 18 18 16 15 14 16 16 17 15 14 16 18 18 18 18 17 18 18 17 16 15 14 13 11 10 9 8 7 6 5 5 4 0 -1
21 20 20 20 19 19 20 20 20 19 19 17 17 16 15 14 14 14 15 14 16 16 16 15 15 14 14 15 14 12 11 10 8 7 6 5 2 -1 -3 -3 -5 -4 -7 -6
21 21 21 19 19 19 19 19 18 18 17 16 15 14 14 15 15 13 10 14 14 13 13 11 11 10 10 9 8 6 5 4 3 1 -1 -4 -7 -10 -10 -11 -12 -13 -12 -10
20 21 20 20 20 19 16 17 18 18 17 17 16 16 15 12 12 14 13 10 9 9 8 7 7 6 5 5 4 2 0 -3 -5 -8 -7 -13 -18 -16 -15 -18 -16 -19 -18 -17
18 18 18 18 17 16 17 17 16 15 15 14 14 15 15 15 11 10 9 8 8 6 4 2 1 -1 -2 -4 -4 -6 -8 -11 -15 -16 -20 -21 -22 -23 -23 -22 -23 -23 -23 -23
16 15 15 15 15 15 15 14 11 12 12 9 8 8 7 8 7 6 4 3 2 -0 -3 -8 -10 -10 -10 -10 -13 -15 -15 -12 -16 -17 -21 -22 -22 -21 -24 -22 -25 -25 -27 -25
14 15 14 12 12 11 10 9 6 5 4 3 4 5 3 0 -1 -1 -6 -7 -9 -10 -14 -15 -14 -12 -13 -17 -16 -19 -18 -19 -21 -21 -26 -25 -25 -27 -27 -28 -29 -29 -29 -29

GFSNGP_sfc_temp_075.txt.gz
Temp
42 46 46 45 44 46 44 46 41 47 50 55 60 62 65 68 65 66 65 65 67 66 65 65 64 63 63 62 61 62 61 61 60 60 61 62 62 62 62 63 63 64 62 57
38 46 47 42 46 48 48 48 48 50 49 60 64 64 59 62 64 64 65 66 69 67 66 64 63 63 63 62 61 62 62 61 62 62 62 61 61 61 61 62 63 63 62 59
34 42 42 36 44 47 50 52 50 45 53 60 61 61 59 61 64 63 65 66 66 68 66 66 65 64 63 64 63 61 61 62 62 63 62 61 62 62 61 61 61 59 59 56
32 34 27 45 53 52 48 51 54 54 55 57 60 63 66 66 65 64 65 66 66 68 67 69 68 66 66 65 62 61 62 62 62 62 62 63 62 61 61 59 57 53 51 50
31 31 39 46 51 49 47 48 50 51 53 55 57 59 60 62 62 64 66 66 65 67 68 69 67 66 64 63 63 61 61 61 62 62 61 57 57 55 52 50 49 48 47 45
31 28 27 43 51 54 55 40 51 52 51 51 57 48 54 60 57 59 62 63 63 64 64 65 64 62 63 63 62 61 61 61 62 60 52 51 49 48 47 47 45 44 42 42
32 29 37 46 51 54 38 43 52 53 54 53 52 55 58 58 58 58 58 58 59 59 60 61 60 61 61 60 59 61 57 54 53 53 52 50 48 46 44 42 39 37 35 36
33 30 29 50 50 45 51 53 52 56 56 54 55 55 58 58 57 58 57 56 56 55 52 55 59 60 57 55 53 54 53 51 50 50 48 47 45 42 40 38 34 33 32 31
39 40 49 51 51 55 55 53 54 55 58 59 56 57 56 58 58 58 58 56 54 52 49 51 54 56 51 50 52 50 49 47 45 44 43 43 40 38 36 36 34 32 31 30
40 47 48 50 53 50 50 48 51 53 55 57 55 56 57 57 58 58 58 55 54 51 49 48 50 52 51 50 49 47 44 43 42 40 38 38 38 37 35 34 33 32 30 28
41 47 46 52 47 46 46 49 49 50 54 55 55 56 56 55 55 55 54 53 52 50 47 46 47 47 48 48 47 43 41 39 37 36 35 32 32 34 33 33 34 33 31 29
40 39 39 42 46 46 44 44 46 44 43 45 43 45 47 43 45 46 48 49 48 45 44 42 42 43 44 46 45 41 37 37 35 34 33 33 32 30 32 31 32 31 30 29
39 43 43 43 46 44 41 42 43 41 39 38 39 39 39 37 37 37 39 38 37 39 37 37 36 34 37 39 41 39 36 35 34 33 32 31 30 29 26 29 31 31 30 30
42 40 41 43 40 41 40 40 40 38 37 34 34 35 34 34 34 33 32 33 34 33 34 34 32 31 32 34 33 32 31 31 30 29 29 28 28 28 27 26 25 26 29 29
36 38 37 41 41 38 37 37 35 31 31 31 31 30 31 29 28 28 31 31 31 31 30 31 30 29 32 32 32 30 30 29 29 29 28 28 28 27 27 26 27 26 27 28
35 37 38 36 36 34 34 31 31 29 30 30 29 28 28 28 26 26 26 27 25 24 26 26 26 28 30 30 30 29 28 28 28 27 27 27 28 28 28 27 27 27 26 24
30 31 30 30 31 29 28 28 28 28 28 27 27 28 27 25 25 23 23 24 23 22 23 24 23 25 26 26 25 25 24 24 25 25 26 26 26 26 26 25 24 23 23 22
31 31 29 29 28 28 26 26 26 26 24 24 23 22 21 20 19 20 21 21 21 19 21 22 23 23 23 23 24 24 24 24 23 22 23 23 23 23 23 22 22 21 21 20
28 27 27 27 26 25 25 24 23 23 22 21 19 17 18 18 19 19 19 18 18 17 18 21 22 21 21 22 23 23 22 22 21 21 21 20 20 20 19 19 18 18 18 17
25 25 25 24 24 23 22 22 21 20 20 19 18 17 16 17 17 17 16 14 16 17 19 19 19 19 19 19 20 21 20 19 18 16 16 16 15 15 15 15 15 15 15 15
21 21 20 20 20 20 20 19 18 17 17 17 16 14 14 15 16 17 15 13 15 17 17 16 17 17 17 17 18 17 16 15 14 13 13 12 12 12 11 11 11 11 11 11
21 20 19 19 19 18 19 19 19 17 17 17 16 16 15 14 13 12 13 12 14 14 15 15 14 13 14 14 14 13 13 12 11 11 10 9 9 8 7 7 7 7 7 7
21 20 20 19 18 18 18 18 17 16 15 15 14 13 12 12 13 11 8 12 14 12 13 11 10 10 10 11 10 9 9 8 7 7 6 6 6 6 5 5 5 5 5 5
20 20 19 19 19 18 16 17 17 17 16 15 14 15 14 11 11 13 13 10 8 8 9 8 7 7 8 8 7 6 6 5 5 5 3 2 3 3 3 2 2 3 2 1
17 17 18 17 16 16 16 16 15 14 14 13 13 13 13 13 10 10 10 8 7 7 6 2 2 3 5 5 4 3 3 3 3 3 2 1 1 0 1 0 -1 -1 -2 -2
16 15 14 14 15 15 15 15 13 14 13 9 8 8 8 8 8 7 5 4 3 2 2 2 2 3 3 2 2 2 3 3 2 1 0 0 -0 -0 -2 -3 -4 -4 -5 -5
15 15 14 13 12 12 11 11 10 8 8 7 5 6 5 5 3 4 0 2 1 0 0 0 2 1 2 2 2 1 1 0 -4 -1 -1 -2 -3 -4 -6 -6 -6 -6 -6 -7

GFSNGP_sfc_temp_078.txt.gz
Temp
47 49 50 49 49 51 49 51 45 51 53 60 65 68 70 72 74 76 78 79 80 78 79 77 75 74 74 72 70 70 70 69 69 68 69 69 68 69 69 69 69 70 68 69
45 51 52 49 53 54 54 55 54 55 54 66 69 71 70 70 70 71 74 77 79 80 81 78 76 75 74 73 71 70 69 69 70 70 69 68 69 68 69 68 69 69 69 69
39 47 49 41 49 53 56 59 57 52 59 64 64 66 69 71 72 72 71 75 77 78 77 78 80 77 75 74 73 70 69 70 70 70 69 68 69 69 67 67 67 67 67 67
39 38 30 51 59 60 57 59 62 61 62 62 64 67 70 73 72 71 72 73 76 79 77 78 79 80 78 78 74 71 70 71 71 69 69 69 69 68 67 67 66 66 66 67
35 38 45 51 55 54 52 53 58 57 60 63 65 68 68 68 68 67 68 71 72 77 76 76 77 79 80 78 76 72 71 71 71 70 69 69 68 67 67 66 64 64 62 60
36 33 31 47 56 60 60 47 60 59 59 60 63 55 62 68 68 69 71 71 69 67 70 73 75 76 75 76 74 72 71 72 73 71 69 68 67 66 59 60 56 48 44 45
35 34 42 54 59 60 43 46 59 61 61 60 58 60 64 67 68 71 72 70 67 67 65 67 69 71 70 72 72 75 74 72 71 69 66 63 60 54 50 45 42 38 36 37
36 32 31 56 56 48 54 59 59 60 60 58 61 63 63 65 67 68 69 70 67 64 61 60 63 65 68 70 70 66 64 62 62 62 55 53 49 45 43 40 37 35 34 33
45 45 55 55 56 58 56 54 56 56 59 59 59 62 64 63 65 67 69 69 65 62 56 54 56 59 60 55 59 59 57 53 50 49 46 46 44 41 39 39 36 34 33 31
45 53 56 56 58 56 56 54 57 57 56 58 56 61 62 64 64 63 66 64 65 61 55 49 51 50 52 51 53 49 45 43 42 41 40 39 39 39 38 35 34 32 31 29
49 54 54 58 54 53 53 55 54 54 53 52 51 54 54 55 55 55 57 58 58 56 50 47 46 45 46 47 48 44 42 40 38 37 35 33 33 35 35 35 36 33 31 30
45 48 46 49 53 49 50 51 51 49 49 49 48 48 48 48 48 48 49 47 45 43 42 42 41 40 40 43 43 40 37 36 35 34 34 33 31 30 32 32 32 32 31 29
44 47 47 51 52 49 48 48 48 47 46 44 45 45 44 42 38 39 42 40 38 36 36 36 35 38 35 36 37 36 34 35 34 34 32 31 30 29 27 29 31 30 30 30
41 41 43 42 38 44 45 45 45 44 42 40 41 42 40 38 37 34 33 34 35 34 33 33 32 30 33 34 34 32 32 31 31 31 30 29 29 28 28 27 25 26 29 30
38 40 39 40 40 37 38 37 37 34 33 34 35 33 34 31 29 28 30 31 31 30 29 29 28 28 31 32 31 31 31 30 30 29 29 29 28 28 27 27 27 26 27 28
37 41 39 36 35 35 34 32 31 30 30 29 30 30 28 28 27 26 26 26 25 23 25 25 26 27 29 29 29 28 27 28 28 28 28 28 28 28 28 28 28 27 27 27
31 33 33 34 33 33 31 31 31 29 28 26 26 27 26 25 24 23 22 23 22 22 23 24 23 26 26 26 28 27 26 27 27 28 27 27 27 27 27 26 25 24 23 25
33 33 32 31 31 29 29 29 28 26 24 23 23 22 21 20 20 20 21 21 21 19 20 22 23 24 25 26 27 27 27 25 25 24 25 24 24 25 25 25 24 22 22 23
31 29 29 29 29 28 27 26 24 22 22 21 20 19 20 20 20 20 20 20 20 19 19 22 22 22 23 24 26 25 24 23 23 22 23 23 23 23 23 22 22 22 22 21
28 29 28 26 27 27 24 24 23 22 22 21 20 19 19 19 19 18 18 16 17 17 19 21 21 21 21 22 22 23 22 21 20 19 19 20 20 19 19 19 20 20 20 19
23 23 22 22 21 21 21 21 20 19 19 19 17 15 15 15 18 19 18 17 16 17 18 17 19 20 21 22 22 20 20 20 19 18 18 18 18 18 17 17 17 17 17 17
22 21 20 20 20 19 20 20 19 18 18 18 18 18 17 16 15 14 15 16 17 17 18 18 17 15 18 18 19 18 18 17 17 17 16 16 15 14 15 15 14 14 15 14
22 21 21 19 19 18 19 18 18 18 16 15 14 14 14 15 17 16 12 15 17 16 17 15 13 13 14 16 16 15 14 13 13 13 13 13 13 12 12 11 12 12 11 11
21 21 20 21 20 19 16 17 17 17 16 16 15 17 18 16 15 18 17 13 12 12 11 11 11 11 13 14 13 13 13 13 12 12 11 10 11 10 10 9 9 10 9 8
20 20 20 20 19 18 18 18 17 17 17 16 16 16 16 17 14 14 14 12 11 13 11 8 9 10 12 11 11 11 10 10 10 10 10 9 9 9 9 8 7 6 6 7
19 18 17 17 18 19 19 21 18 18 17 14 14 14 14 14 14 13 11 10 11 10 11 10 10 11 11 10 10 9 10 10 9 8 8 8 8 7 6 5 5 5 4 4
19 19 19 18 18 18 19 19 17 15 15 14 12 13 13 12 11 11 10 11 10 10 10 10 9 8 9 10 9 9 10 9 3 7 7 7 6 6 4 3 4 4 3 2

GFSNGP_sfc_temp_081.txt.gz
Temp
51 53 53 52 53 56 54 55 48 53 56 63 67 69 72 74 75 75 76 79 83 84 84 83 81 80 80 79 76 75 74 74 73 73 73 72 72 72 72 72 72 72 72 72
45 52 54 51 55 56 56 56 57 57 57 69 72 73 71 72 73 73 75 78 80 82 84 84 83 81 80 79 78 76 74 74 74 74 72 71 72 71 71 71 72 72 71 71
40 50 49 43 52 54 56 60 59 52 60 67 65 67 68 69 71 73 75 77 77 79 81 84 86 83 81 80 80 77 75 74 74 74 72 71 72 72 71 70 70 69 70 70
40 43 32 52 63 62 59 62 64 63 65 67 67 69 71 72 69 68 70 72 73 76 77 81 83 85 84 84 80 77 75 75 75 75 74 74 72 71 70 70 69 69 69 69
36 39 47 54 58 57 56 58 63 62 64 66 67 69 69 71 71 70 72 74 75 77 77 76 77 80 82 82 81 78 75 75 76 76 74 74 72 70 71 70 68 67 68 67
40 34 32 50 61 65 63 49 63 62 61 62 64 57 64 70 71 71 73 75 75 75 75 75 75 75 77 79 81 79 77 76 77 77 74 72 72 71 71 69 67 64 61 53
37 36 45 55 61 63 44 46 59 62 61 61 58 62 66 70 71 74 74 74 75 73 71 68 69 70 69 72 73 78 82 79 76 76 72 73 72 72 69 60 49 43 40 38
38 32 32 61 60 50 53 59 61 61 61 59 61 64 66 69 70 72 73 74 74 70 66 61 62 63 66 69 66 66 70 76 74 74 73 68 68 58 52 46 40 35 34 33
46 46 58 60 53 59 60 58 59 59 60 60 59 60 64 66 69 70 71 70 69 69 64 56 53 52 53 54 59 61 60 55 52 49 48 48 48 45 42 41 38 34 33 31
43 54 55 53 56 59 59 58 59 60 59 59 55 58 59 62 62 62 65 63 61 56 50 47 46 46 45 47 49 47 45 43 42 41 40 40 40 40 39 37 35 33 31 29
51 53 58 59 57 54 57 58 57 58 57 55 55 54 54 57 55 55 57 55 53 46 42 40 41 40 42 44 45 42 40 38 36 35 34 32 32 33 34 34 34 32 30 29
44 49 50 54 54 53 54 53 53 53 52 54 53 51 52 52 49 47 47 45 45 40 37 36 36 36 36 40 40 38 35 34 33 32 32 32 31 29 32 32 32 32 31 30
43 48 50 52 48 46 46 50 51 50 50 48 49 49 48 46 43 40 40 37 36 34 34 33 32 32 34 36 37 36 34 33 32 32 31 30 30 29 27 29 31 31 31 31
46 46 46 46 40 42 42 44 45 43 40 39 39 41 43 41 37 36 33 32 32 31 30 30 29 28 31 33 33 33 32 32 31 30 29 29 28 28 27 26 25 26 30 30
43 44 43 43 43 44 44 43 41 36 35 34 33 32 31 31 29 28 29 30 29 28 27 27 27 27 29 30 29 30 31 30 30 29 29 28 28 28 27 27 26 26 27 28
42 45 43 40 40 41 41 40 38 35 35 34 30 29 28 26 24 24 25 25 24 23 25 24 25 27 29 29 29 28 28 29 29 29 29 29 29 29 28 27 26 26 25 25
36 35 36 35 35 35 35 34 33 32 32 31 29 30 28 26 24 23 22 23 22 22 23 23 23 26 28 29 28 28 28 28 28 28 28 28 28 26 26 25 23 23 23 25
37 36 34 33 32 32 32 31 30 29 26 26 25 24 22 22 21 22 23 24 23 22 23 23 24 25 27 27 27 27 26 27 27 27 26 26 26 26 25 24 23 22 22 23
34 32 31 30 30 30 29 27 26 26 24 23 21 19 20 19 20 19 21 21 21 20 21 24 24 24 25 26 28 27 25 24 24 24 23 23 23 23 22 22 21 21 21 20
29 29 29 28 28 28 25 26 25 24 24 23 21 20 19 19 20 19 18 16 18 19 20 22 23 23 23 25 27 27 24 23 22 22 22 22 21 21 21 21 21 20 20 19
25 24 23 23 22 23 22 22 21 20 20 20 18 16 16 16 16 20 19 16 17 20 21 20 21 24 24 25 26 24 22 22 21 21 20 19 19 19 19 19 19 19 19 18
23 22 21 21 20 20 21 21 20 19 19 19 19 20 19 18 17 15 16 17 19 19 20 19 19 18 21 21 22 20 20 20 19 19 19 19 18 17 17 17 17 17 17 16
23 23 21 20 19 19 19 19 18 18 17 17 16 16 16 17 18 16 12 16 18 17 18 16 16 16 18 19 19 18 18 17 17 16 16 16 16 15 14 14 15 14 13 14
23 23 22 22 22 20 18 18 19 18 17 17 16 18 20 18 16 19 18 16 14 13 12 13 14 15 16 17 16 16 16 16 16 16 15 14 15 14 13 12 12 13 12 11
23 23 23 22 21 20 20 20 19 19 20 19 18 18 18 18 15 15 16 15 15 16 15 13 13 14 15 15 15 14 13 12 13 14 14 13 12 12 12 11 10 9 10 10
23 22 22 21 22 23 23 23 21 21 20 17 17 17 17 18 17 17 15 14 15 14 15 13 12 15 14 14 13 13 13 13 13 12 12 12 11 11 9 9 9 9 9 8
23 23 23 22 23 23 24 23 21 19 19 18 16 17 17 16 15 16 15 15 15 15 15 14 14 12 13 14 13 14 14 13 6 9 11 10 10 10 8 7 8 7 7 6

GFSNGP_sfc_temp_084.txt.gz
Temp
48 45 45 46 44 45 50 49 43 48 50 54 60 65 70 72 73 73 74 76 77 78 77 79 77 77 77 75 72 71 70 70 69 68 68 68 67 66 67 67 67 67 65 65
43 51 51 48 49 52 48 49 54 54 54 61 65 71 70 70 71 70 71 71 72 74 75 76 76 77 77 76 74 72 70 69 71 70 69 67 67 67 66 66 66 66 65 65
37 48 47 40 49 53 55 58 57 50 58 66 65 66 66 67 66 66 67 69 70 71 72 73 73 74 76 77 76 73 71 71 71 71 69 68 67 67 66 65 65 64 64 65
36 41 29 49 60 60 56 59 61 62 57 63 65 68 68 67 65 65 67 68 69 70 70 71 72 73 74 78 76 74 73 72 72 71 70 69 68 66 65 65 64 64 64 64
34 36 44 50 57 56 54 54 61 58 58 61 65 65 60 66 66 66 67 68 69 70 70 68 67 68 69 70 74 76 74 73 73 71 70 69 67 66 66 65 64 64 64 63
38 31 29 48 59 64 63 45 58 60 57 59 61 50 55 65 68 69 71 72 71 70 67 63 62 63 65 68 69 70 72 74 74 73 71 69 68 67 66 66 65 64 62 53
35 33 42 56 60 62 43 43 57 59 57 57 54 57 62 66 68 71 71 71 69 68 60 56 55 56 60 59 56 61 65 65 68 73 71 70 68 67 65 64 54 44 38 38
36 33 30 60 58 48 51 56 57 57 57 56 58 59 61 63 64 64 65 66 64 61 55 51 49 48 49 47 51 54 57 54 53 53 56 61 61 51 49 45 40 36 34 33
42 42 56 57 54 58 58 56 56 56 57 57 55 56 58 59 60 60 60 58 57 54 51 47 45 43 41 43 47 47 45 44 43 44 44 44 47 45 42 41 37 34 33 31
44 46 47 47 53 57 58 55 56 57 56 55 53 54 53 56 53 54 54 50 50 46 42 39 40 40 38 41 44 42 39 38 37 35 35 35 37 37 37 36 35 33 32 30
46 47 45 45 49 51 54 54 53 55 54 52 51 51 51 51 47 47 46 44 43 39 37 35 36 36 37 39 41 39 37 35 34 33 32 31 30 31 32 32 34 33 31 30
37 44 42 41 48 51 50 50 50 50 49 50 48 47 48 47 42 41 39 38 36 34 33 33 33 32 34 37 38 36 34 33 32 32 31 31 29 29 31 31 31 31 31 30
41 47 49 49 45 47 45 46 46 45 43 40 41 42 42 40 37 36 35 33 31 30 30 30 30 29 31 34 35 33 32 32 31 31 30 30 29 28 26 29 31 31 32 31
46 46 45 44 39 45 46 46 46 44 41 38 37 37 35 33 31 29 28 29 29 29 28 29 28 27 29 31 32 31 30 29 29 28 28 28 27 27 27 25 25 26 29 29
42 46 44 45 45 44 45 44 42 38 36 34 34 31 31 27 25 24 25 27 27 26 26 27 27 27 29 30 30 29 30 29 29 28 28 28 27 27 26 25 25 24 26 27
41 45 41 40 39 39 38 36 34 33 33 32 30 29 28 27 25 25 25 24 22 21 23 24 25 27 29 30 29 29 28 29 29 29 29 28 27 26 25 24 24 24 25 24
34 32 33 32 33 33 32 32 31 29 28 27 27 28 27 26 26 25 24 24 23 22 23 23 24 26 28 28 27 27 27 26 27 27 26 25 24 22 22 22 21 21 21 22
35 33 32 31 30 30 29 29 28 27 25 24 24 23 20 20 20 20 20 21 20 19 21 22 23 24 26 26 26 26 25 24 24 23 24 23 23 23 22 21 20 19 19 20
32 30 29 29 29 28 27 25 25 25 23 22 20 18 18 18 18 17 17 16 15 14 16 21 23 22 23 25 25 25 23 23 22 22 21 21 21 21 20 19 18 18 18 17
27 27 27 25 26 26 23 24 23 21 22 20 18 17 15 17 19 17 16 14 15 16 17 17 20 21 23 23 24 24 23 22 21 20 20 20 19 19 19 19 18 17 17 16
23 23 21 21 20 21 21 20 19 18 18 19 17 16 15 15 15 16 15 13 15 18 18 18 18 21 22 22 22 21 20 19 19 18 18 17 16 16 16 16 15 15 15 14
22 21 20 19 19 18 19 19 18 18 17 16 16 17 17 16 15 13 13 14 17 17 17 17 18 18 20 20 20 18 18 17 17 16 15 15 14 14 13 13 13 13 12 12
22 21 20 19 18 17 18 18 17 17 16 16 17 16 15 16 16 13 9 14 15 15 15 14 15 16 17 17 17 17 15 14 14 14 13 13 13 11 11 11 11 10 7 10
22 22 21 21 21 20 17 18 18 18 17 16 16 15 18 15 15 17 17 15 13 13 13 13 14 15 15 15 13 12 13 13 13 13 13 11 11 11 9 8 8 9 7 6
23 23 22 21 21 19 19 20 20 19 19 18 18 18 17 17 13 14 15 15 15 15 13 12 13 13 13 13 13 13 11 9 10 11 10 10 9 8 8 7 4 4 5 6
24 22 22 22 23 23 23 23 21 21 20 17 16 16 16 17 17 16 15 15 15 14 14 12 11 12 13 12 12 12 10 8 10 9 9 9 8 8 5 4 5 5 4 3
24 23 23 22 23 22 22 22 20 18 18 17 15 17 17 16 15 15 14 15 14 14 14 14 12 10 11 11 11 11 11 8 3 6 8 8 7 6 4 3 4 3 2 2

GFSNGP_sfc_temp_087.txt.gz
Temp
44 47 40 38 38 41 39 42 36 44 43 49 51 54 59 65 65 64 65 66 67 67 65 65 63 64 68 66 65 66 65 63 60 61 62 62 62 62 63 63 62 62 61 61
38 47 48 41 45 44 42 42 44 45 44 53 59 61 61 61 61 61 63 64 66 66 67 66 66 65 65 66 66 66 66 65 65 63 62 62 62 62 62 62 62 63 62 61
33 43 43 36 45 45 46 48 48 39 47 59 57 56 57 56 60 60 61 62 63 63 62 61 60 62 61 63 65 66 65 66 66 64 63 63 63 63 62 61 62 61 62 63
30 35 26 45 56 56 52 53 55 51 52 54 56 58 58 58 58 60 62 62 61 59 58 57 57 57 60 64 64 63 64 66 66 66 64 64 64 63 63 62 61 61 61 61
27 30 39 46 52 52 49 47 52 50 52 55 58 57 54 59 61 61 62 61 57 56 54 53 52 53 58 55 55 56 58 58 61 65 65 64 63 63 63 62 61 61 62 62
29 27 23 42 55 59 57 38 53 53 51 52 53 41 47 58 59 59 56 55 54 52 50 48 48 51 51 50 51 52 55 55 54 52 60 64 63 63 63 63 62 63 61 60
29 27 35 51 56 59 39 37 50 52 51 51 48 49 54 58 57 56 54 52 54 49 45 44 46 48 47 47 45 49 51 49 48 47 48 50 55 61 60 60 59 54 44 38
30 26 26 53 54 43 45 51 52 50 50 49 51 52 53 52 52 50 48 47 47 44 43 43 43 42 42 40 44 47 45 43 42 41 41 44 43 46 47 48 44 37 35 33
35 34 43 47 47 49 53 49 50 48 50 50 49 49 50 47 47 46 43 42 43 41 40 39 39 39 37 39 42 43 41 39 38 37 35 36 36 37 39 41 40 38 37 34
38 41 42 43 47 51 50 48 50 50 48 48 46 47 46 44 43 40 39 38 39 38 36 34 36 36 35 38 41 40 37 35 35 33 32 32 33 33 31 33 35 34 32 30
39 40 41 42 43 47 49 49 49 49 46 43 44 44 43 39 38 37 36 36 36 34 32 32 33 33 34 36 38 37 35 35 33 31 32 30 30 30 30 31 32 31 29 30
31 36 39 38 42 47 44 44 44 41 40 40 39 39 42 37 36 35 33 32 31 30 30 30 30 31 32 35 36 35 32 32 31 31 30 30 30 29 32 31 32 32 32 31
34 39 42 42 43 45 43 43 41 38 37 35 35 34 33 30 30 31 30 29 28 28 28 29 29 29 30 32 33 31 30 30 30 30 29 29 28 27 25 29 31 31 31 32
43 43 39 41 39 42 42 43 41 38 36 33 32 31 28 26 25 25 25 26 27 27 27 28 28 27 29 30 31 30 29 29 28 28 27 27 27 26 26 25 24 25 29 30
39 39 38 39 39 38 37 36 34 32 32 30 30 27 26 24 23 23 25 26 26 25 25 26 26 26 28 29 28 29 29 28 28 28 27 27 26 26 25 25 24 23 23 23
37 36 35 33 33 34 33 31 29 27 28 28 26 25 24 23 22 22 22 23 21 20 21 22 23 25 27 27 27 27 27 27 26 25 25 24 23 22 22 22 21 21 20 20
28 27 28 28 29 28 27 27 26 25 25 23 23 25 24 23 21 20 19 20 19 19 20 21 22 24 25 25 24 23 23 23 24 24 23 22 22 21 21 20 19 19 18 19
30 28 27 28 26 25 24 24 23 23 20 20 20 18 16 15 14 15 16 16 16 16 17 19 21 22 23 23 23 23 22 21 21 21 21 20 20 20 19 18 17 16 16 17
27 25 24 25 25 24 23 22 21 21 20 18 17 15 15 14 14 14 14 14 13 12 14 18 21 21 20 22 22 21 20 20 20 20 19 19 18 18 17 16 15 15 14 13
23 23 23 22 23 22 20 20 19 18 18 16 15 13 11 14 14 13 13 11 12 14 16 17 19 18 19 20 21 20 19 18 18 17 17 16 15 14 14 13 13 11 10 11
18 17 16 16 15 16 16 16 16 15 16 15 13 11 11 11 11 13 11 9 12 15 16 17 17 19 19 19 19 18 16 16 15 14 14 12 12 11 11 10 9 9 9 9
14 14 11 11 13 14 14 15 16 15 15 14 14 13 13 12 11 10 11 11 13 14 14 14 16 15 16 17 16 14 14 13 12 12 10 9 8 7 6 5 2 5 6 -2
16 16 16 14 13 13 14 14 13 13 12 11 13 13 12 13 12 9 7 12 14 13 13 13 14 14 12 12 11 11 11 9 8 8 6 3 4 2 4 5 -1 -3 -2 -3
15 15 14 16 16 17 13 13 15 14 12 14 13 12 15 11 11 14 14 12 11 11 10 12 12 11 10 10 8 6 6 7 5 2 3 0 4 0 -3 -6 -4 -3 -3 -0
17 18 17 17 17 16 16 16 17 17 16 16 15 16 15 15 10 12 12 12 14 10 9 9 10 8 6 5 5 4 2 -2 -0 -1 -2 -4 -6 -7 -7 -8 -10 -4 -3 -8
20 19 19 20 20 20 20 20 17 17 15 12 12 8 9 12 13 12 8 9 9 9 7 3 4 4 6 5 4 4 0 -0 -3 -1 -5 -6 0 -7 -11 -6 -6 -8 -11 -13
20 20 19 19 20 19 17 16 14 12 12 8 8 10 10 8 8 9 6 3 2 3 3 2 -3 -2 -3 -4 -3 -2 0 -3 -5 -6 -8 -10 -8 -8 -13 -13 -13 -13 -11 -12

GFSNGP_sfc_temp_090.txt.gz
Temp
41 43 41 40 39 40 37 38 35 40 42 48 49 48 51 54 60 61 61 62 62 60 59 60 59 60 61 61 60 60 59 59 59 60 61 61 60 61 60 59 58 58 58 58
35 44 43 41 42 42 40 40 41 41 42 51 52 53 50 52 57 59 60 60 59 59 58 57 57 58 59 62 60 60 60 59 60 60 60 60 60 60 60 60 60 59 58 57
30 41 40 34 42 42 45 44 42 36 44 52 51 52 51 53 57 58 59 57 56 55 54 53 53 55 55 57 58 60 61 60 61 60 59 59 60 60 59 59 60 59 58 58
28 33 25 43 52 52 45 48 49 50 50 53 51 52 54 54 54 54 53 51 50 50 49 49 51 52 52 53 54 55 56 58 58 60 60 60 60 59 59 59 59 59 59 60
26 27 36 43 50 48 44 43 50 48 51 50 50 52 49 52 51 49 49 48 47 47 46 46 46 49 51 50 51 51 51 51 52 52 54 56 59 60 60 60 59 59 60 59
26 25 21 39 51 56 53 35 51 50 48 49 51 39 43 49 49 47 48 47 44 44 44 43 43 46 47 46 46 46 47 47 48 47 49 48 49 54 61 61 60 60 59 60
27 24 32 46 48 54 37 36 49 49 48 47 44 45 48 48 46 46 44 44 44 43 40 40 42 44 42 42 41 45 46 44 44 43 44 44 45 45 46 50 58 57 54 40
27 27 24 45 49 38 42 48 48 48 47 45 47 46 45 44 42 41 39 40 41 40 39 39 39 39 39 37 41 44 42 40 39 38 39 40 40 40 40 42 41 40 36 34
33 32 42 45 43 47 48 45 45 45 47 46 44 42 42 40 38 37 37 37 39 38 37 36 36 36 34 35 39 41 39 36 34 33 33 34 34 34 37 39 37 34 33 31
37 39 40 42 44 46 46 44 45 44 44 45 42 41 39 38 36 35 34 34 36 35 33 32 33 33 33 35 38 38 36 33 32 32 31 31 32 32 31 33 33 33 33 31
37 39 39 40 41 43 44 44 42 40 38 37 38 37 36 33 33 33 32 33 33 31 30 30 31 31 33 34 36 35 34 33 31 31 31 30 30 30 30 31 31 30 29 30
30 34 36 35 39 41 39 38 38 37 34 33 34 32 32 30 30 30 29 30 29 29 29 29 30 30 31 33 33 33 31 31 30 30 29 30 29 29 32 32 33 32 32 30
33 35 36 38 40 41 40 38 37 34 33 30 30 30 29 26 26 28 27 27 26 27 28 28 28 28 30 31 32 30 29 29 29 29 29 28 28 27 25 28 30 31 31 31
33 38 35 36 34 38 39 38 36 33 32 30 28 27 26 25 25 24 24 25 26 26 26 27 27 26 28 30 30 29 28 28 27 27 26 26 26 25 23 21 19 20 26 27
33 34 33 36 36 34 35 35 31 29 28 27 27 25 25 23 22 21 23 24 24 23 22 24 24 24 26 27 27 26 26 26 26 25 25 24 24 23 22 21 19 19 20 21
32 32 32 30 30 30 29 28 27 26 27 26 24 23 22 22 20 19 19 19 18 17 19 19 21 23 25 24 24 24 24 24 23 23 22 22 21 20 19 18 17 16 16 16
27 25 27 27 26 25 25 25 25 24 23 21 23 22 21 20 18 17 16 17 16 15 18 19 19 22 22 21 21 20 21 21 22 22 21 20 19 18 18 17 16 15 15 16
26 25 26 26 25 24 23 23 23 22 20 19 18 15 14 13 13 13 13 14 14 14 15 17 19 20 21 21 21 21 21 20 20 19 19 18 18 18 17 16 15 14 13 13
24 23 24 24 23 23 22 21 19 19 17 16 14 12 12 12 12 12 12 11 11 11 12 16 20 18 18 21 20 20 19 18 18 18 18 17 16 16 14 13 12 11 11 10
21 22 22 21 22 22 19 19 18 15 15 13 12 11 10 10 11 10 10 9 10 12 14 16 17 17 17 18 19 18 17 16 16 15 14 14 13 12 12 12 11 9 8 8
14 15 14 14 13 13 12 13 12 12 12 11 10 8 8 9 10 10 9 8 10 13 15 15 15 15 16 16 16 14 13 13 12 11 10 9 9 8 7 6 6 6 4 6
9 10 7 8 11 12 12 12 12 11 11 10 10 8 8 8 7 8 10 10 12 13 14 14 14 12 13 13 13 12 12 11 10 9 7 6 6 4 2 3 2 1 -1 -4
11 11 10 7 6 7 7 8 6 8 8 8 8 8 9 10 10 8 6 12 13 12 13 12 12 11 10 9 9 9 8 7 6 5 3 1 -3 -4 -4 -5 -6 -5 -7 -7
9 10 8 9 10 13 9 8 12 11 10 12 10 10 12 9 10 13 12 10 9 8 9 10 10 10 9 7 6 4 3 3 0 -0 0 -4 -8 -12 -12 -12 -7 -10 -11 -11
11 10 11 10 12 10 12 15 15 15 15 14 14 14 14 14 7 10 10 9 11 7 5 6 7 6 2 2 1 1 1 -0 -2 -3 -5 -8 -10 -12 -13 -9 -11 -14 -17 -17
16 17 17 18 17 17 17 18 15 14 13 9 9 4 5 8 10 10 8 8 8 6 3 -1 -2 0 -0 -1 -4 -5 -5 -3 -5 -5 -7 -7 -11 -13 -13 -13 -14 -14 -17 -19
16 19 18 17 18 17 16 15 12 10 8 3 5 6 6 4 6 7 1 -2 -1 2 2 -2 -5 -4 -6 -10 -9 -8 -8 -11 -10 -11 -16 -14 -13 -17 -17 -18 -19 -19 -19 -19

GFSNGP_sfc_temp_093.txt.gz
Temp
38 40 40 39 39 41 38 37 33 37 41 45 48 47 48 50 52 55 57 56 56 54 54 55 55 57 58 58 58 58 57 57 56 57 57 57 56 56 56 56 56 56 55 56
32 39 39 36 41 42 42 41 40 39 38 51 51 50 49 49 50 52 54 52 52 51 51 51 53 52 53 55 56 59 58 57 58 57 57 57 57 57 56 56 56 56 55 55
28 36 36 31 39 42 43 45 42 36 45 51 49 49 48 49 49 50 49 48 48 47 47 48 49 50 49 51 54 56 58 59 59 58 57 58 59 58 58 58 57 56 56 56
26 31 20 39 49 46 44 43 45 46 47 47 47 47 47 49 47 45 45 45 45 45 44 44 48 50 50 51 51 51 50 51 51 52 54 58 58 58 58 58 58 58 58 58
24 25 33 39 45 43 40 42 48 46 47 47 47 46 42 45 45 44 43 43 43 43 43 43 45 48 48 48 48 48 47 47 47 47 49 50 50 53 58 58 58 58 59 58
25 23 18 36 45 50 48 34 47 47 47 47 50 38 38 43 42 41 42 43 41 42 40 39 40 43 45 44 44 43 43 43 43 43 44 43 44 46 48 50 56 59 58 58
26 26 30 43 43 49 33 33 46 47 46 44 40 42 42 43 41 41 41 40 42 40 37 36 37 40 40 40 40 43 42 40 39 39 41 39 40 41 42 44 45 41 38 35
27 26 22 42 43 36 41 43 45 44 44 42 42 42 41 40 38 37 36 38 40 38 36 36 36 37 36 36 40 41 39 35 34 34 35 36 35 35 38 39 37 35 34 32
31 30 41 43 41 43 43 40 40 42 44 44 41 39 38 36 35 35 36 36 37 36 35 34 34 34 33 34 39 39 36 33 33 33 33 33 32 32 32 34 34 33 33 32
34 39 39 40 41 42 41 38 38 39 39 41 38 37 35 34 33 32 34 33 34 33 32 31 32 33 33 34 38 36 34 32 32 31 31 31 32 32 30 30 30 30 30 29
34 36 38 37 39 38 36 39 37 35 34 34 35 32 31 30 30 30 29 31 31 30 30 29 31 31 32 33 35 34 33 32 31 31 30 30 30 30 30 31 30 28 28 27
28 32 35 34 36 38 35 33 35 34 32 31 31 29 29 27 28 27 27 28 28 28 29 29 29 29 31 32 33 32 30 30 29 29 29 29 28 27 30 30 31 32 32 31
32 34 33 34 36 37 35 34 34 32 31 28 28 27 27 25 26 26 26 25 25 25 26 27 27 27 29 30 31 30 29 29 29 29 28 27 26 25 22 24 28 29 29 30
32 35 32 32 30 36 36 34 33 30 29 27 26 27 26 25 24 23 23 24 24 23 24 24 24 23 25 27 27 27 27 26 26 25 25 25 23 22 20 18 17 17 23 26
30 33 32 33 32 31 31 32 29 27 26 24 25 24 23 21 19 19 20 23 22 21 20 21 21 21 23 24 23 23 23 23 23 23 22 22 20 19 18 17 16 16 17 18
30 30 30 29 27 26 27 26 26 25 25 24 23 22 21 20 18 18 18 18 16 15 18 17 19 21 22 22 21 21 21 22 21 21 20 20 19 18 17 16 15 14 13 14
27 24 26 26 24 24 23 24 23 22 22 21 21 21 20 18 17 16 15 16 15 14 16 17 16 20 21 19 18 18 19 19 19 19 18 18 17 16 16 15 13 12 11 13
25 25 25 25 24 23 22 23 22 20 18 17 16 13 11 10 11 11 12 13 13 12 13 15 18 17 19 18 17 17 17 17 17 17 17 16 16 16 14 14 13 11 10 10
24 23 23 23 23 22 20 18 17 17 15 14 12 10 10 9 10 10 10 8 8 9 11 14 19 16 15 19 18 17 16 15 15 15 15 14 13 14 12 11 10 9 8 7
21 22 21 20 21 21 18 18 16 14 13 12 10 8 8 8 8 8 9 8 9 10 13 13 15 14 14 15 16 15 14 13 13 11 11 11 9 9 10 10 9 7 5 3
13 13 13 13 11 11 9 6 6 6 5 4 5 4 5 6 7 7 7 7 9 11 13 13 12 13 14 13 13 11 11 10 9 7 7 6 5 5 5 5 4 3 3 2
8 8 3 5 7 7 7 5 7 4 3 2 -0 -1 0 2 2 5 7 8 11 11 12 12 11 9 10 11 11 9 9 8 7 6 5 4 2 -0 -1 -0 -1 -3 -4 -6
6 7 7 4 5 4 6 6 3 4 3 3 1 1 4 7 6 3 4 10 12 11 11 10 9 8 7 7 7 6 5 4 4 2 0 -3 -3 -4 -4 -5 -7 -7 -10 -10
6 7 5 6 7 12 9 10 11 10 5 9 7 6 10 5 6 12 12 8 5 6 7 8 7 7 4 4 3 2 0 -2 -2 -3 -3 -6 -10 -9 -7 -10 -8 -12 -13 -13
9 7 8 8 10 10 13 13 14 14 13 13 12 13 13 13 4 7 7 7 8 5 3 3 3 1 -1 -2 -3 -4 -5 -7 -8 -8 -9 -11 -12 -12 -14 -13 -14 -14 -15 -16
15 14 14 15 15 15 15 16 14 13 11 6 6 -1 1 5 8 7 6 5 5 3 1 -5 -5 -5 -5 -4 -7 -8 -7 -4 -8 -11 -13 -15 -16 -16 -17 -16 -17 -17 -20 -22
15 17 16 16 16 15 15 14 12 11 8 -1 -2 -3 -0 -3 -2 1 -5 -8 -8 -7 -5 -8 -10 -8 -10 -13 -11 -12 -13 -14 -15 -15 -20 -19 -19 -20 -21 -21 -22 -22 -20 -17

GFSNGP_sfc_temp_096.txt.gz
Temp
36 38 38 36 36 38 37 37 32 35 36 43 47 47 49 51 51 51 48 49 49 49 50 51 52 54 57 57 57 57 56 57 57 57 57 55 53 53 53 52 53 53 53 53
32 38 37 34 37 38 39 39 39 39 39 50 51 50 49 49 50 47 46 45 46 45 47 48 49 50 52 53 54 57 57 56 56 57 57 57 56 54 53 53 53 52 52 53
28 33 33 28 34 37 39 41 39 34 42 49 49 48 48 48 47 44 43 43 43 43 43 45 48 48 48 50 52 52 52 52 53 55 57 57 57 56 55 54 53 53 53 53
26 30 18 35 44 44 41 43 44 45 46 46 43 42 43 44 43 41 41 41 40 40 41 42 45 48 48 49 48 48 47 47 47 48 50 51 53 55 57 57 56 55 55 55
24 25 31 35 40 39 37 39 46 45 45 44 44 44 39 41 41 40 40 40 39 39 39 40 41 46 46 46 45 44 43 42 43 44 44 44 45 45 48 48 54 57 57 57
25 22 16 33 41 44 44 32 43 46 44 44 44 37 35 39 39 39 40 40 38 38 38 37 38 43 43 42 42 40 39 39 40 41 40 39 40 41 43 45 45 47 41 36
25 26 29 38 40 44 30 32 42 44 45 44 36 36 36 37 36 38 39 39 41 38 35 35 37 40 38 39 39 39 37 36 36 36 37 36 38 39 39 40 39 36 34 33
28 24 21 40 40 33 38 39 40 41 41 39 38 36 34 33 35 36 35 37 37 36 34 35 35 36 35 34 39 39 36 34 34 34 35 35 34 35 35 37 35 34 33 31
31 30 39 41 39 41 41 37 36 37 37 37 34 32 32 33 33 34 34 34 35 34 34 33 34 33 32 33 38 37 35 32 32 32 33 33 31 31 32 32 32 31 30 29
32 36 37 38 38 38 37 34 34 34 35 37 33 33 31 31 30 29 31 31 33 32 30 30 32 32 32 33 37 35 33 32 32 31 30 30 32 31 30 30 29 28 27 26
32 33 35 35 36 35 34 35 33 31 30 30 30 28 29 28 27 27 27 29 29 28 28 28 30 30 31 32 34 33 32 31 30 30 29 28 28 28 29 30 30 29 28 29
26 31 32 32 34 34 32 30 30 29 28 29 29 27 28 26 26 26 25 26 26 26 26 26 27 27 28 31 32 31 30 30 29 29 29 28 26 24 28 29 31 31 31 29
29 33 32 32 32 33 30 30 30 28 27 25 26 26 26 24 25 25 24 23 23 23 24 24 24 24 25 27 29 29 28 28 28 28 27 25 24 22 18 22 26 28 29 29
31 32 31 29 27 31 32 31 30 27 26 26 25 25 24 23 22 21 20 22 23 22 22 22 22 21 23 25 25 23 22 23 23 23 22 21 19 17 17 15 14 15 22 24
29 32 31 30 29 28 29 29 27 26 25 23 24 22 21 19 18 18 19 21 21 20 19 19 19 19 22 23 22 21 22 21 20 20 20 19 18 17 16 16 14 14 16 16
30 29 28 26 25 25 25 25 24 23 24 22 21 20 19 19 17 16 17 17 15 14 16 16 17 19 21 21 21 20 20 20 19 19 18 17 16 15 14 12 11 10 10 10
25 23 25 25 23 22 22 23 22 21 20 19 18 19 18 17 16 15 14 15 14 14 15 16 15 17 19 18 18 17 17 18 18 17 17 16 16 14 13 11 8 7 6 9
24 25 25 24 23 22 20 20 19 18 16 16 14 11 10 10 10 10 10 12 12 12 12 14 17 15 16 17 16 16 16 16 16 15 15 14 14 13 10 9 8 7 7 8
23 22 23 23 22 20 18 16 16 15 14 12 8 5 5 5 6 5 6 7 8 8 10 12 17 14 14 17 16 16 15 14 14 14 14 12 11 11 9 7 5 4 5 4
20 21 20 18 18 19 16 15 14 11 9 7 1 1 0 -1 -1 -1 0 5 7 6 8 10 12 12 12 13 13 13 11 11 12 10 9 8 6 5 6 5 4 1 -1 -0
12 13 12 11 9 8 5 3 4 3 -1 0 2 -2 -2 1 2 1 3 5 7 8 11 11 10 11 12 11 11 8 7 7 6 6 5 3 3 3 2 0 0 -2 -2 -2
6 6 2 3 5 5 4 1 3 -1 -0 -3 -6 -7 -5 -2 -2 0 1 6 9 6 8 10 9 6 8 9 9 7 7 6 5 5 3 2 0 -2 -3 -3 -4 -5 -7 -8
3 5 5 2 3 2 2 1 -2 -2 -3 -5 -5 -4 -0 3 2 -0 0 7 10 8 10 7 6 5 5 5 4 3 3 2 1 -0 -2 -3 -4 -6 -5 -7 -8 -7 -10 -9
4 5 3 4 5 9 6 3 5 3 -1 3 0 -3 6 -1 0 10 8 5 3 4 3 5 4 3 2 0 -1 -2 -3 -5 -6 -6 -5 -8 -12 -10 -10 -12 -11 -13 -13 -12
7 5 5 5 7 6 8 8 9 9 10 10 9 11 10 10 -0 3 1 2 6 3 1 0 0 -2 -4 -5 -6 -7 -8 -10 -10 -9 -11 -12 -14 -15 -15 -13 -15 -16 -18 -18
10 10 10 11 13 14 14 14 12 11 9 3 2 -7 -5 -2 2 1 -0 -1 0 -1 -5 -10 -10 -8 -8 -7 -9 -10 -9 -7 -12 -13 -15 -16 -17 -16 -18 -18 -19 -20 -21 -21
14 14 14 15 15 15 14 14 12 9 8 -2 -3 -6 -3 -6 -8 -3 -10 -13 -13 -11 -12 -14 -14 -12 -13 -16 -15 -15 -16 -17 -18 -16 -22 -22 -22 -22 -23 -23 -23 -23 -23 -23

GFSNGP_sfc_temp_099.txt.gz
Temp
39 40 40 39 39 40 38 39 33 40 41 47 48 50 51 51 50 46 45 44 44 44 46 47 49 50 52 56 59 59 59 59 58 60 59 59 60 60 60 59 60 62 61 61
35 40 40 37 40 41 41 41 41 42 41 53 54 53 49 49 47 44 43 43 43 43 43 45 46 47 48 49 54 58 58 57 58 58 58 57 58 60 59 59 60 60 59 60
30 36 37 32 37 41 43 45 44 39 46 51 48 42 44 43 43 41 41 40 40 41 41 42 45 46 46 46 48 47 48 49 50 52 52 54 57 57 57 59 59 59 59 60
30 33 22 39 46 46 43 45 47 47 47 45 41 39 39 40 40 39 39 38 37 38 39 41 45 46 45 44 45 43 43 43 45 47 47 48 48 48 48 52 56 56 56 57
28 28 34 39 41 40 39 40 45 43 45 43 43 42 35 35 35 36 37 37 36 37 38 40 42 45 45 44 42 39 39 40 41 43 43 43 43 43 44 47 46 41 41 43
30 24 21 35 41 46 45 35 42 42 44 43 44 34 33 34 34 34 37 38 37 37 37 37 39 43 42 41 40 37 39 39 39 41 40 40 41 41 43 43 40 39 37 36
29 28 33 38 42 45 33 32 39 40 40 40 35 34 32 33 32 33 35 37 39 38 35 35 37 39 37 39 37 38 39 38 38 39 38 38 39 40 41 39 37 35 33 32
30 27 24 41 43 35 36 37 37 37 36 34 33 33 32 31 31 31 32 36 37 36 34 35 36 37 35 35 38 38 38 37 35 36 36 37 37 37 38 38 35 33 32 31
33 31 37 39 36 37 38 34 34 35 36 35 32 30 30 30 31 31 32 33 35 34 34 34 34 34 32 34 37 37 36 34 34 33 34 34 33 33 34 34 33 32 32 31
33 33 32 35 35 36 34 32 32 33 33 33 31 30 28 28 29 29 30 30 32 32 31 30 32 32 32 34 37 35 34 33 33 32 32 34 34 33 32 32 31 32 31 30
31 32 34 33 34 33 32 33 31 30 29 30 30 28 28 27 27 28 29 30 30 29 28 28 30 30 31 34 36 34 33 33 32 32 31 30 30 30 31 30 32 30 30 30
26 30 31 30 32 32 30 28 28 30 28 29 30 28 28 26 27 26 26 27 27 28 28 28 28 28 30 32 34 34 33 32 31 31 30 30 29 27 29 30 30 31 31 30
29 33 31 30 31 32 29 29 30 28 28 27 27 27 26 25 25 25 26 25 25 25 26 27 27 27 28 30 30 29 29 30 31 30 29 28 27 26 23 24 26 27 28 29
30 32 29 28 26 30 32 30 30 28 27 26 26 26 25 24 23 23 22 24 24 24 24 24 24 23 25 27 27 25 25 24 26 25 25 24 24 23 24 23 21 21 22 25
29 31 29 28 29 28 30 30 28 26 26 24 24 23 23 21 19 19 21 23 23 22 21 22 21 21 24 25 24 24 27 25 25 24 24 23 23 23 22 21 20 20 21 21
30 30 29 27 25 26 26 26 25 23 24 23 22 21 21 20 19 19 19 19 18 16 18 16 18 20 23 24 25 25 24 22 23 24 23 22 22 21 19 18 17 17 16 16
28 24 26 25 24 23 22 23 22 21 21 20 19 20 20 19 18 16 16 17 16 15 16 17 16 18 20 20 22 23 23 22 21 23 21 21 20 19 18 17 15 14 13 13
26 26 26 25 24 22 21 21 20 19 17 16 14 13 11 11 12 11 12 14 14 13 13 14 17 16 17 19 20 22 22 22 21 20 20 19 18 18 16 15 14 14 13 12
25 24 25 23 22 21 19 18 17 16 14 12 10 8 8 8 10 10 11 10 10 11 11 13 17 16 16 18 20 21 20 19 19 18 18 16 16 16 14 14 12 12 12 11
21 21 21 19 21 20 17 16 15 12 12 10 7 7 7 5 6 8 9 8 9 11 13 13 14 15 15 15 16 18 18 17 17 16 15 15 14 13 12 10 11 10 10 10
15 15 14 13 10 9 7 8 8 7 4 5 6 4 4 5 5 6 10 11 11 12 13 13 13 15 16 16 17 16 15 14 13 13 13 12 12 11 10 10 9 9 8 8
12 10 8 9 9 8 7 9 8 6 7 5 1 2 6 8 7 9 7 10 14 10 14 14 14 9 12 13 14 13 13 12 12 12 11 11 10 9 9 8 7 7 7 6
11 11 10 9 10 10 9 9 6 8 7 5 6 8 10 11 12 11 10 12 14 12 14 12 9 8 8 11 11 10 10 9 9 8 8 8 8 8 8 7 7 6 6 6
11 12 10 10 10 13 12 11 12 11 8 9 8 6 12 12 11 14 14 9 8 9 10 10 8 6 7 9 9 8 8 8 7 7 7 3 6 6 6 6 5 6 5 4
13 11 11 11 13 15 13 13 13 13 14 14 13 14 13 15 13 13 12 11 9 9 10 4 4 4 8 8 7 7 7 7 7 7 6 6 5 5 5 5 3 4 3 3
15 17 17 15 17 18 17 16 16 16 14 12 12 10 11 12 12 12 11 7 9 6 10 9 7 7 7 7 7 6 7 7 7 6 4 5 4 5 4 3 3 3 3 3
18 16 18 18 19 18 17 17 17 16 14 12 12 10 11 10 9 9 3 9 8 7 7 7 8 6 7 6 6 6 6 6 1 6 4 4 4 5 3 3 3 2 1 -0

GFSNGP_sfc_temp_102.txt.gz
Temp
45 46 46 46 45 45 44 45 39 47 47 53 57 57 57 51 48 47 47 42 41 41 43 46 47 48 50 57 58 59 59 61 61 63 64 65 64 65 66 66 66 66 65 66
40 46 45 42 45 46 46 47 47 49 49 56 48 49 44 43 43 42 42 40 39 39 41 43 45 45 46 47 48 51 51 52 59 61 60 60 63 62 62 64 65 65 65 65
35 42 42 37 44 45 47 50 49 41 49 49 36 35 34 36 38 37 38 37 36 36 39 41 43 44 43 43 45 45 46 47 48 50 52 52 57 58 61 62 64 63 64 65
36 38 28 42 51 50 47 49 47 47 42 40 37 35 33 34 34 34 35 35 34 34 36 39 43 44 42 43 43 42 41 43 44 46 46 47 48 48 49 51 49 52 50 56
34 35 39 42 44 44 43 43 43 40 42 44 42 42 33 33 33 33 34 35 35 34 33 37 40 43 43 42 41 41 39 40 41 42 42 42 42 43 45 44 41 39 39 41
37 30 27 38 47 52 50 38 43 42 38 41 41 37 33 33 32 32 34 36 36 38 37 35 37 42 41 40 40 39 38 38 41 41 41 41 42 41 41 40 38 37 35 35
35 33 37 43 49 52 36 32 39 39 36 35 31 32 32 32 31 32 33 34 37 37 37 37 39 39 38 39 38 41 40 39 40 42 41 41 42 42 40 38 36 34 33 33
36 31 27 38 48 38 35 36 36 36 38 35 34 33 32 31 30 31 32 37 39 37 36 37 38 38 36 36 38 39 40 39 39 39 41 41 41 40 41 39 36 34 33 32
32 29 34 35 33 35 36 33 34 35 35 35 33 32 30 29 30 31 32 34 38 36 36 36 36 36 34 36 39 38 37 38 37 38 39 39 39 39 39 40 39 37 36 35
33 32 32 34 35 34 35 33 35 35 36 38 35 33 30 31 31 31 32 34 37 38 37 35 35 35 34 36 39 38 37 36 34 33 35 37 37 36 35 36 35 35 34 33
32 34 35 35 34 35 34 36 36 36 35 35 36 34 33 31 31 31 32 34 35 35 36 35 36 35 36 36 38 37 36 36 35 34 33 31 30 31 31 31 33 32 32 32
29 31 33 31 34 35 33 31 32 34 35 36 37 34 34 32 32 32 32 32 32 33 33 34 35 34 35 37 37 36 34 34 34 34 35 35 33 28 29 29 30 31 31 31
32 33 32 32 33 34 31 31 35 35 35 33 34 34 33 30 30 30 31 31 31 31 32 33 32 31 31 33 34 33 32 33 34 33 33 32 32 30 26 26 27 28 29 29
34 33 31 33 31 34 34 35 34 34 33 33 33 33 32 30 30 29 28 29 30 30 30 30 30 26 28 31 31 30 29 28 30 29 30 29 29 29 29 28 26 24 24 26
33 33 31 31 33 33 35 35 33 31 31 30 31 30 30 28 26 25 27 29 29 28 27 26 25 24 27 29 29 28 30 29 29 29 29 29 29 28 28 27 26 26 27 26
33 32 31 29 31 31 31 31 30 27 28 28 27 26 27 27 26 25 25 24 23 21 22 21 22 23 26 28 30 30 28 27 28 29 28 28 28 27 26 26 25 23 22 22
32 30 31 28 28 28 27 27 27 26 26 25 24 25 25 24 23 22 21 22 20 19 21 20 20 21 23 24 28 29 29 28 27 28 27 27 27 26 25 25 24 22 19 19
34 32 31 30 28 27 26 26 25 24 21 20 19 17 15 15 16 16 16 18 18 18 18 18 20 21 21 23 26 28 28 27 27 26 26 25 25 25 24 23 23 22 21 19
32 30 28 28 28 26 25 23 22 20 18 16 15 13 13 14 15 15 16 16 17 17 16 18 20 21 21 20 25 27 26 26 25 25 24 23 23 23 22 22 21 20 20 19
28 27 27 26 27 25 22 21 21 17 16 15 14 13 13 12 12 13 16 14 14 16 18 18 21 22 21 21 22 26 24 24 24 23 23 23 22 20 18 17 19 19 18 18
22 21 19 18 15 15 15 15 14 13 12 12 13 11 11 12 13 14 18 20 17 16 18 19 19 21 23 22 25 23 23 22 21 21 21 20 20 19 19 18 18 18 17 17
18 16 15 15 15 14 14 16 14 13 12 11 8 10 12 14 14 14 13 16 20 15 20 20 19 14 17 19 22 21 20 20 20 20 19 19 19 18 17 17 16 15 15 15
18 18 17 16 17 17 16 15 14 15 13 13 13 15 16 18 19 18 18 18 20 16 20 17 12 12 14 18 18 18 17 16 16 16 16 16 17 17 16 15 15 15 14 14
19 19 18 18 17 20 19 18 19 17 14 16 14 13 17 20 20 21 20 15 13 14 14 14 12 11 13 16 16 15 15 15 15 15 14 12 15 14 14 14 14 14 12 12
19 19 18 17 20 24 20 20 19 19 19 20 18 20 19 21 18 19 18 18 13 16 17 9 10 11 15 15 14 14 14 14 13 14 14 13 13 13 14 14 12 13 12 12
22 24 25 22 24 25 25 24 22 23 22 20 21 21 20 20 20 19 19 14 16 14 16 16 14 14 15 15 14 13 14 15 15 14 11 13 13 13 12 11 11 11 11 11
24 22 25 24 26 26 25 24 22 22 21 20 19 20 20 19 18 16 12 17 17 16 16 16 15 14 13 13 14 14 14 14 10 12 13 13 12 13 11 11 11 11 10 8

GFSNGP_sfc_temp_105.txt.gz
Temp
46 50 51 48 47 48 45 47 41 47 48 49 49 44 42 43 42 43 44 43 44 44 40 39 44 44 46 49 58 60 59 60 59 62 65 69 69 66 65 65 64 65 64 64
43 49 50 46 49 49 49 49 50 52 44 52 50 47 38 36 36 37 37 38 38 40 38 37 41 41 43 44 45 49 49 49 57 61 63 63 63 63 63 63 65 64 64 64
35 46 46 39 46 49 51 48 47 38 43 52 43 36 33 34 34 34 34 35 35 34 35 36 39 41 40 41 43 43 43 45 47 50 51 51 58 61 61 61 63 63 63 63
37 40 30 45 55 54 49 45 45 42 41 38 34 33 34 34 33 33 34 34 34 32 33 36 38 40 40 41 40 40 40 41 43 45 45 46 47 48 48 47 45 46 45 46
37 38 42 43 48 47 46 36 46 43 40 40 37 40 36 34 34 33 33 35 34 34 32 34 36 39 39 39 38 38 36 37 40 41 42 42 41 41 42 40 38 38 38 38
41 34 28 36 49 54 54 32 42 44 39 39 40 36 34 34 33 33 34 35 35 35 36 33 33 38 36 35 37 35 33 36 39 40 40 40 40 38 37 36 35 35 34 34
38 38 37 35 43 51 35 29 38 41 41 40 33 32 33 33 32 33 34 40 43 40 37 38 38 35 35 36 33 35 37 37 39 40 40 40 40 38 36 34 33 32 32 32
39 36 28 34 46 34 33 35 36 36 39 37 36 35 34 31 31 33 33 36 43 41 38 38 39 38 34 34 37 36 35 37 38 38 40 41 40 40 40 39 36 35 34 34
31 29 33 35 34 35 39 37 36 37 38 38 36 34 33 33 35 36 39 40 42 43 42 40 39 38 35 36 38 38 36 36 36 35 39 39 37 37 38 39 38 36 35 35
33 33 34 36 38 39 39 37 38 39 40 41 38 39 37 38 38 38 38 38 42 41 40 38 38 38 38 39 41 39 37 35 35 31 31 32 34 33 31 34 35 35 34 33
32 34 36 36 37 37 36 39 40 42 41 40 41 40 40 38 38 38 38 39 39 38 38 38 38 36 37 38 39 39 38 37 36 35 33 31 28 29 30 29 30 31 29 30
29 33 35 33 36 38 36 36 38 40 40 41 41 40 40 38 38 38 36 37 37 37 37 36 36 34 34 36 37 36 35 35 34 35 35 34 32 28 29 29 30 30 31 30
33 36 34 34 35 37 35 37 39 39 40 39 39 39 38 36 35 35 36 35 34 33 34 34 31 30 31 33 33 33 32 33 34 34 34 33 33 31 26 27 28 28 29 29
38 37 34 36 34 37 38 39 39 39 39 37 38 38 36 34 34 32 32 33 34 32 31 31 29 27 29 32 31 31 30 30 31 31 31 31 31 30 31 28 26 24 26 27
36 38 35 34 36 37 40 40 37 35 35 34 35 34 34 31 29 29 30 31 32 30 28 27 26 24 28 29 30 29 30 30 30 30 30 30 31 30 30 29 27 27 28 28
37 36 35 34 34 35 36 35 34 31 31 31 31 31 31 31 30 28 27 26 24 22 24 22 23 24 26 28 30 30 30 28 29 30 30 30 30 29 29 27 26 24 23 24
36 34 35 33 32 32 31 32 31 29 29 28 26 27 29 28 27 24 23 24 22 21 22 21 21 24 24 26 28 30 30 30 29 29 29 28 27 27 27 26 24 22 20 22
40 38 37 36 33 31 30 30 29 27 24 23 21 19 18 18 19 19 19 21 22 21 20 20 22 24 24 23 26 29 29 29 29 28 28 27 26 26 26 25 24 23 22 22
37 34 33 33 33 31 29 27 25 23 21 19 18 16 17 17 17 18 19 18 19 20 18 20 22 24 24 23 26 29 28 28 28 27 26 26 24 24 24 24 23 24 24 23
33 33 32 31 31 29 25 25 24 20 19 19 17 17 16 15 15 16 20 17 17 18 21 21 22 25 24 25 27 29 26 26 26 24 24 24 23 23 22 21 23 23 22 21
27 26 23 21 18 18 18 18 17 16 15 15 16 13 14 15 15 16 21 24 20 18 22 23 21 20 25 23 28 26 25 25 24 24 23 23 23 23 22 22 21 21 20 20
22 20 18 18 18 18 19 19 18 16 16 14 13 13 14 20 18 17 16 18 24 16 23 22 20 15 19 20 25 23 23 23 22 22 22 22 21 21 20 20 19 19 18 18
21 21 20 19 20 20 20 18 18 17 16 16 16 18 20 21 23 21 20 20 22 19 22 19 14 13 15 21 21 21 20 20 20 19 19 19 19 19 19 18 18 18 17 17
23 23 22 23 21 22 21 21 22 20 17 19 17 15 19 22 23 25 23 17 16 16 17 15 13 13 15 19 19 19 19 19 18 18 19 16 18 18 18 17 17 17 16 15
23 23 22 21 24 25 24 23 23 22 22 24 22 24 22 24 20 21 20 20 16 18 19 12 13 14 18 18 17 17 17 17 15 17 17 17 16 16 17 16 14 15 15 15
25 28 28 26 27 29 29 29 27 28 27 25 25 24 24 23 23 21 22 17 19 17 19 18 18 16 18 18 16 16 16 17 17 17 13 16 16 15 15 14 13 14 14 14
27 25 29 28 30 30 29 27 25 25 26 25 22 24 24 22 21 18 16 19 19 19 18 19 18 17 16 15 17 17 17 17 15 15 14 15 15 15 14 13 13 13 13 12

GFSNGP_sfc_temp_108.txt.gz
Temp
38 47 50 45 46 49 45 47 41 41 37 39 39 37 36 37 38 38 38 38 38 38 39 41 40 40 41 42 44 48 53 57 59 60 62 63 63 62 61 61 62 62 61 61
32 43 44 37 48 50 47 46 43 40 36 42 41 40 36 36 35 34 34 35 35 36 36 37 39 38 40 40 41 43 44 44 48 54 58 59 61 61 60 60 61 61 61 60
34 46 44 36 44 43 43 43 41 34 37 40 34 33 31 32 33 33 34 34 33 33 34 35 38 39 38 39 41 40 40 42 43 45 47 50 55 57 56 55 59 57 57 49
34 39 26 40 51 47 41 41 44 40 38 35 32 33 33 33 32 32 33 33 33 32 33 33 36 38 39 39 39 38 38 39 41 42 42 43 45 44 43 43 43 43 44 44
35 35 38 42 43 40 39 33 41 40 41 38 36 37 32 33 33 32 33 35 34 34 33 35 35 37 38 37 37 36 35 36 38 39 39 38 37 38 38 37 36 35 36 36
39 33 27 32 39 48 48 28 38 41 39 39 39 33 30 32 32 32 34 42 41 39 38 35 35 36 36 33 34 33 33 34 36 37 37 36 34 34 36 36 35 35 33 34
36 34 32 34 41 48 32 27 36 38 38 35 31 31 32 33 32 33 34 37 44 41 39 38 38 36 34 34 32 32 34 33 34 35 36 36 35 34 36 34 33 32 32 32
34 30 25 36 41 32 32 35 36 37 38 36 35 34 34 32 33 37 37 41 44 42 39 39 39 37 35 33 34 34 34 33 32 33 34 33 33 35 36 35 33 33 33 32
30 28 34 37 34 37 39 36 36 37 39 39 37 36 36 36 38 39 39 40 42 41 39 38 38 37 34 36 38 36 33 32 31 30 31 32 31 31 33 35 34 33 32 31
32 33 34 36 38 39 40 38 40 41 41 41 39 39 38 38 38 38 39 38 40 39 37 35 36 36 35 37 39 38 36 33 32 29 28 29 30 29 28 29 30 29 30 28
31 34 36 36 36 38 38 41 42 43 41 40 41 39 39 37 37 37 37 38 37 36 34 33 33 33 34 35 36 36 35 35 34 32 29 27 27 27 28 28 29 27 27 27
29 33 34 32 37 39 37 37 40 40 40 40 40 38 39 35 36 36 35 35 34 33 32 31 30 30 31 33 34 33 32 32 31 32 32 30 27 25 29 29 30 30 30 29
33 36 34 35 37 39 38 38 40 39 39 37 38 37 37 34 34 34 34 33 31 30 30 29 28 27 29 32 32 31 30 30 31 31 31 30 29 27 22 25 29 29 30 30
38 37 33 37 35 39 40 41 41 40 38 36 36 36 34 32 31 30 28 31 31 29 27 27 26 24 27 29 30 29 30 30 30 30 29 29 29 28 28 25 23 22 28 28
37 38 36 37 38 39 41 41 38 34 34 33 34 32 32 29 27 26 27 27 28 26 24 24 23 22 25 27 29 28 29 29 30 29 29 29 28 28 27 26 24 24 25 26
38 37 37 36 36 36 37 36 33 30 30 29 29 29 30 29 27 26 25 24 21 19 21 19 21 23 25 25 26 30 29 28 29 29 28 28 28 27 26 24 22 20 20 20
36 35 36 34 32 32 31 31 29 28 27 26 24 23 24 26 24 22 22 23 21 19 20 19 18 23 22 21 22 28 28 28 27 28 27 27 26 25 25 23 20 19 18 20
40 38 38 36 33 31 29 29 28 26 23 22 20 18 16 16 17 17 17 20 20 18 18 18 18 21 20 20 22 27 27 27 27 25 25 24 24 25 24 23 22 20 19 19
37 34 34 33 33 31 28 26 23 22 19 18 17 15 14 13 15 16 18 14 14 16 16 18 22 21 21 21 23 27 26 25 25 24 25 23 22 22 22 22 21 20 20 19
32 32 32 30 30 28 25 24 22 18 18 17 14 13 14 11 11 12 15 15 14 15 18 19 19 18 21 21 21 25 24 24 24 23 21 22 22 20 18 16 19 19 17 16
26 24 21 19 17 17 16 16 15 13 12 11 12 10 10 14 13 12 17 20 16 16 19 19 17 16 20 16 22 22 22 21 21 21 20 20 20 19 18 18 18 17 17 16
22 18 17 17 17 17 17 18 16 14 13 11 9 9 11 16 17 15 12 15 21 14 18 18 15 12 14 13 21 20 20 19 19 19 18 18 18 17 16 16 15 15 14 13
21 20 19 18 19 20 19 18 15 15 13 13 12 14 16 20 21 19 17 18 19 15 19 15 10 9 11 18 18 18 18 17 16 16 15 16 16 16 15 12 14 14 13 13
23 23 21 23 21 21 18 19 19 19 16 18 15 12 18 19 21 22 20 14 12 11 15 13 10 9 10 17 16 16 16 16 15 15 16 12 15 14 13 12 12 13 11 9
24 23 23 21 21 24 24 24 23 22 23 24 23 22 22 23 19 19 19 19 16 15 17 10 9 9 16 17 15 14 15 14 12 12 13 13 13 12 12 12 8 9 6 8
24 25 26 26 25 28 29 28 27 28 27 26 25 23 23 22 22 20 20 16 18 15 18 18 17 15 16 15 14 15 14 15 15 13 10 13 13 11 11 9 7 9 9 9
28 26 28 28 30 29 28 25 23 23 24 22 22 23 23 22 21 18 16 19 19 18 18 18 18 16 15 14 14 15 14 15 13 12 10 10 11 12 11 9 9 9 7 5

GFSNGP_sfc_temp_111.txt.gz
Temp
36 40 37 34 35 36 37 41 32 32 31 33 34 34 34 36 35 35 35 35 35 35 35 37 38 40 41 41 41 43 44 45 46 49 59 59 61 60 60 60 60 60 60 59
31 38 39 34 41 41 39 37 37 35 31 35 34 35 33 33 34 32 33 34 34 34 35 35 37 38 39 39 39 41 41 41 43 44 47 53 59 59 59 59 59 59 58 58
28 37 40 31 36 36 36 38 37 30 35 35 32 30 30 31 32 31 33 33 32 32 33 35 35 37 37 38 39 39 39 40 41 41 42 43 45 52 53 56 55 53 50 48
30 36 25 32 42 40 34 35 38 37 34 33 31 31 31 31 31 31 32 34 33 32 33 34 36 36 37 37 37 37 37 38 39 40 40 40 40 38 39 40 41 41 40 40
28 28 32 35 36 33 35 30 36 35 35 34 34 36 30 32 32 32 33 35 35 35 34 35 35 37 35 35 34 34 33 35 37 38 38 38 36 35 36 35 35 35 36 36
32 27 22 30 35 41 42 24 35 37 33 32 36 27 26 32 32 32 34 37 36 36 37 35 35 37 35 33 32 32 32 33 35 35 34 34 35 34 34 34 32 33 32 33
29 27 28 31 36 42 28 25 35 35 34 33 28 29 31 32 31 32 34 39 40 36 33 35 36 36 34 34 31 32 32 32 32 32 32 33 34 34 33 33 33 32 31 31
28 26 21 34 37 29 32 35 35 35 35 34 33 33 33 32 33 34 34 37 39 35 33 33 34 34 32 32 35 34 32 31 30 30 31 31 31 32 32 32 32 32 31 31
28 26 32 35 33 35 35 33 34 36 38 38 35 35 35 33 33 34 34 35 37 34 32 32 32 32 30 32 37 36 33 30 29 29 29 30 29 29 30 31 31 29 29 28
30 31 32 34 36 37 39 38 39 38 38 40 37 36 33 33 32 32 33 32 33 31 29 28 31 31 31 32 35 35 33 31 29 28 27 28 28 28 28 28 27 28 27 27
29 32 33 34 35 36 37 38 39 39 36 36 35 34 32 31 31 31 31 31 30 28 27 26 29 28 29 32 33 32 32 32 31 29 27 26 27 27 27 28 28 26 26 27
26 33 32 31 36 38 36 35 36 35 35 35 35 33 32 30 30 30 29 29 27 26 26 25 25 25 26 29 31 30 29 30 30 30 28 27 25 25 30 29 31 31 31 29
30 35 34 34 36 38 35 37 36 35 34 33 33 32 30 28 28 27 27 26 25 24 24 24 23 22 24 26 29 29 27 28 28 29 29 28 25 24 21 25 30 30 30 31
37 36 32 34 33 38 39 38 37 34 33 31 31 31 28 26 25 24 22 25 25 23 22 22 21 20 22 24 27 26 26 27 25 25 26 26 26 26 23 21 19 21 28 28
35 36 35 36 37 37 38 36 31 28 28 27 27 27 26 23 22 22 22 23 23 21 20 19 19 19 21 22 22 25 25 25 26 25 25 24 24 24 23 21 19 19 20 24
36 35 34 32 32 31 30 29 26 25 24 23 22 22 25 23 22 21 21 20 18 15 16 12 16 17 22 21 20 25 25 24 24 23 23 23 23 21 20 18 17 17 17 19
31 30 30 27 27 26 26 25 24 22 21 21 20 20 21 22 20 18 17 19 16 12 16 15 13 15 18 18 18 23 24 18 19 21 22 21 21 21 16 16 16 14 16 18
34 32 32 30 26 25 24 24 22 21 18 18 16 12 8 8 10 9 10 10 11 8 10 9 12 15 14 15 17 17 20 19 19 19 16 17 19 20 18 17 14 14 16 16
31 29 28 28 26 24 22 20 19 18 14 12 8 4 3 1 4 3 7 4 2 2 8 7 18 11 12 15 16 17 17 18 16 17 18 12 12 16 16 14 12 13 12 11
27 25 23 23 25 23 20 19 17 13 9 7 2 1 -1 -1 -2 -3 -1 3 3 3 4 7 10 10 12 15 12 18 17 17 18 18 15 13 14 10 9 10 12 7 4 4
18 17 15 14 12 11 8 6 5 2 -1 -2 -1 -3 -2 0 -1 -1 2 9 9 5 13 10 10 10 12 11 14 12 11 12 13 15 14 15 14 11 8 6 6 7 8 9
13 11 8 8 10 6 5 5 5 1 1 -1 -2 -4 -3 5 3 5 1 6 9 6 12 10 9 4 9 7 14 11 12 9 8 8 8 9 12 12 10 9 9 9 8 5
12 12 11 8 9 9 6 6 3 3 1 0 -0 1 2 8 10 7 7 10 11 7 11 6 2 1 2 8 4 4 8 7 7 6 -2 -1 -2 2 2 2 6 2 1 4
13 13 10 12 13 14 10 7 9 11 5 6 4 3 8 5 5 16 14 8 4 -1 1 3 -0 2 1 4 -2 -2 5 -4 -5 -1 7 5 -3 -3 -1 -5 -1 5 -1 -5
15 13 12 10 13 14 18 16 14 16 16 17 18 18 15 16 8 8 6 6 8 6 3 6 5 2 -2 5 -2 -3 -4 3 -4 -6 -6 -7 -1 -4 -4 -1 -6 -8 -7 -4
18 17 16 17 19 19 19 20 16 18 20 18 20 17 13 10 9 9 8 7 7 10 4 1 6 4 -2 -2 -4 -0 3 1 5 1 -5 -4 2 -3 2 -3 -7 -4 -1 -4
21 21 21 20 21 21 19 16 12 10 10 5 9 18 14 7 4 7 5 5 8 2 1 4 1 5 5 1 -2 -1 -0 -1 4 1 -5 -7 -5 -3 1 0 -5 -7 -8 -9

GFSNGP_sfc_temp_114.txt.gz
Temp
36 36 36 33 35 36 35 33 29 29 28 29 31 31 31 34 34 33 33 34 34 34 34 35 36 37 39 39 40 41 41 42 42 44 46 48 58 58 60 60 60 60 59 58
31 35 35 31 33 34 35 34 32 31 27 32 32 33 31 31 32 32 33 33 34 34 34 34 35 35 37 38 38 40 39 39 41 43 43 42 45 54 59 59 59 59 58 57
27 33 34 27 30 31 32 33 34 29 31 32 29 29 28 29 31 31 33 33 32 32 32 33 35 35 35 36 37 37 38 38 39 40 40 40 41 41 42 45 51 49 49 48
28 31 21 29 36 37 32 33 34 33 31 30 29 29 30 31 30 30 33 33 32 32 32 33 36 37 36 36 35 34 34 36 37 38 38 39 39 37 36 37 37 38 38 39
28 28 28 32 32 30 31 28 34 32 33 32 32 35 29 32 32 31 33 33 31 32 33 33 34 36 36 34 33 33 31 31 33 35 35 36 34 35 35 34 34 33 34 34
30 25 19 26 32 38 38 24 34 33 31 31 34 24 25 31 32 32 34 34 32 32 32 31 32 35 34 33 32 30 30 30 31 33 32 33 33 34 34 34 33 33 32 33
28 26 26 30 35 40 26 24 34 34 33 30 27 28 30 32 30 31 33 35 34 32 29 30 33 33 31 32 32 32 32 30 30 30 31 31 33 33 33 32 33 32 32 32
27 23 20 32 34 29 31 33 34 35 34 32 32 33 32 29 30 31 30 31 32 30 29 30 31 31 30 29 34 33 32 30 29 29 30 30 30 31 31 32 30 30 31 31
27 25 31 33 32 34 35 33 33 34 37 35 32 30 30 29 29 29 29 28 30 28 28 28 29 29 28 29 33 34 30 28 27 28 28 28 28 28 28 29 29 28 29 29
28 30 31 33 34 37 36 35 34 34 35 35 31 30 29 29 29 28 27 26 27 26 25 24 26 27 27 29 32 33 31 28 28 26 27 28 29 29 28 27 27 27 28 28
29 31 32 33 34 35 34 35 35 34 33 32 31 29 29 28 27 27 26 26 25 24 24 23 24 24 25 26 30 29 30 30 29 27 26 26 27 28 28 29 29 27 28 29
26 33 31 31 35 36 32 31 32 31 30 32 30 28 27 25 24 25 24 24 22 23 22 22 22 22 23 25 28 28 28 28 28 28 25 24 24 24 29 30 31 31 32 29
31 34 33 34 34 35 31 31 32 30 30 28 29 27 26 23 24 24 24 22 21 21 21 22 21 21 22 24 26 27 27 27 26 26 27 25 22 22 19 24 29 30 30 31
36 35 31 34 29 35 34 33 32 29 28 28 27 26 25 23 23 21 20 21 22 20 20 19 20 18 21 23 24 23 22 24 24 23 21 22 19 19 18 19 18 19 25 27
34 36 35 34 33 33 33 30 26 25 24 23 24 24 23 21 19 20 20 21 21 19 18 17 17 16 19 21 20 23 23 23 21 20 22 22 19 18 17 17 16 17 19 21
35 35 31 29 27 28 27 26 23 21 21 21 21 22 21 21 19 19 19 18 16 13 15 11 15 15 18 18 18 22 22 19 19 19 18 21 16 15 16 15 16 17 16 17
29 27 27 26 25 24 23 22 21 20 20 19 18 19 21 19 18 16 15 17 13 9 13 12 9 12 13 13 13 15 19 16 13 15 17 19 17 10 11 14 15 15 14 15
31 32 30 28 24 22 22 22 21 20 17 17 14 9 5 5 7 7 7 7 7 7 8 5 7 7 9 11 13 14 14 13 15 16 12 12 16 17 11 9 13 14 13 13
29 28 27 26 24 23 21 19 18 17 12 10 6 2 -0 -3 1 -0 0 -1 -3 -2 4 2 14 6 7 11 13 14 14 14 14 14 14 8 9 14 12 12 10 6 8 9
24 25 24 23 24 22 19 17 16 12 7 5 -4 -4 -3 -4 -7 -7 -4 1 -2 2 -0 1 5 7 9 11 10 13 10 10 14 14 14 11 6 3 8 11 8 3 2 3
18 17 15 15 11 10 7 6 5 0 -3 -6 -2 -4 -4 -4 -7 -6 -0 3 2 1 6 8 7 8 11 8 12 7 5 5 6 8 9 9 8 7 -1 -2 4 6 5 7
11 10 8 8 8 3 0 2 2 -3 -3 -5 -8 -10 -6 -0 -4 -1 -2 4 7 3 8 8 8 2 6 5 9 4 8 5 2 1 1 -0 3 4 5 4 3 1 -0 -1
10 11 10 7 8 8 2 2 -2 0 -1 -3 -2 -3 -0 4 5 5 4 9 9 5 9 4 1 -1 -1 -2 -4 -4 -2 -4 -4 -3 -5 -4 -4 -8 -5 -3 -4 -3 -3 -1
10 12 10 10 8 12 9 6 7 9 2 3 3 1 7 3 3 11 11 6 3 -2 -1 2 -1 1 -3 -4 -7 -8 -6 -8 -9 -10 -3 -4 -7 -6 -7 -8 -7 -9 -11 -10
13 12 12 10 13 12 13 12 11 11 14 16 16 17 14 14 8 8 3 5 5 4 1 0 2 2 -7 -7 -9 -8 -9 -7 -4 -10 -11 -11 -7 -8 -8 -8 -12 -12 -13 -8
16 17 17 16 16 17 18 18 15 15 17 15 15 13 13 11 13 8 4 3 4 6 2 -2 -4 -1 -3 -6 -7 -9 -5 -3 -3 -0 -7 -10 -11 -5 -4 -6 -10 -11 -10 -11
17 17 18 17 20 19 17 16 12 9 7 1 5 10 13 11 5 5 -0 -3 -2 -3 -4 -4 -5 -3 -3 -4 -1 -5 -6 -6 -5 -5 -9 -11 -12 -8 -5 -7 -8 -10 -13 -14

GFSNGP_sfc_temp_117.txt.gz
Temp
32 33 34 33 37 35 33 32 27 26 25 27 28 29 30 32 33 33 33 33 33 33 34 35 36 36 37 37 38 39 39 39 40 41 43 43 44 46 56 59 59 59 59 59
29 34 33 28 30 32 32 31 29 30 25 30 30 31 30 30 31 31 31 32 32 33 33 33 35 35 36 36 36 37 36 36 39 40 41 41 41 41 41 43 53 58 58 58
27 33 33 25 27 29 30 32 34 27 27 30 27 28 28 29 30 31 30 30 29 30 31 32 33 35 34 35 36 35 35 35 36 38 38 38 39 39 38 37 38 40 43 46
28 31 19 27 33 34 30 31 32 30 29 28 28 28 30 30 30 31 29 28 28 28 30 31 33 35 36 35 34 33 32 33 33 34 35 37 37 36 37 37 35 34 35 37
27 25 27 29 30 29 30 27 32 31 31 30 30 32 28 32 32 30 29 29 28 28 29 30 30 33 35 33 32 31 29 30 31 32 32 33 33 34 35 35 34 33 34 34
30 24 19 26 31 35 36 23 33 32 30 29 32 23 24 30 29 29 31 30 28 28 28 27 29 32 32 32 30 28 29 29 30 30 31 30 31 31 33 33 32 33 32 33
28 24 26 29 32 36 25 24 33 32 31 28 25 26 28 27 25 26 28 29 30 28 26 27 29 30 28 30 30 29 30 29 28 29 30 30 30 31 31 31 32 32 32 32
27 23 19 32 34 28 30 32 33 33 32 31 30 28 27 25 24 26 25 26 27 26 25 25 27 27 25 26 31 33 29 27 26 26 28 29 29 30 30 30 30 30 30 30
26 24 30 32 31 33 34 30 30 32 34 31 28 27 26 25 26 26 25 25 26 25 24 25 25 25 24 26 30 31 30 27 26 26 27 27 27 27 29 29 29 29 29 29
27 29 30 32 33 34 33 30 31 32 32 31 27 27 26 25 24 24 23 23 24 23 22 22 24 25 24 26 30 29 29 29 28 25 25 28 29 29 28 28 26 28 28 28
27 30 31 32 32 32 32 32 32 32 30 28 27 25 24 23 23 22 22 22 22 21 21 20 22 22 23 25 28 29 29 29 28 26 25 24 26 27 27 28 29 27 27 28
24 30 30 30 33 33 29 28 29 28 27 28 27 24 23 21 22 21 21 21 20 21 20 19 20 21 22 23 26 27 27 27 26 26 24 24 22 22 28 29 30 31 31 28
32 35 33 34 32 32 28 29 29 28 27 24 25 24 23 21 22 22 21 20 19 19 19 19 20 19 20 23 25 26 24 25 25 24 24 23 21 20 18 22 27 28 29 29
35 34 31 33 27 31 30 29 28 25 26 26 24 24 23 21 21 19 19 20 20 19 18 18 18 16 18 21 22 22 19 19 19 19 18 16 15 13 12 13 13 17 23 24
35 35 31 32 31 29 29 27 25 24 24 23 24 23 22 19 18 18 19 21 19 18 16 15 15 13 15 18 19 20 20 19 17 15 17 14 13 12 12 12 11 14 17 18
34 32 31 28 26 26 26 25 22 21 21 21 21 21 20 19 17 16 17 16 14 10 12 8 12 11 15 16 16 18 18 17 14 15 16 14 11 10 12 13 13 12 14 14
28 26 26 25 25 25 24 23 22 21 20 19 18 19 19 18 16 15 13 13 11 7 11 9 6 8 10 11 9 12 11 11 11 12 11 15 10 7 7 10 11 11 11 13
31 30 30 28 24 22 22 22 21 20 16 16 13 8 4 5 6 5 3 5 5 6 5 2 2 4 6 6 8 10 13 12 12 11 9 8 12 13 10 6 7 7 7 10
30 28 26 26 25 23 21 19 17 16 11 8 5 -1 -3 -4 -1 -3 -5 -5 -5 -3 1 -0 10 5 5 8 10 9 8 9 11 13 11 6 6 9 7 3 3 0 4 5
25 26 25 23 24 22 18 16 15 11 6 4 -3 -4 -2 -6 -10 -9 -8 -2 -3 0 -4 0 3 6 8 9 8 10 6 5 9 11 10 10 4 1 3 6 5 -0 -4 -3
20 19 17 16 12 9 7 6 6 3 -5 -7 -3 -5 -5 -7 -10 -11 -4 1 2 -0 4 6 6 6 9 7 9 3 0 -2 -1 1 0 4 3 2 -1 1 3 2 0 1
12 11 8 7 8 1 -2 -1 1 -4 -5 -8 -11 -12 -10 -3 -6 -5 -4 4 6 3 7 6 6 1 5 1 7 -1 4 1 -2 -4 -5 -6 -1 0 1 -0 -4 -4 -5 -6
10 10 8 7 8 7 2 1 -4 -2 -5 -6 -5 -4 -1 3 3 2 3 8 8 5 8 5 0 -2 -2 -7 -6 -9 -8 -9 -8 -7 -6 -9 -9 -9 -7 -4 -4 -8 -7 -3
8 10 8 9 9 11 8 3 4 5 -2 1 1 -1 6 4 2 11 10 5 2 -1 -2 0 -3 1 -4 -8 -10 -11 -10 -12 -11 -13 -10 -10 -12 -9 -8 -9 -6 -9 -10 -9
12 11 10 8 10 10 10 9 9 9 12 14 14 16 12 13 8 8 4 4 4 4 3 0 -1 -1 -7 -10 -11 -12 -12 -12 -11 -13 -12 -14 -13 -10 -10 -13 -14 -14 -16 -14
15 15 14 13 14 14 14 15 13 13 14 10 10 8 9 13 12 8 5 3 5 6 4 -1 -7 -9 -7 -5 -9 -10 -10 -5 -8 -8 -10 -12 -14 -12 -10 -6 -12 -13 -14 -15
16 16 16 16 17 17 16 15 12 11 7 2 5 4 5 3 5 4 1 -2 -1 -1 -4 -3 -8 -6 -4 -5 -3 -1 -6 -6 -8 -5 -8 -12 -15 -14 -11 -8 -9 -10 -13 -15

GFSNGP_sfc_temp_120.txt.gz
Temp
31 31 31 30 31 35 31 30 25 24 23 25 27 28 29 31 30 30 30 30 31 31 32 33 34 35 36 36 36 37 38 37 37 39 41 41 42 43 43 43 45 47 59 60
28 33 30 26 28 30 31 29 27 26 23 29 30 30 29 29 30 28 28 28 29 30 31 31 32 34 34 33 34 35 35 35 37 38 39 39 39 40 41 41 41 41 42 46
25 32 34 25 26 27 29 30 31 25 26 28 26 27 27 27 29 27 27 27 26 27 28 29 30 33 33 32 34 32 32 33 34 36 36 37 37 38 38 37 39 38 38 38
28 30 19 27 33 32 29 29 30 28 27 27 27 27 28 28 27 26 26 26 26 26 26 28 31 32 35 32 31 31 30 31 32 33 33 35 35 35 35 36 35 35 36 36
25 24 26 29 29 29 29 26 30 30 29 29 30 31 25 28 27 27 27 27 26 27 26 27 28 31 33 33 29 28 27 27 29 31 31 32 31 32 33 33 33 33 33 33
28 25 19 25 31 36 34 23 31 30 28 27 31 22 21 25 25 24 26 27 26 26 25 25 25 29 30 30 30 25 25 26 27 29 29 29 30 30 32 32 32 33 32 32
27 24 25 29 32 36 24 22 31 30 27 27 24 23 24 24 21 23 25 26 27 26 23 24 25 26 26 28 27 29 29 27 26 28 28 29 30 31 31 31 32 31 31 31
27 23 20 31 33 28 30 32 32 29 29 26 25 26 25 21 21 23 22 24 25 23 23 23 24 25 25 24 29 31 29 27 26 27 29 29 29 29 29 30 30 29 30 30
25 23 30 31 30 33 31 28 29 29 29 28 26 25 24 22 22 22 22 21 24 22 22 23 23 24 23 25 29 30 30 28 27 27 26 28 28 28 29 29 28 28 28 28
27 28 29 30 31 32 31 29 30 30 29 28 25 25 23 23 22 21 20 20 21 21 20 20 22 23 23 25 30 30 28 28 28 26 25 25 27 28 27 27 27 27 26 26
27 30 30 30 30 31 31 32 30 29 28 26 25 23 22 21 21 20 20 20 21 20 20 19 21 21 21 24 28 28 28 27 27 27 25 25 25 25 25 26 27 25 25 25
19 30 29 29 30 31 29 28 29 26 25 25 24 22 21 20 20 19 19 19 18 19 19 18 19 19 20 22 27 25 26 25 25 25 23 23 21 21 27 28 28 29 29 26
30 33 31 31 30 30 28 28 28 26 25 22 23 22 21 20 20 21 19 19 17 17 18 18 18 17 18 21 24 24 22 23 22 22 21 20 18 17 13 19 26 26 26 27
35 34 29 30 26 29 29 27 27 25 25 24 23 23 22 20 20 18 17 19 19 17 16 16 16 14 16 19 21 20 17 16 15 16 14 11 8 9 9 12 10 12 20 22
34 34 31 30 28 27 27 26 24 23 23 22 23 21 21 18 17 16 17 19 18 16 14 12 12 11 13 16 17 16 18 17 14 12 11 10 9 10 9 11 11 12 14 16
32 31 29 27 25 25 25 24 22 22 22 21 20 20 19 18 16 15 15 14 12 9 10 5 10 9 13 13 14 15 13 13 11 11 11 10 8 8 9 8 9 9 9 9
27 25 26 25 25 24 24 24 23 21 20 19 18 19 18 17 15 13 11 12 9 5 9 7 2 7 9 8 7 9 9 10 9 10 9 10 7 6 6 5 5 5 3 2
31 30 30 28 26 23 22 23 21 20 16 16 13 8 3 5 6 4 1 3 4 3 3 -1 -0 3 5 5 5 7 7 8 9 7 8 7 11 12 8 2 3 3 1 5
30 28 27 27 25 24 21 19 17 16 11 8 5 -0 -3 -5 -1 -4 -7 -6 -6 -4 0 -2 10 3 3 7 9 7 6 5 8 9 9 6 4 7 5 0 -1 -3 1 2
26 26 25 24 24 22 18 16 14 11 6 3 -3 -6 -3 -6 -11 -11 -10 -3 -3 -0 -6 -1 3 5 6 8 6 8 3 1 6 4 4 6 1 -2 -1 3 3 -3 -7 -6
21 20 19 17 13 10 9 7 6 3 -6 -8 -4 -5 -5 -9 -12 -13 -4 1 1 -2 2 5 5 5 8 6 7 1 -2 -3 -3 -1 -4 -5 -1 2 -5 -7 -5 -6 -4 -0
14 13 10 8 9 2 -3 -2 1 -2 -6 -10 -14 -13 -9 -3 -8 -7 -4 4 5 2 5 6 5 1 4 0 6 -3 3 -0 -3 -5 -5 -7 -10 -10 -5 -4 -6 -8 -7 -4
11 10 8 7 8 6 -1 -2 -6 -3 -6 -8 -7 -7 -3 2 2 2 3 8 7 5 6 4 1 -2 -4 -8 -8 -11 -10 -10 -10 -11 -12 -14 -11 -9 -7 -2 -7 -13 -12 -9
8 9 6 7 8 9 7 2 3 3 -4 -1 -1 -1 5 2 3 10 11 5 1 -1 -3 -1 -4 -0 -4 -9 -11 -12 -13 -13 -14 -15 -9 -12 -17 -15 -8 -6 -4 -11 -14 -14
10 8 7 7 10 10 10 8 8 7 10 13 13 15 11 12 9 9 5 4 3 3 1 1 -1 -3 -9 -11 -12 -12 -11 -14 -11 -15 -13 -15 -13 -15 -14 -10 -4 -11 -15 -16
13 13 12 12 12 12 12 14 11 11 12 8 9 4 5 6 11 11 10 4 2 4 2 1 -6 -9 -11 -8 -8 -8 -7 -4 -7 -8 -6 -3 -4 -9 -13 -8 -6 -10 -12 -13
13 13 14 13 15 15 14 13 10 10 9 3 4 3 4 -0 3 8 4 -2 -3 -3 -2 -2 -9 -7 -2 -1 -2 -2 -2 -5 -7 -3 -4 -5 -6 -6 -10 -7 -5 -3 -4 -4

GFSNGP_sfc_temp_123.txt.gz
Temp
32 31 31 28 30 32 29 30 26 24 22 24 27 27 29 30 29 30 30 29 30 30 30 31 32 36 36 36 36 38 38 38 37 38 40 41 40 40 41 41 43 44 44 44
29 33 31 26 28 29 31 29 27 26 23 29 29 29 28 27 27 27 28 28 28 29 29 30 31 34 35 35 35 36 36 35 37 38 38 39 39 40 39 39 39 39 39 41
27 32 32 26 26 28 29 30 31 25 26 28 26 26 26 27 26 26 27 27 27 27 27 28 29 33 34 33 35 34 33 33 34 36 36 36 37 37 38 38 37 36 35 37
30 31 20 28 33 32 29 30 31 29 29 28 26 26 27 27 26 25 26 27 26 25 26 27 30 32 34 35 33 32 31 30 32 33 34 35 36 35 35 36 35 34 35 35
28 26 27 29 30 29 29 26 31 31 30 30 29 31 26 27 27 25 26 27 27 27 26 27 28 32 33 32 33 30 28 28 29 31 31 32 32 32 34 35 34 33 33 33
31 26 21 26 32 36 36 24 32 31 30 30 33 28 24 25 25 24 27 28 28 28 28 26 27 31 31 29 30 29 28 28 29 31 30 30 31 31 33 33 33 35 33 33
29 26 26 30 33 37 25 26 32 31 30 31 26 26 25 26 24 24 26 27 29 29 27 27 29 30 27 28 27 30 32 30 29 30 30 31 31 32 31 32 32 32 32 32
28 25 22 33 33 29 31 33 33 32 31 28 28 27 26 24 24 25 24 26 28 27 27 27 29 29 26 26 31 32 31 31 30 29 30 31 30 31 32 31 30 30 30 31
28 26 31 31 31 35 36 34 33 32 32 31 28 26 26 25 25 24 25 26 27 27 27 27 28 27 25 27 32 32 31 30 31 31 30 30 29 29 30 30 29 29 28 28
29 29 30 31 33 34 34 33 33 33 32 32 28 27 25 25 25 24 24 25 26 26 25 25 27 27 26 28 31 33 31 30 31 31 31 31 31 30 29 29 28 27 27 27
28 30 31 31 33 33 32 33 31 31 31 29 28 26 26 24 24 24 24 24 25 24 24 24 25 25 26 27 30 31 31 30 29 31 30 30 30 27 27 27 27 26 26 26
27 32 33 31 33 34 32 30 30 29 28 29 28 26 26 24 24 24 23 24 23 23 23 23 24 24 24 26 29 28 28 27 26 28 28 28 28 29 27 27 27 27 27 26
32 36 33 33 33 33 31 30 31 29 28 26 26 26 25 24 24 23 24 22 21 21 22 22 22 21 22 25 27 26 25 25 26 26 26 24 24 24 22 26 25 24 25 24
35 34 30 32 30 32 32 31 29 28 28 27 26 26 25 23 23 22 21 22 22 21 20 20 20 17 18 22 24 22 22 20 23 22 22 22 22 22 22 20 19 20 22 22
36 36 35 33 31 30 30 29 27 26 25 25 26 25 24 22 20 20 21 22 21 19 18 17 16 15 17 19 20 20 22 22 22 22 22 20 22 22 22 21 20 19 20 20
33 32 32 30 29 28 29 28 26 25 25 24 24 23 23 22 20 19 19 18 17 14 14 9 13 13 16 17 19 21 21 18 18 21 21 21 21 21 20 20 19 18 16 16
30 28 29 28 28 28 28 28 28 26 24 23 22 22 22 20 18 17 15 15 13 12 13 11 9 12 13 14 16 19 20 20 16 21 20 20 20 20 19 19 18 17 15 13
37 36 35 33 30 28 27 27 26 24 22 22 20 16 13 14 15 13 10 10 11 11 11 8 8 11 11 13 15 18 18 18 19 18 19 18 17 19 18 18 17 16 16 15
35 33 33 32 31 29 27 24 23 21 17 13 11 11 10 9 11 10 6 7 8 12 13 9 13 12 14 15 16 18 17 16 17 17 17 15 16 16 16 17 16 15 15 15
31 31 30 29 28 27 23 22 19 16 13 10 6 6 9 7 4 4 4 12 14 16 10 11 12 15 14 14 12 17 15 15 15 15 15 15 15 15 14 13 14 14 13 13
26 25 23 22 18 17 16 15 13 10 5 5 9 9 10 8 4 3 9 16 16 10 13 12 15 17 17 14 16 15 14 14 13 13 12 12 12 13 13 13 13 13 13 13
21 19 17 14 14 10 10 12 11 7 5 4 0 3 4 10 6 6 7 15 19 9 15 18 18 10 13 8 16 14 14 13 13 13 12 12 12 11 12 12 11 12 12 11
18 18 15 13 14 13 8 9 7 8 6 6 7 8 11 18 18 17 18 17 17 15 17 18 12 7 6 13 14 13 13 12 11 11 11 10 10 10 10 10 11 11 11 10
16 16 15 13 11 12 12 10 10 11 8 10 9 8 14 15 17 18 20 14 9 11 16 16 13 8 2 13 13 12 12 13 12 11 11 4 9 9 10 10 10 11 10 9
16 14 12 12 15 17 17 14 13 14 14 17 18 19 14 17 16 21 19 18 12 12 18 12 7 6 12 13 13 12 12 12 12 11 11 10 10 9 10 10 9 10 10 9
17 18 18 17 20 20 20 18 19 20 20 19 20 20 20 18 18 17 18 16 16 14 17 17 14 13 13 13 13 12 12 12 12 11 9 11 11 10 10 10 9 10 10 9
18 17 18 18 20 20 20 20 20 20 19 20 20 20 19 17 17 15 13 17 16 15 15 14 13 11 13 13 13 14 13 13 10 11 11 11 11 11 10 10 9 10 9 8